<?xml version="1.0" encoding="UTF-8" standalone="no" ?>
<gpx xmlns="http://www.topografix.com/GPX/1/1" xmlns:xsi="http://www.w3.org/2001/XMLSchema-instance" xsi:schemaLocation="http://www.topografix.com/GPX/1/1 http://www.topografix.com/GPX/1/1/gpx.xsd" version="1.1" creator="VisuGPX - https://www.visugpx.com">
  <metadata>
    <name>rando vtt allan 35km</name>
    <desc><![CDATA[une partie cassante pour finir par une belle descente]]></desc>
  </metadata>
  <trk>
    <name><![CDATA[35km-MNT]]></name>
    <trkseg>
      <trkpt lat="44.50132" lon="4.78604">
        <ele>150.386246</ele>
        <time>2016-08-29T06:41:38Z</time>
      </trkpt>
      <trkpt lat="44.50131" lon="4.78589">
        <ele>150.113754</ele>
        <time>2016-08-29T06:41:41Z</time>
      </trkpt>
      <trkpt lat="44.5013" lon="4.78583">
        <ele>149.982498</ele>
        <time>2016-08-29T06:41:42Z</time>
      </trkpt>
      <trkpt lat="44.50129" lon="4.78576">
        <ele>149.852493</ele>
        <time>2016-08-29T06:41:43Z</time>
      </trkpt>
      <trkpt lat="44.50126" lon="4.78562">
        <ele>149.566254</ele>
        <time>2016-08-29T06:41:45Z</time>
      </trkpt>
      <trkpt lat="44.50122" lon="4.7855">
        <ele>149.288757</ele>
        <time>2016-08-29T06:41:47Z</time>
      </trkpt>
      <trkpt lat="44.50116" lon="4.78526">
        <ele>148.769165</ele>
        <time>2016-08-29T06:41:51Z</time>
      </trkpt>
      <trkpt lat="44.50116" lon="4.78519">
        <ele>148.663727</ele>
        <time>2016-08-29T06:41:52Z</time>
      </trkpt>
      <trkpt lat="44.50119" lon="4.78465">
        <ele>147.99826</ele>
        <time>2016-08-29T06:42:00Z</time>
      </trkpt>
      <trkpt lat="44.50123" lon="4.78446">
        <ele>148.072495</ele>
        <time>2016-08-29T06:42:05Z</time>
      </trkpt>
      <trkpt lat="44.50125" lon="4.78444">
        <ele>148.117493</ele>
        <time>2016-08-29T06:42:06Z</time>
      </trkpt>
      <trkpt lat="44.50174" lon="4.78421">
        <ele>149.016388</ele>
        <time>2016-08-29T06:42:19Z</time>
      </trkpt>
      <trkpt lat="44.50177" lon="4.7842">
        <ele>149.019913</ele>
        <time>2016-08-29T06:42:20Z</time>
      </trkpt>
      <trkpt lat="44.50205" lon="4.78413">
        <ele>148.947495</ele>
        <time>2016-08-29T06:42:27Z</time>
      </trkpt>
      <trkpt lat="44.50209" lon="4.78411">
        <ele>148.908752</ele>
        <time>2016-08-29T06:42:28Z</time>
      </trkpt>
      <trkpt lat="44.50224" lon="4.784">
        <ele>149.016251</ele>
        <time>2016-08-29T06:42:32Z</time>
      </trkpt>
      <trkpt lat="44.50228" lon="4.78398">
        <ele>149.083755</ele>
        <time>2016-08-29T06:42:33Z</time>
      </trkpt>
      <trkpt lat="44.50237" lon="4.78396">
        <ele>149.231247</ele>
        <time>2016-08-29T06:42:35Z</time>
      </trkpt>
      <trkpt lat="44.50241" lon="4.78394">
        <ele>149.279999</ele>
        <time>2016-08-29T06:42:36Z</time>
      </trkpt>
      <trkpt lat="44.50244" lon="4.78391">
        <ele>149.306244</ele>
        <time>2016-08-29T06:42:37Z</time>
      </trkpt>
      <trkpt lat="44.50248" lon="4.78387">
        <ele>149.308746</ele>
        <time>2016-08-29T06:42:38Z</time>
      </trkpt>
      <trkpt lat="44.5025" lon="4.78382">
        <ele>149.287506</ele>
        <time>2016-08-29T06:42:39Z</time>
      </trkpt>
      <trkpt lat="44.50252" lon="4.78377">
        <ele>149.261246</ele>
        <time>2016-08-29T06:42:40Z</time>
      </trkpt>
      <trkpt lat="44.50255" lon="4.78373">
        <ele>149.253754</ele>
        <time>2016-08-29T06:42:41Z</time>
      </trkpt>
      <trkpt lat="44.50258" lon="4.7837">
        <ele>149.229996</ele>
        <time>2016-08-29T06:42:42Z</time>
      </trkpt>
      <trkpt lat="44.50262" lon="4.7837">
        <ele>149.214996</ele>
        <time>2016-08-29T06:42:43Z</time>
      </trkpt>
      <trkpt lat="44.50265" lon="4.78371">
        <ele>149.233749</ele>
        <time>2016-08-29T06:42:44Z</time>
      </trkpt>
      <trkpt lat="44.50269" lon="4.78374">
        <ele>149.278748</ele>
        <time>2016-08-29T06:42:45Z</time>
      </trkpt>
      <trkpt lat="44.50272" lon="4.78378">
        <ele>149.336243</ele>
        <time>2016-08-29T06:42:46Z</time>
      </trkpt>
      <trkpt lat="44.50275" lon="4.78381">
        <ele>149.392502</ele>
        <time>2016-08-29T06:42:47Z</time>
      </trkpt>
      <trkpt lat="44.50331" lon="4.78447">
        <ele>150.392502</ele>
        <time>2016-08-29T06:43:06Z</time>
      </trkpt>
      <trkpt lat="44.50372" lon="4.78512">
        <ele>151.398743</ele>
        <time>2016-08-29T06:43:22Z</time>
      </trkpt>
      <trkpt lat="44.50408" lon="4.78584">
        <ele>152.521255</ele>
        <time>2016-08-29T06:43:38Z</time>
      </trkpt>
      <trkpt lat="44.50435" lon="4.78644">
        <ele>153.460007</ele>
        <time>2016-08-29T06:43:53Z</time>
      </trkpt>
      <trkpt lat="44.50466" lon="4.78621">
        <ele>153.071243</ele>
        <time>2016-08-29T06:44:04Z</time>
      </trkpt>
      <trkpt lat="44.50479" lon="4.7861">
        <ele>152.789993</ele>
        <time>2016-08-29T06:44:07Z</time>
      </trkpt>
      <trkpt lat="44.50519" lon="4.7858">
        <ele>151.772507</ele>
        <time>2016-08-29T06:44:16Z</time>
      </trkpt>
      <trkpt lat="44.50524" lon="4.78579">
        <ele>151.713577</ele>
        <time>2016-08-29T06:44:17Z</time>
      </trkpt>
      <trkpt lat="44.50528" lon="4.78579">
        <ele>151.666901</ele>
        <time>2016-08-29T06:44:18Z</time>
      </trkpt>
      <trkpt lat="44.50533" lon="4.7858">
        <ele>151.644043</ele>
        <time>2016-08-29T06:44:19Z</time>
      </trkpt>
      <trkpt lat="44.50537" lon="4.78581">
        <ele>151.629669</ele>
        <time>2016-08-29T06:44:20Z</time>
      </trkpt>
      <trkpt lat="44.50541" lon="4.78582">
        <ele>151.62114</ele>
        <time>2016-08-29T06:44:21Z</time>
      </trkpt>
      <trkpt lat="44.50577" lon="4.78598">
        <ele>151.771851</ele>
        <time>2016-08-29T06:44:30Z</time>
      </trkpt>
      <trkpt lat="44.5059" lon="4.78601">
        <ele>152.039261</ele>
        <time>2016-08-29T06:44:33Z</time>
      </trkpt>
      <trkpt lat="44.50595" lon="4.78602">
        <ele>152.128876</ele>
        <time>2016-08-29T06:44:34Z</time>
      </trkpt>
      <trkpt lat="44.50626" lon="4.78613">
        <ele>152.733994</ele>
        <time>2016-08-29T06:44:41Z</time>
      </trkpt>
      <trkpt lat="44.5063" lon="4.78615">
        <ele>152.79361</ele>
        <time>2016-08-29T06:44:42Z</time>
      </trkpt>
      <trkpt lat="44.50656" lon="4.78626">
        <ele>153.026245</ele>
        <time>2016-08-29T06:44:48Z</time>
      </trkpt>
      <trkpt lat="44.50694" lon="4.78641">
        <ele>153.228745</ele>
        <time>2016-08-29T06:44:57Z</time>
      </trkpt>
      <trkpt lat="44.50759" lon="4.78665">
        <ele>153.431259</ele>
        <time>2016-08-29T06:45:12Z</time>
      </trkpt>
      <trkpt lat="44.50785" lon="4.78675">
        <ele>153.442612</ele>
        <time>2016-08-29T06:45:18Z</time>
      </trkpt>
      <trkpt lat="44.50842" lon="4.78699">
        <ele>152.664276</ele>
        <time>2016-08-29T06:45:32Z</time>
      </trkpt>
      <trkpt lat="44.50845" lon="4.787">
        <ele>152.498856</ele>
        <time>2016-08-29T06:45:33Z</time>
      </trkpt>
      <trkpt lat="44.50854" lon="4.78704">
        <ele>152.162064</ele>
        <time>2016-08-29T06:45:35Z</time>
      </trkpt>
      <trkpt lat="44.50857" lon="4.78707">
        <ele>152.030106</ele>
        <time>2016-08-29T06:45:36Z</time>
      </trkpt>
      <trkpt lat="44.5086" lon="4.78711">
        <ele>151.968201</ele>
        <time>2016-08-29T06:45:37Z</time>
      </trkpt>
      <trkpt lat="44.50861" lon="4.78717">
        <ele>151.975204</ele>
        <time>2016-08-29T06:45:38Z</time>
      </trkpt>
      <trkpt lat="44.50861" lon="4.78722">
        <ele>152.031036</ele>
        <time>2016-08-29T06:45:39Z</time>
      </trkpt>
      <trkpt lat="44.50859" lon="4.78727">
        <ele>152.113724</ele>
        <time>2016-08-29T06:45:40Z</time>
      </trkpt>
      <trkpt lat="44.50858" lon="4.78732">
        <ele>152.190002</ele>
        <time>2016-08-29T06:45:41Z</time>
      </trkpt>
      <trkpt lat="44.50857" lon="4.78737">
        <ele>152.278534</ele>
        <time>2016-08-29T06:45:42Z</time>
      </trkpt>
      <trkpt lat="44.50836" lon="4.78807">
        <ele>153.590744</ele>
        <time>2016-08-29T06:45:56Z</time>
      </trkpt>
      <trkpt lat="44.50814" lon="4.78888">
        <ele>154.710007</ele>
        <time>2016-08-29T06:46:12Z</time>
      </trkpt>
      <trkpt lat="44.50792" lon="4.7896">
        <ele>155.769608</ele>
        <time>2016-08-29T06:46:27Z</time>
      </trkpt>
      <trkpt lat="44.50776" lon="4.79036">
        <ele>157.170517</ele>
        <time>2016-08-29T06:46:42Z</time>
      </trkpt>
      <trkpt lat="44.50766" lon="4.79096">
        <ele>157.615005</ele>
        <time>2016-08-29T06:46:55Z</time>
      </trkpt>
      <trkpt lat="44.50759" lon="4.79143">
        <ele>157.983963</ele>
        <time>2016-08-29T06:47:07Z</time>
      </trkpt>
      <trkpt lat="44.5076" lon="4.79147">
        <ele>157.990967</ele>
        <time>2016-08-29T06:47:08Z</time>
      </trkpt>
      <trkpt lat="44.50761" lon="4.79153">
        <ele>157.991165</ele>
        <time>2016-08-29T06:47:09Z</time>
      </trkpt>
      <trkpt lat="44.50763" lon="4.79158">
        <ele>157.947296</ele>
        <time>2016-08-29T06:47:10Z</time>
      </trkpt>
      <trkpt lat="44.50767" lon="4.79161">
        <ele>157.869019</ele>
        <time>2016-08-29T06:47:11Z</time>
      </trkpt>
      <trkpt lat="44.50771" lon="4.79164">
        <ele>157.753967</ele>
        <time>2016-08-29T06:47:12Z</time>
      </trkpt>
      <trkpt lat="44.50775" lon="4.79166">
        <ele>157.629227</ele>
        <time>2016-08-29T06:47:13Z</time>
      </trkpt>
      <trkpt lat="44.50861" lon="4.79208">
        <ele>154.406494</ele>
        <time>2016-08-29T06:47:30Z</time>
      </trkpt>
      <trkpt lat="44.50882" lon="4.79211">
        <ele>153.854996</ele>
        <time>2016-08-29T06:47:34Z</time>
      </trkpt>
      <trkpt lat="44.50891" lon="4.79213">
        <ele>153.675003</ele>
        <time>2016-08-29T06:47:36Z</time>
      </trkpt>
      <trkpt lat="44.50894" lon="4.79217">
        <ele>153.672501</ele>
        <time>2016-08-29T06:47:37Z</time>
      </trkpt>
      <trkpt lat="44.50895" lon="4.79223">
        <ele>153.716248</ele>
        <time>2016-08-29T06:47:38Z</time>
      </trkpt>
      <trkpt lat="44.50896" lon="4.79229">
        <ele>153.797501</ele>
        <time>2016-08-29T06:47:39Z</time>
      </trkpt>
      <trkpt lat="44.50896" lon="4.79236">
        <ele>153.895004</ele>
        <time>2016-08-29T06:47:40Z</time>
      </trkpt>
      <trkpt lat="44.50897" lon="4.79249">
        <ele>154.087494</ele>
        <time>2016-08-29T06:47:42Z</time>
      </trkpt>
      <trkpt lat="44.50898" lon="4.79256">
        <ele>154.168747</ele>
        <time>2016-08-29T06:47:43Z</time>
      </trkpt>
      <trkpt lat="44.50903" lon="4.79288">
        <ele>154.11116</ele>
        <time>2016-08-29T06:47:48Z</time>
      </trkpt>
      <trkpt lat="44.50903" lon="4.79294">
        <ele>154.089035</ele>
        <time>2016-08-29T06:47:49Z</time>
      </trkpt>
      <trkpt lat="44.50903" lon="4.79301">
        <ele>154.072662</ele>
        <time>2016-08-29T06:47:50Z</time>
      </trkpt>
      <trkpt lat="44.50902" lon="4.79307">
        <ele>154.061035</ele>
        <time>2016-08-29T06:47:51Z</time>
      </trkpt>
      <trkpt lat="44.509" lon="4.79313">
        <ele>154.049179</ele>
        <time>2016-08-29T06:47:52Z</time>
      </trkpt>
      <trkpt lat="44.50899" lon="4.79318">
        <ele>154.034302</ele>
        <time>2016-08-29T06:47:53Z</time>
      </trkpt>
      <trkpt lat="44.50878" lon="4.79373">
        <ele>154</ele>
        <time>2016-08-29T06:48:04Z</time>
      </trkpt>
      <trkpt lat="44.50876" lon="4.79378">
        <ele>154</ele>
        <time>2016-08-29T06:48:05Z</time>
      </trkpt>
      <trkpt lat="44.5087" lon="4.79393">
        <ele>154.058807</ele>
        <time>2016-08-29T06:48:08Z</time>
      </trkpt>
      <trkpt lat="44.50869" lon="4.79399">
        <ele>154.138</ele>
        <time>2016-08-29T06:48:09Z</time>
      </trkpt>
      <trkpt lat="44.50869" lon="4.79405">
        <ele>154.225983</ele>
        <time>2016-08-29T06:48:10Z</time>
      </trkpt>
      <trkpt lat="44.5087" lon="4.79411">
        <ele>154.310257</ele>
        <time>2016-08-29T06:48:11Z</time>
      </trkpt>
      <trkpt lat="44.50871" lon="4.79417">
        <ele>154.369568</ele>
        <time>2016-08-29T06:48:12Z</time>
      </trkpt>
      <trkpt lat="44.50874" lon="4.79423">
        <ele>154.41069</ele>
        <time>2016-08-29T06:48:13Z</time>
      </trkpt>
      <trkpt lat="44.50877" lon="4.79428">
        <ele>154.415405</ele>
        <time>2016-08-29T06:48:14Z</time>
      </trkpt>
      <trkpt lat="44.50881" lon="4.79432">
        <ele>154.402893</ele>
        <time>2016-08-29T06:48:15Z</time>
      </trkpt>
      <trkpt lat="44.50884" lon="4.79436">
        <ele>154.377396</ele>
        <time>2016-08-29T06:48:16Z</time>
      </trkpt>
      <trkpt lat="44.50892" lon="4.79443">
        <ele>154.291122</ele>
        <time>2016-08-29T06:48:18Z</time>
      </trkpt>
      <trkpt lat="44.50914" lon="4.79471">
        <ele>154.401367</ele>
        <time>2016-08-29T06:48:25Z</time>
      </trkpt>
      <trkpt lat="44.50968" lon="4.79542">
        <ele>155</ele>
        <time>2016-08-29T06:48:43Z</time>
      </trkpt>
      <trkpt lat="44.51022" lon="4.79612">
        <ele>155</ele>
        <time>2016-08-29T06:49:01Z</time>
      </trkpt>
      <trkpt lat="44.51081" lon="4.7969">
        <ele>155</ele>
        <time>2016-08-29T06:49:21Z</time>
      </trkpt>
      <trkpt lat="44.51109" lon="4.79722">
        <ele>155</ele>
        <time>2016-08-29T06:49:30Z</time>
      </trkpt>
      <trkpt lat="44.51113" lon="4.79724">
        <ele>155</ele>
        <time>2016-08-29T06:49:31Z</time>
      </trkpt>
      <trkpt lat="44.51117" lon="4.79726">
        <ele>155</ele>
        <time>2016-08-29T06:49:32Z</time>
      </trkpt>
      <trkpt lat="44.51121" lon="4.79728">
        <ele>155</ele>
        <time>2016-08-29T06:49:33Z</time>
      </trkpt>
      <trkpt lat="44.51126" lon="4.79729">
        <ele>155</ele>
        <time>2016-08-29T06:49:34Z</time>
      </trkpt>
      <trkpt lat="44.51194" lon="4.79756">
        <ele>155.539993</ele>
        <time>2016-08-29T06:49:52Z</time>
      </trkpt>
      <trkpt lat="44.51268" lon="4.79783">
        <ele>157.363083</ele>
        <time>2016-08-29T06:50:13Z</time>
      </trkpt>
      <trkpt lat="44.5133" lon="4.79807">
        <ele>160.527863</ele>
        <time>2016-08-29T06:50:31Z</time>
      </trkpt>
      <trkpt lat="44.51373" lon="4.79819">
        <ele>163.127502</ele>
        <time>2016-08-29T07:02:16Z</time>
      </trkpt>
      <trkpt lat="44.51364" lon="4.79899">
        <ele>161.829742</ele>
        <time>2016-08-29T07:02:17Z</time>
      </trkpt>
      <trkpt lat="44.51366" lon="4.79904">
        <ele>161.929871</ele>
        <time>2016-08-29T07:02:18Z</time>
      </trkpt>
      <trkpt lat="44.5137" lon="4.79907">
        <ele>162.082794</ele>
        <time>2016-08-29T07:02:19Z</time>
      </trkpt>
      <trkpt lat="44.51374" lon="4.79908">
        <ele>162.259155</ele>
        <time>2016-08-29T07:02:20Z</time>
      </trkpt>
      <trkpt lat="44.51378" lon="4.7991">
        <ele>162.428284</ele>
        <time>2016-08-29T07:02:21Z</time>
      </trkpt>
      <trkpt lat="44.51382" lon="4.79911">
        <ele>162.601395</ele>
        <time>2016-08-29T07:02:22Z</time>
      </trkpt>
      <trkpt lat="44.51449" lon="4.79931">
        <ele>166.825928</ele>
        <time>2016-08-29T07:02:38Z</time>
      </trkpt>
      <trkpt lat="44.51495" lon="4.79943">
        <ele>169.537506</ele>
        <time>2016-08-29T07:02:50Z</time>
      </trkpt>
      <trkpt lat="44.51539" lon="4.79947">
        <ele>172.444992</ele>
        <time>2016-08-29T07:03:01Z</time>
      </trkpt>
      <trkpt lat="44.51596" lon="4.79949">
        <ele>176.846252</ele>
        <time>2016-08-29T07:03:16Z</time>
      </trkpt>
      <trkpt lat="44.51652" lon="4.79944">
        <ele>181.126251</ele>
        <time>2016-08-29T07:03:31Z</time>
      </trkpt>
      <trkpt lat="44.51683" lon="4.79943">
        <ele>183.213745</ele>
        <time>2016-08-29T07:03:40Z</time>
      </trkpt>
      <trkpt lat="44.51685" lon="4.79945">
        <ele>183.323746</ele>
        <time>2016-08-29T07:03:41Z</time>
      </trkpt>
      <trkpt lat="44.51687" lon="4.79949">
        <ele>183.392502</ele>
        <time>2016-08-29T07:03:42Z</time>
      </trkpt>
      <trkpt lat="44.51688" lon="4.79953">
        <ele>183.431244</ele>
        <time>2016-08-29T07:03:43Z</time>
      </trkpt>
      <trkpt lat="44.51689" lon="4.79958">
        <ele>183.451248</ele>
        <time>2016-08-29T07:03:44Z</time>
      </trkpt>
      <trkpt lat="44.51717" lon="4.80046">
        <ele>182.895004</ele>
        <time>2016-08-29T07:04:02Z</time>
      </trkpt>
      <trkpt lat="44.51733" lon="4.80097">
        <ele>182.703751</ele>
        <time>2016-08-29T07:04:13Z</time>
      </trkpt>
      <trkpt lat="44.51735" lon="4.80101">
        <ele>182.740005</ele>
        <time>2016-08-29T07:04:14Z</time>
      </trkpt>
      <trkpt lat="44.51738" lon="4.80104">
        <ele>182.828751</ele>
        <time>2016-08-29T07:04:15Z</time>
      </trkpt>
      <trkpt lat="44.51742" lon="4.80106">
        <ele>182.956253</ele>
        <time>2016-08-29T07:04:16Z</time>
      </trkpt>
      <trkpt lat="44.51745" lon="4.80106">
        <ele>183.117493</ele>
        <time>2016-08-29T07:04:17Z</time>
      </trkpt>
      <trkpt lat="44.51749" lon="4.80106">
        <ele>183.331802</ele>
        <time>2016-08-29T07:04:18Z</time>
      </trkpt>
      <trkpt lat="44.51753" lon="4.80105">
        <ele>183.569</ele>
        <time>2016-08-29T07:04:19Z</time>
      </trkpt>
      <trkpt lat="44.51805" lon="4.80097">
        <ele>187.4375</ele>
        <time>2016-08-29T07:04:34Z</time>
      </trkpt>
      <trkpt lat="44.5183" lon="4.80097">
        <ele>190.1875</ele>
        <time>2016-08-29T07:04:42Z</time>
      </trkpt>
      <trkpt lat="44.51835" lon="4.80093">
        <ele>190.725006</ele>
        <time>2016-08-29T07:04:44Z</time>
      </trkpt>
      <trkpt lat="44.51837" lon="4.80089">
        <ele>190.949997</ele>
        <time>2016-08-29T07:04:45Z</time>
      </trkpt>
      <trkpt lat="44.51839" lon="4.80084">
        <ele>191.15448</ele>
        <time>2016-08-29T07:04:46Z</time>
      </trkpt>
      <trkpt lat="44.5184" lon="4.80078">
        <ele>191.299576</ele>
        <time>2016-08-29T07:04:47Z</time>
      </trkpt>
      <trkpt lat="44.51841" lon="4.80073">
        <ele>191.405731</ele>
        <time>2016-08-29T07:04:48Z</time>
      </trkpt>
      <trkpt lat="44.51846" lon="4.80053">
        <ele>192.940002</ele>
        <time>2016-08-29T07:04:53Z</time>
      </trkpt>
      <trkpt lat="44.51849" lon="4.80052">
        <ele>193.479996</ele>
        <time>2016-08-29T07:04:54Z</time>
      </trkpt>
      <trkpt lat="44.51854" lon="4.8005">
        <ele>194.440002</ele>
        <time>2016-08-29T07:04:56Z</time>
      </trkpt>
      <trkpt lat="44.51883" lon="4.80061">
        <ele>197.120041</ele>
        <time>2016-08-29T07:05:06Z</time>
      </trkpt>
      <trkpt lat="44.51905" lon="4.80072">
        <ele>198.936005</ele>
        <time>2016-08-29T07:05:14Z</time>
      </trkpt>
      <trkpt lat="44.51942" lon="4.80081">
        <ele>202.600006</ele>
        <time>2016-08-29T07:05:25Z</time>
      </trkpt>
      <trkpt lat="44.5197" lon="4.80084">
        <ele>205.699997</ele>
        <time>2016-08-29T07:05:33Z</time>
      </trkpt>
      <trkpt lat="44.51976" lon="4.80084">
        <ele>206.309998</ele>
        <time>2016-08-29T07:05:35Z</time>
      </trkpt>
      <trkpt lat="44.5201" lon="4.80088">
        <ele>209.350006</ele>
        <time>2016-08-29T07:05:46Z</time>
      </trkpt>
      <trkpt lat="44.52048" lon="4.80092">
        <ele>212.81813</ele>
        <time>2016-08-29T07:05:57Z</time>
      </trkpt>
      <trkpt lat="44.5208" lon="4.80095">
        <ele>215.462509</ele>
        <time>2016-08-29T07:06:06Z</time>
      </trkpt>
      <trkpt lat="44.52122" lon="4.80097">
        <ele>218.983246</ele>
        <time>2016-08-29T07:06:17Z</time>
      </trkpt>
      <trkpt lat="44.52134" lon="4.80107">
        <ele>219.558136</ele>
        <time>2016-08-29T07:06:21Z</time>
      </trkpt>
      <trkpt lat="44.52149" lon="4.80124">
        <ele>220.913452</ele>
        <time>2016-08-29T07:06:27Z</time>
      </trkpt>
      <trkpt lat="44.5215" lon="4.80147">
        <ele>221.384018</ele>
        <time>2016-08-29T07:06:36Z</time>
      </trkpt>
      <trkpt lat="44.52124" lon="4.80181">
        <ele>220.382095</ele>
        <time>2016-08-29T07:06:47Z</time>
      </trkpt>
      <trkpt lat="44.5211" lon="4.802">
        <ele>220.704285</ele>
        <time>2016-08-29T07:06:52Z</time>
      </trkpt>
      <trkpt lat="44.52079" lon="4.80226">
        <ele>223.486801</ele>
        <time>2016-08-29T07:07:00Z</time>
      </trkpt>
      <trkpt lat="44.52051" lon="4.80244">
        <ele>224.684799</ele>
        <time>2016-08-29T07:07:09Z</time>
      </trkpt>
      <trkpt lat="44.52047" lon="4.80245">
        <ele>224.517426</ele>
        <time>2016-08-29T07:07:10Z</time>
      </trkpt>
      <trkpt lat="44.52043" lon="4.80247">
        <ele>224.416306</ele>
        <time>2016-08-29T07:07:11Z</time>
      </trkpt>
      <trkpt lat="44.52038" lon="4.8025">
        <ele>224.289627</ele>
        <time>2016-08-29T07:07:12Z</time>
      </trkpt>
      <trkpt lat="44.52035" lon="4.80253">
        <ele>224.255371</ele>
        <time>2016-08-29T07:07:13Z</time>
      </trkpt>
      <trkpt lat="44.52033" lon="4.80258">
        <ele>224.176544</ele>
        <time>2016-08-29T07:07:14Z</time>
      </trkpt>
      <trkpt lat="44.52032" lon="4.80264">
        <ele>223.804184</ele>
        <time>2016-08-29T07:07:15Z</time>
      </trkpt>
      <trkpt lat="44.52032" lon="4.80272">
        <ele>223.42244</ele>
        <time>2016-08-29T07:07:16Z</time>
      </trkpt>
      <trkpt lat="44.52034" lon="4.80279">
        <ele>223.233856</ele>
        <time>2016-08-29T07:07:17Z</time>
      </trkpt>
      <trkpt lat="44.52036" lon="4.80285">
        <ele>223.239532</ele>
        <time>2016-08-29T07:07:18Z</time>
      </trkpt>
      <trkpt lat="44.52038" lon="4.80291">
        <ele>223.275818</ele>
        <time>2016-08-29T07:07:19Z</time>
      </trkpt>
      <trkpt lat="44.5206" lon="4.80366">
        <ele>223.373993</ele>
        <time>2016-08-29T07:07:32Z</time>
      </trkpt>
      <trkpt lat="44.52083" lon="4.80405">
        <ele>226.041214</ele>
        <time>2016-08-29T07:07:42Z</time>
      </trkpt>
      <trkpt lat="44.52112" lon="4.8045">
        <ele>227.72226</ele>
        <time>2016-08-29T07:07:54Z</time>
      </trkpt>
      <trkpt lat="44.52147" lon="4.80521">
        <ele>231.311508</ele>
        <time>2016-08-29T07:08:09Z</time>
      </trkpt>
      <trkpt lat="44.52156" lon="4.80546">
        <ele>230.942245</ele>
        <time>2016-08-29T07:08:14Z</time>
      </trkpt>
      <trkpt lat="44.52159" lon="4.80552">
        <ele>230.811996</ele>
        <time>2016-08-29T07:08:15Z</time>
      </trkpt>
      <trkpt lat="44.52161" lon="4.80556">
        <ele>230.797592</ele>
        <time>2016-08-29T07:08:16Z</time>
      </trkpt>
      <trkpt lat="44.52173" lon="4.80572">
        <ele>230.863007</ele>
        <time>2016-08-29T07:08:20Z</time>
      </trkpt>
      <trkpt lat="44.52177" lon="4.80575">
        <ele>231.102219</ele>
        <time>2016-08-29T07:08:21Z</time>
      </trkpt>
      <trkpt lat="44.52186" lon="4.80579">
        <ele>231.730453</ele>
        <time>2016-08-29T07:08:23Z</time>
      </trkpt>
      <trkpt lat="44.52191" lon="4.8058">
        <ele>231.937622</ele>
        <time>2016-08-29T07:08:24Z</time>
      </trkpt>
      <trkpt lat="44.52196" lon="4.8058">
        <ele>232.247269</ele>
        <time>2016-08-29T07:08:25Z</time>
      </trkpt>
      <trkpt lat="44.52256" lon="4.80594">
        <ele>235.359375</ele>
        <time>2016-08-29T07:08:37Z</time>
      </trkpt>
      <trkpt lat="44.52261" lon="4.80594">
        <ele>235.979553</ele>
        <time>2016-08-29T07:08:38Z</time>
      </trkpt>
      <trkpt lat="44.52265" lon="4.80594">
        <ele>236.484604</ele>
        <time>2016-08-29T07:08:39Z</time>
      </trkpt>
      <trkpt lat="44.52269" lon="4.80596">
        <ele>236.834</ele>
        <time>2016-08-29T07:08:40Z</time>
      </trkpt>
      <trkpt lat="44.52272" lon="4.80599">
        <ele>237.134521</ele>
        <time>2016-08-29T07:08:41Z</time>
      </trkpt>
      <trkpt lat="44.52273" lon="4.80602">
        <ele>237.304596</ele>
        <time>2016-08-29T07:08:42Z</time>
      </trkpt>
      <trkpt lat="44.52274" lon="4.80607">
        <ele>237.282455</ele>
        <time>2016-08-29T07:08:43Z</time>
      </trkpt>
      <trkpt lat="44.52262" lon="4.80655">
        <ele>232.185104</ele>
        <time>2016-08-29T07:08:54Z</time>
      </trkpt>
      <trkpt lat="44.52262" lon="4.80672">
        <ele>231.441238</ele>
        <time>2016-08-29T07:08:59Z</time>
      </trkpt>
      <trkpt lat="44.52263" lon="4.80675">
        <ele>231.591934</ele>
        <time>2016-08-29T07:09:00Z</time>
      </trkpt>
      <trkpt lat="44.52264" lon="4.80679">
        <ele>231.82489</ele>
        <time>2016-08-29T07:09:01Z</time>
      </trkpt>
      <trkpt lat="44.52274" lon="4.80702">
        <ele>233.581192</ele>
        <time>2016-08-29T07:09:07Z</time>
      </trkpt>
      <trkpt lat="44.52276" lon="4.80717">
        <ele>234.665955</ele>
        <time>2016-08-29T07:09:11Z</time>
      </trkpt>
      <trkpt lat="44.52278" lon="4.8072">
        <ele>235.432175</ele>
        <time>2016-08-29T07:09:12Z</time>
      </trkpt>
      <trkpt lat="44.52282" lon="4.80726">
        <ele>236.979874</ele>
        <time>2016-08-29T07:09:15Z</time>
      </trkpt>
      <trkpt lat="44.52282" lon="4.80728">
        <ele>237.053757</ele>
        <time>2016-08-29T07:09:16Z</time>
      </trkpt>
      <trkpt lat="44.52281" lon="4.80729">
        <ele>236.841568</ele>
        <time>2016-08-29T07:09:17Z</time>
      </trkpt>
      <trkpt lat="44.52279" lon="4.8073">
        <ele>236.435059</ele>
        <time>2016-08-29T07:09:18Z</time>
      </trkpt>
      <trkpt lat="44.52278" lon="4.80731">
        <ele>235.931107</ele>
        <time>2016-08-29T07:09:19Z</time>
      </trkpt>
      <trkpt lat="44.52276" lon="4.80732">
        <ele>235.477554</ele>
        <time>2016-08-29T07:09:20Z</time>
      </trkpt>
      <trkpt lat="44.52274" lon="4.80733">
        <ele>235.012772</ele>
        <time>2016-08-29T07:09:21Z</time>
      </trkpt>
      <trkpt lat="44.52272" lon="4.80733">
        <ele>234.511246</ele>
        <time>2016-08-29T07:09:22Z</time>
      </trkpt>
      <trkpt lat="44.5227" lon="4.80732">
        <ele>233.860931</ele>
        <time>2016-08-29T07:09:23Z</time>
      </trkpt>
      <trkpt lat="44.52267" lon="4.80731">
        <ele>232.987228</ele>
        <time>2016-08-29T07:09:24Z</time>
      </trkpt>
      <trkpt lat="44.52263" lon="4.80731">
        <ele>231.963898</ele>
        <time>2016-08-29T07:09:25Z</time>
      </trkpt>
      <trkpt lat="44.52259" lon="4.8073">
        <ele>230.904907</ele>
        <time>2016-08-29T07:09:26Z</time>
      </trkpt>
      <trkpt lat="44.52255" lon="4.80729">
        <ele>229.723984</ele>
        <time>2016-08-29T07:09:27Z</time>
      </trkpt>
      <trkpt lat="44.52251" lon="4.80727">
        <ele>228.523453</ele>
        <time>2016-08-29T07:09:28Z</time>
      </trkpt>
      <trkpt lat="44.52247" lon="4.80725">
        <ele>227.393387</ele>
        <time>2016-08-29T07:09:29Z</time>
      </trkpt>
      <trkpt lat="44.52238" lon="4.80721">
        <ele>224.572235</ele>
        <time>2016-08-29T07:09:32Z</time>
      </trkpt>
      <trkpt lat="44.52227" lon="4.80711">
        <ele>220.374893</ele>
        <time>2016-08-29T07:09:36Z</time>
      </trkpt>
      <trkpt lat="44.5221" lon="4.80698">
        <ele>216.217087</ele>
        <time>2016-08-29T07:09:41Z</time>
      </trkpt>
      <trkpt lat="44.52195" lon="4.80693">
        <ele>213.497849</ele>
        <time>2016-08-29T07:09:45Z</time>
      </trkpt>
      <trkpt lat="44.52188" lon="4.80696">
        <ele>211.719925</ele>
        <time>2016-08-29T07:09:47Z</time>
      </trkpt>
      <trkpt lat="44.52183" lon="4.80698">
        <ele>210.557922</ele>
        <time>2016-08-29T07:09:48Z</time>
      </trkpt>
      <trkpt lat="44.52175" lon="4.80703">
        <ele>208.824738</ele>
        <time>2016-08-29T07:09:50Z</time>
      </trkpt>
      <trkpt lat="44.5217" lon="4.80705">
        <ele>208.350006</ele>
        <time>2016-08-29T07:09:51Z</time>
      </trkpt>
      <trkpt lat="44.52141" lon="4.80717">
        <ele>205.822495</ele>
        <time>2016-08-29T07:09:57Z</time>
      </trkpt>
      <trkpt lat="44.52106" lon="4.80732">
        <ele>203.550674</ele>
        <time>2016-08-29T07:10:06Z</time>
      </trkpt>
      <trkpt lat="44.521" lon="4.80734">
        <ele>202.981674</ele>
        <time>2016-08-29T07:10:08Z</time>
      </trkpt>
      <trkpt lat="44.52092" lon="4.80738">
        <ele>202.275299</ele>
        <time>2016-08-29T07:10:11Z</time>
      </trkpt>
      <trkpt lat="44.52082" lon="4.80746">
        <ele>200.953049</ele>
        <time>2016-08-29T07:10:15Z</time>
      </trkpt>
      <trkpt lat="44.5208" lon="4.80746">
        <ele>200.628128</ele>
        <time>2016-08-29T07:10:16Z</time>
      </trkpt>
      <trkpt lat="44.52077" lon="4.80747">
        <ele>200.202423</ele>
        <time>2016-08-29T07:10:17Z</time>
      </trkpt>
      <trkpt lat="44.52074" lon="4.80748">
        <ele>199.726669</ele>
        <time>2016-08-29T07:10:18Z</time>
      </trkpt>
      <trkpt lat="44.52072" lon="4.8075">
        <ele>199.234894</ele>
        <time>2016-08-29T07:10:19Z</time>
      </trkpt>
      <trkpt lat="44.52069" lon="4.80751">
        <ele>198.741058</ele>
        <time>2016-08-29T07:10:20Z</time>
      </trkpt>
      <trkpt lat="44.52066" lon="4.80752">
        <ele>198.23143</ele>
        <time>2016-08-29T07:10:21Z</time>
      </trkpt>
      <trkpt lat="44.52064" lon="4.80753">
        <ele>197.685699</ele>
        <time>2016-08-29T07:10:22Z</time>
      </trkpt>
      <trkpt lat="44.52061" lon="4.80754">
        <ele>197.124283</ele>
        <time>2016-08-29T07:10:23Z</time>
      </trkpt>
      <trkpt lat="44.52057" lon="4.80754">
        <ele>196.403183</ele>
        <time>2016-08-29T07:10:24Z</time>
      </trkpt>
      <trkpt lat="44.52053" lon="4.80753">
        <ele>195.49437</ele>
        <time>2016-08-29T07:10:25Z</time>
      </trkpt>
      <trkpt lat="44.52048" lon="4.80752">
        <ele>194.622955</ele>
        <time>2016-08-29T07:10:26Z</time>
      </trkpt>
      <trkpt lat="44.52045" lon="4.80749">
        <ele>194.157867</ele>
        <time>2016-08-29T07:10:27Z</time>
      </trkpt>
      <trkpt lat="44.52041" lon="4.80748">
        <ele>193.773499</ele>
        <time>2016-08-29T07:10:28Z</time>
      </trkpt>
      <trkpt lat="44.52038" lon="4.80748">
        <ele>193.319977</ele>
        <time>2016-08-29T07:10:29Z</time>
      </trkpt>
      <trkpt lat="44.52034" lon="4.80748">
        <ele>192.826996</ele>
        <time>2016-08-29T07:10:30Z</time>
      </trkpt>
      <trkpt lat="44.52029" lon="4.80749">
        <ele>192.137909</ele>
        <time>2016-08-29T07:10:31Z</time>
      </trkpt>
      <trkpt lat="44.52025" lon="4.80753">
        <ele>191.323288</ele>
        <time>2016-08-29T07:10:32Z</time>
      </trkpt>
      <trkpt lat="44.5202" lon="4.80757">
        <ele>190.484406</ele>
        <time>2016-08-29T07:10:33Z</time>
      </trkpt>
      <trkpt lat="44.52015" lon="4.8076">
        <ele>189.681015</ele>
        <time>2016-08-29T07:10:34Z</time>
      </trkpt>
      <trkpt lat="44.52004" lon="4.80767">
        <ele>187.713806</ele>
        <time>2016-08-29T07:10:36Z</time>
      </trkpt>
      <trkpt lat="44.51979" lon="4.80791">
        <ele>184.628357</ele>
        <time>2016-08-29T07:10:40Z</time>
      </trkpt>
      <trkpt lat="44.51971" lon="4.80804">
        <ele>183.123123</ele>
        <time>2016-08-29T07:10:42Z</time>
      </trkpt>
      <trkpt lat="44.51967" lon="4.80811">
        <ele>182.414993</ele>
        <time>2016-08-29T07:10:43Z</time>
      </trkpt>
      <trkpt lat="44.51965" lon="4.80821">
        <ele>181.537567</ele>
        <time>2016-08-29T07:10:44Z</time>
      </trkpt>
      <trkpt lat="44.51959" lon="4.8085">
        <ele>179.227722</ele>
        <time>2016-08-29T07:10:47Z</time>
      </trkpt>
      <trkpt lat="44.51955" lon="4.80858">
        <ele>178.534607</ele>
        <time>2016-08-29T07:10:48Z</time>
      </trkpt>
      <trkpt lat="44.5195" lon="4.80865">
        <ele>177.916214</ele>
        <time>2016-08-29T07:10:49Z</time>
      </trkpt>
      <trkpt lat="44.51944" lon="4.80871">
        <ele>177.371002</ele>
        <time>2016-08-29T07:10:50Z</time>
      </trkpt>
      <trkpt lat="44.51938" lon="4.80878">
        <ele>176.832291</ele>
        <time>2016-08-29T07:10:51Z</time>
      </trkpt>
      <trkpt lat="44.51932" lon="4.80884">
        <ele>176.272629</ele>
        <time>2016-08-29T07:10:52Z</time>
      </trkpt>
      <trkpt lat="44.51882" lon="4.8093">
        <ele>171.022507</ele>
        <time>2016-08-29T07:10:59Z</time>
      </trkpt>
      <trkpt lat="44.51859" lon="4.80949">
        <ele>168.569305</ele>
        <time>2016-08-29T07:11:02Z</time>
      </trkpt>
      <trkpt lat="44.51832" lon="4.80967">
        <ele>167.079788</ele>
        <time>2016-08-29T07:11:05Z</time>
      </trkpt>
      <trkpt lat="44.51781" lon="4.81005">
        <ele>163.478882</ele>
        <time>2016-08-29T07:11:11Z</time>
      </trkpt>
      <trkpt lat="44.51743" lon="4.81039">
        <ele>160.455002</ele>
        <time>2016-08-29T07:11:16Z</time>
      </trkpt>
      <trkpt lat="44.5171" lon="4.81066">
        <ele>158.467499</ele>
        <time>2016-08-29T07:11:20Z</time>
      </trkpt>
      <trkpt lat="44.51681" lon="4.8109">
        <ele>157.005005</ele>
        <time>2016-08-29T07:11:24Z</time>
      </trkpt>
      <trkpt lat="44.51668" lon="4.81103">
        <ele>156.307495</ele>
        <time>2016-08-29T07:11:26Z</time>
      </trkpt>
      <trkpt lat="44.51617" lon="4.81151">
        <ele>155</ele>
        <time>2016-08-29T07:11:34Z</time>
      </trkpt>
      <trkpt lat="44.51613" lon="4.81159">
        <ele>155</ele>
        <time>2016-08-29T07:11:35Z</time>
      </trkpt>
      <trkpt lat="44.51611" lon="4.81168">
        <ele>155</ele>
        <time>2016-08-29T07:11:36Z</time>
      </trkpt>
      <trkpt lat="44.51611" lon="4.81177">
        <ele>155</ele>
        <time>2016-08-29T07:11:37Z</time>
      </trkpt>
      <trkpt lat="44.51612" lon="4.81187">
        <ele>155</ele>
        <time>2016-08-29T07:11:38Z</time>
      </trkpt>
      <trkpt lat="44.51613" lon="4.81196">
        <ele>155</ele>
        <time>2016-08-29T07:11:39Z</time>
      </trkpt>
      <trkpt lat="44.51615" lon="4.81205">
        <ele>155</ele>
        <time>2016-08-29T07:11:40Z</time>
      </trkpt>
      <trkpt lat="44.51623" lon="4.81246">
        <ele>155.007797</ele>
        <time>2016-08-29T07:11:45Z</time>
      </trkpt>
      <trkpt lat="44.51623" lon="4.81254">
        <ele>155.054291</ele>
        <time>2016-08-29T07:11:46Z</time>
      </trkpt>
      <trkpt lat="44.51623" lon="4.8127">
        <ele>155.149384</ele>
        <time>2016-08-29T07:11:48Z</time>
      </trkpt>
      <trkpt lat="44.51605" lon="4.81361">
        <ele>157.324036</ele>
        <time>2016-08-29T07:12:01Z</time>
      </trkpt>
      <trkpt lat="44.51574" lon="4.81469">
        <ele>159.335007</ele>
        <time>2016-08-29T07:12:18Z</time>
      </trkpt>
      <trkpt lat="44.51555" lon="4.81527">
        <ele>160.104996</ele>
        <time>2016-08-29T07:12:27Z</time>
      </trkpt>
      <trkpt lat="44.51551" lon="4.81532">
        <ele>160.270004</ele>
        <time>2016-08-29T07:12:28Z</time>
      </trkpt>
      <trkpt lat="44.51547" lon="4.81536">
        <ele>160.460007</ele>
        <time>2016-08-29T07:12:29Z</time>
      </trkpt>
      <trkpt lat="44.51542" lon="4.81539">
        <ele>160.660004</ele>
        <time>2016-08-29T07:12:30Z</time>
      </trkpt>
      <trkpt lat="44.51538" lon="4.81541">
        <ele>160.875</ele>
        <time>2016-08-29T07:12:31Z</time>
      </trkpt>
      <trkpt lat="44.51533" lon="4.81543">
        <ele>161.085007</ele>
        <time>2016-08-29T07:12:32Z</time>
      </trkpt>
      <trkpt lat="44.51523" lon="4.81547">
        <ele>161.5</ele>
        <time>2016-08-29T07:12:34Z</time>
      </trkpt>
      <trkpt lat="44.51519" lon="4.81551">
        <ele>161.690002</ele>
        <time>2016-08-29T07:12:35Z</time>
      </trkpt>
      <trkpt lat="44.51515" lon="4.81555">
        <ele>161.858917</ele>
        <time>2016-08-29T07:12:36Z</time>
      </trkpt>
      <trkpt lat="44.51512" lon="4.81559">
        <ele>161.969604</ele>
        <time>2016-08-29T07:12:37Z</time>
      </trkpt>
      <trkpt lat="44.51509" lon="4.81564">
        <ele>162.028992</ele>
        <time>2016-08-29T07:12:38Z</time>
      </trkpt>
      <trkpt lat="44.51507" lon="4.8157">
        <ele>162.060852</ele>
        <time>2016-08-29T07:12:39Z</time>
      </trkpt>
      <trkpt lat="44.51504" lon="4.81576">
        <ele>162.090652</ele>
        <time>2016-08-29T07:12:40Z</time>
      </trkpt>
      <trkpt lat="44.51501" lon="4.81581">
        <ele>162.13916</ele>
        <time>2016-08-29T07:12:41Z</time>
      </trkpt>
      <trkpt lat="44.51498" lon="4.81585">
        <ele>162.203751</ele>
        <time>2016-08-29T07:12:42Z</time>
      </trkpt>
      <trkpt lat="44.51494" lon="4.81589">
        <ele>162.282715</ele>
        <time>2016-08-29T07:12:43Z</time>
      </trkpt>
      <trkpt lat="44.51489" lon="4.81591">
        <ele>162.373047</ele>
        <time>2016-08-29T07:12:44Z</time>
      </trkpt>
      <trkpt lat="44.51485" lon="4.81593">
        <ele>162.568405</ele>
        <time>2016-08-29T07:12:45Z</time>
      </trkpt>
      <trkpt lat="44.51481" lon="4.81594">
        <ele>162.795959</ele>
        <time>2016-08-29T07:12:46Z</time>
      </trkpt>
      <trkpt lat="44.51477" lon="4.81594">
        <ele>163.046738</ele>
        <time>2016-08-29T07:12:47Z</time>
      </trkpt>
      <trkpt lat="44.51472" lon="4.81594">
        <ele>163.311691</ele>
        <time>2016-08-29T07:12:48Z</time>
      </trkpt>
      <trkpt lat="44.51409" lon="4.81594">
        <ele>167.049149</ele>
        <time>2016-08-29T07:13:02Z</time>
      </trkpt>
      <trkpt lat="44.51362" lon="4.81597">
        <ele>170.237503</ele>
        <time>2016-08-29T07:13:15Z</time>
      </trkpt>
      <trkpt lat="44.5136" lon="4.816">
        <ele>170.37001</ele>
        <time>2016-08-29T07:13:16Z</time>
      </trkpt>
      <trkpt lat="44.5136" lon="4.81604">
        <ele>170.455002</ele>
        <time>2016-08-29T07:13:17Z</time>
      </trkpt>
      <trkpt lat="44.51361" lon="4.8161">
        <ele>170.502502</ele>
        <time>2016-08-29T07:13:18Z</time>
      </trkpt>
      <trkpt lat="44.51362" lon="4.81616">
        <ele>170.512497</ele>
        <time>2016-08-29T07:13:19Z</time>
      </trkpt>
      <trkpt lat="44.51363" lon="4.81622">
        <ele>170.487503</ele>
        <time>2016-08-29T07:13:20Z</time>
      </trkpt>
      <trkpt lat="44.51404" lon="4.81738">
        <ele>169.410583</ele>
        <time>2016-08-29T07:13:39Z</time>
      </trkpt>
      <trkpt lat="44.51408" lon="4.81749">
        <ele>169.376938</ele>
        <time>2016-08-29T07:13:41Z</time>
      </trkpt>
      <trkpt lat="44.51409" lon="4.81755">
        <ele>169.415237</ele>
        <time>2016-08-29T07:13:42Z</time>
      </trkpt>
      <trkpt lat="44.5141" lon="4.81761">
        <ele>169.493744</ele>
        <time>2016-08-29T07:13:43Z</time>
      </trkpt>
      <trkpt lat="44.51409" lon="4.81767">
        <ele>169.630692</ele>
        <time>2016-08-29T07:13:44Z</time>
      </trkpt>
      <trkpt lat="44.51407" lon="4.81771">
        <ele>169.819626</ele>
        <time>2016-08-29T07:13:45Z</time>
      </trkpt>
      <trkpt lat="44.51403" lon="4.81773">
        <ele>170.103989</ele>
        <time>2016-08-29T07:13:46Z</time>
      </trkpt>
      <trkpt lat="44.51397" lon="4.81773">
        <ele>170.408829</ele>
        <time>2016-08-29T07:13:47Z</time>
      </trkpt>
      <trkpt lat="44.51393" lon="4.81771">
        <ele>170.650024</ele>
        <time>2016-08-29T07:13:48Z</time>
      </trkpt>
      <trkpt lat="44.51389" lon="4.81768">
        <ele>170.964935</ele>
        <time>2016-08-29T07:13:49Z</time>
      </trkpt>
      <trkpt lat="44.51384" lon="4.81765">
        <ele>171.278519</ele>
        <time>2016-08-29T07:13:50Z</time>
      </trkpt>
      <trkpt lat="44.5138" lon="4.81761">
        <ele>171.570587</ele>
        <time>2016-08-29T07:13:51Z</time>
      </trkpt>
      <trkpt lat="44.51339" lon="4.81727">
        <ele>174.497498</ele>
        <time>2016-08-29T07:14:02Z</time>
      </trkpt>
      <trkpt lat="44.51336" lon="4.81723">
        <ele>174.589996</ele>
        <time>2016-08-29T07:14:03Z</time>
      </trkpt>
      <trkpt lat="44.51315" lon="4.81691">
        <ele>175.035004</ele>
        <time>2016-08-29T07:14:11Z</time>
      </trkpt>
      <trkpt lat="44.51287" lon="4.81587">
        <ele>174.309082</ele>
        <time>2016-08-29T07:14:29Z</time>
      </trkpt>
      <trkpt lat="44.51281" lon="4.81569">
        <ele>174.12468</ele>
        <time>2016-08-29T07:14:32Z</time>
      </trkpt>
      <trkpt lat="44.51278" lon="4.81563">
        <ele>174.099945</ele>
        <time>2016-08-29T07:14:33Z</time>
      </trkpt>
      <trkpt lat="44.51275" lon="4.81558">
        <ele>174.092453</ele>
        <time>2016-08-29T07:14:34Z</time>
      </trkpt>
      <trkpt lat="44.51271" lon="4.81552">
        <ele>174.084915</ele>
        <time>2016-08-29T07:14:35Z</time>
      </trkpt>
      <trkpt lat="44.51267" lon="4.81547">
        <ele>174.057846</ele>
        <time>2016-08-29T07:14:36Z</time>
      </trkpt>
      <trkpt lat="44.51263" lon="4.81542">
        <ele>174.049103</ele>
        <time>2016-08-29T07:14:37Z</time>
      </trkpt>
      <trkpt lat="44.5123" lon="4.81516">
        <ele>174.423538</ele>
        <time>2016-08-29T07:14:44Z</time>
      </trkpt>
      <trkpt lat="44.51185" lon="4.81496">
        <ele>174.474777</ele>
        <time>2016-08-29T07:14:54Z</time>
      </trkpt>
      <trkpt lat="44.51125" lon="4.81466">
        <ele>175.127548</ele>
        <time>2016-08-29T07:15:09Z</time>
      </trkpt>
      <trkpt lat="44.51081" lon="4.81445">
        <ele>177.564621</ele>
        <time>2016-08-29T07:15:23Z</time>
      </trkpt>
      <trkpt lat="44.51057" lon="4.81424">
        <ele>179.139252</ele>
        <time>2016-08-29T07:15:33Z</time>
      </trkpt>
      <trkpt lat="44.51036" lon="4.81373">
        <ele>178.398056</ele>
        <time>2016-08-29T07:15:46Z</time>
      </trkpt>
      <trkpt lat="44.51007" lon="4.81311">
        <ele>178.44136</ele>
        <time>2016-08-29T07:16:00Z</time>
      </trkpt>
      <trkpt lat="44.50983" lon="4.81281">
        <ele>180.121445</ele>
        <time>2016-08-29T07:16:11Z</time>
      </trkpt>
      <trkpt lat="44.50967" lon="4.81282">
        <ele>181.905716</ele>
        <time>2016-08-29T07:16:18Z</time>
      </trkpt>
      <trkpt lat="44.50965" lon="4.8128">
        <ele>182.066467</ele>
        <time>2016-08-29T07:16:19Z</time>
      </trkpt>
      <trkpt lat="44.50962" lon="4.81278">
        <ele>182.320404</ele>
        <time>2016-08-29T07:16:20Z</time>
      </trkpt>
      <trkpt lat="44.50958" lon="4.81275">
        <ele>182.575455</ele>
        <time>2016-08-29T07:16:21Z</time>
      </trkpt>
      <trkpt lat="44.50955" lon="4.81273">
        <ele>182.923599</ele>
        <time>2016-08-29T07:16:22Z</time>
      </trkpt>
      <trkpt lat="44.50924" lon="4.81247">
        <ele>185.569656</ele>
        <time>2016-08-29T07:16:34Z</time>
      </trkpt>
      <trkpt lat="44.50917" lon="4.81247">
        <ele>186.439056</ele>
        <time>2016-08-29T07:16:51Z</time>
      </trkpt>
      <trkpt lat="44.50916" lon="4.81246">
        <ele>186.507004</ele>
        <time>2016-08-29T07:16:56Z</time>
      </trkpt>
      <trkpt lat="44.50892" lon="4.81234">
        <ele>190.367279</ele>
        <time>2016-08-29T07:17:06Z</time>
      </trkpt>
      <trkpt lat="44.50879" lon="4.81219">
        <ele>190.965622</ele>
        <time>2016-08-29T07:17:12Z</time>
      </trkpt>
      <trkpt lat="44.50869" lon="4.81216">
        <ele>192.430893</ele>
        <time>2016-08-29T07:17:16Z</time>
      </trkpt>
      <trkpt lat="44.50862" lon="4.81218">
        <ele>194.582245</ele>
        <time>2016-08-29T07:17:19Z</time>
      </trkpt>
      <trkpt lat="44.5086" lon="4.81222">
        <ele>195.76857</ele>
        <time>2016-08-29T07:17:21Z</time>
      </trkpt>
      <trkpt lat="44.50858" lon="4.81229">
        <ele>197.697586</ele>
        <time>2016-08-29T07:17:24Z</time>
      </trkpt>
      <trkpt lat="44.50846" lon="4.81231">
        <ele>201.53894</ele>
        <time>2016-08-29T07:17:29Z</time>
      </trkpt>
      <trkpt lat="44.50839" lon="4.8123">
        <ele>203.235336</ele>
        <time>2016-08-29T07:17:32Z</time>
      </trkpt>
      <trkpt lat="44.50833" lon="4.81228">
        <ele>204.656906</ele>
        <time>2016-08-29T07:17:35Z</time>
      </trkpt>
      <trkpt lat="44.50821" lon="4.81225">
        <ele>207.334702</ele>
        <time>2016-08-29T07:17:40Z</time>
      </trkpt>
      <trkpt lat="44.508" lon="4.81206">
        <ele>208.014557</ele>
        <time>2016-08-29T07:17:50Z</time>
      </trkpt>
      <trkpt lat="44.50765" lon="4.81186">
        <ele>208.205307</ele>
        <time>2016-08-29T07:18:02Z</time>
      </trkpt>
      <trkpt lat="44.50735" lon="4.81178">
        <ele>208.833847</ele>
        <time>2016-08-29T07:18:13Z</time>
      </trkpt>
      <trkpt lat="44.50722" lon="4.81179">
        <ele>208.042999</ele>
        <time>2016-08-29T07:18:23Z</time>
      </trkpt>
      <trkpt lat="44.50721" lon="4.81182">
        <ele>208.677582</ele>
        <time>2016-08-29T07:18:44Z</time>
      </trkpt>
      <trkpt lat="44.50721" lon="4.81183">
        <ele>208.834778</ele>
        <time>2016-08-29T07:19:05Z</time>
      </trkpt>
      <trkpt lat="44.50718" lon="4.81184">
        <ele>208.672043</ele>
        <time>2016-08-29T07:19:15Z</time>
      </trkpt>
      <trkpt lat="44.50699" lon="4.81173">
        <ele>204.686798</ele>
        <time>2016-08-29T07:19:24Z</time>
      </trkpt>
      <trkpt lat="44.50694" lon="4.81173">
        <ele>204.126968</ele>
        <time>2016-08-29T07:19:26Z</time>
      </trkpt>
      <trkpt lat="44.5068" lon="4.81173">
        <ele>203.167801</ele>
        <time>2016-08-29T07:19:30Z</time>
      </trkpt>
      <trkpt lat="44.50669" lon="4.81166">
        <ele>201.806778</ele>
        <time>2016-08-29T07:19:35Z</time>
      </trkpt>
      <trkpt lat="44.50663" lon="4.81166">
        <ele>201.572845</ele>
        <time>2016-08-29T07:19:38Z</time>
      </trkpt>
      <trkpt lat="44.50658" lon="4.81175">
        <ele>202.164047</ele>
        <time>2016-08-29T07:19:42Z</time>
      </trkpt>
      <trkpt lat="44.50661" lon="4.81201">
        <ele>204.976288</ele>
        <time>2016-08-29T07:19:49Z</time>
      </trkpt>
      <trkpt lat="44.50662" lon="4.81223">
        <ele>206.8125</ele>
        <time>2016-08-29T07:19:54Z</time>
      </trkpt>
      <trkpt lat="44.50673" lon="4.81254">
        <ele>210.637497</ele>
        <time>2016-08-29T07:20:01Z</time>
      </trkpt>
      <trkpt lat="44.50674" lon="4.81312">
        <ele>211.944748</ele>
        <time>2016-08-29T07:20:13Z</time>
      </trkpt>
      <trkpt lat="44.50657" lon="4.8134">
        <ele>212.822906</ele>
        <time>2016-08-29T07:20:20Z</time>
      </trkpt>
      <trkpt lat="44.50651" lon="4.81344">
        <ele>213.182556</ele>
        <time>2016-08-29T07:20:22Z</time>
      </trkpt>
      <trkpt lat="44.50642" lon="4.81358">
        <ele>214.353439</ele>
        <time>2016-08-29T07:20:31Z</time>
      </trkpt>
      <trkpt lat="44.50633" lon="4.81354">
        <ele>214.182419</ele>
        <time>2016-08-29T07:20:34Z</time>
      </trkpt>
      <trkpt lat="44.50577" lon="4.81301">
        <ele>212.412003</ele>
        <time>2016-08-29T07:20:48Z</time>
      </trkpt>
      <trkpt lat="44.50553" lon="4.81273">
        <ele>212.294022</ele>
        <time>2016-08-29T07:20:54Z</time>
      </trkpt>
      <trkpt lat="44.5055" lon="4.81267">
        <ele>212.371582</ele>
        <time>2016-08-29T07:20:55Z</time>
      </trkpt>
      <trkpt lat="44.50547" lon="4.8126">
        <ele>212.482498</ele>
        <time>2016-08-29T07:20:56Z</time>
      </trkpt>
      <trkpt lat="44.50541" lon="4.81238">
        <ele>212.552505</ele>
        <time>2016-08-29T07:20:59Z</time>
      </trkpt>
      <trkpt lat="44.5054" lon="4.81231">
        <ele>212.457504</ele>
        <time>2016-08-29T07:21:00Z</time>
      </trkpt>
      <trkpt lat="44.50519" lon="4.8108">
        <ele>211.871094</ele>
        <time>2016-08-29T07:21:18Z</time>
      </trkpt>
      <trkpt lat="44.5048" lon="4.80983">
        <ele>212.478745</ele>
        <time>2016-08-29T07:21:32Z</time>
      </trkpt>
      <trkpt lat="44.50466" lon="4.8095">
        <ele>211.792877</ele>
        <time>2016-08-29T07:21:37Z</time>
      </trkpt>
      <trkpt lat="44.50424" lon="4.80874">
        <ele>215.003754</ele>
        <time>2016-08-29T07:21:50Z</time>
      </trkpt>
      <trkpt lat="44.5041" lon="4.80841">
        <ele>216.40625</ele>
        <time>2016-08-29T07:21:56Z</time>
      </trkpt>
      <trkpt lat="44.50387" lon="4.80785">
        <ele>218.310318</ele>
        <time>2016-08-29T07:22:06Z</time>
      </trkpt>
      <trkpt lat="44.50379" lon="4.80768">
        <ele>218.507248</ele>
        <time>2016-08-29T07:22:09Z</time>
      </trkpt>
      <trkpt lat="44.50377" lon="4.80761">
        <ele>218.287506</ele>
        <time>2016-08-29T07:22:10Z</time>
      </trkpt>
      <trkpt lat="44.50372" lon="4.80741">
        <ele>217.553131</ele>
        <time>2016-08-29T07:22:13Z</time>
      </trkpt>
      <trkpt lat="44.50371" lon="4.80734">
        <ele>217.464661</ele>
        <time>2016-08-29T07:22:14Z</time>
      </trkpt>
      <trkpt lat="44.50371" lon="4.80727">
        <ele>217.336624</ele>
        <time>2016-08-29T07:22:15Z</time>
      </trkpt>
      <trkpt lat="44.50372" lon="4.80711">
        <ele>216.897858</ele>
        <time>2016-08-29T07:22:17Z</time>
      </trkpt>
      <trkpt lat="44.50376" lon="4.80694">
        <ele>216.134277</ele>
        <time>2016-08-29T07:22:19Z</time>
      </trkpt>
      <trkpt lat="44.50376" lon="4.80686">
        <ele>215.874451</ele>
        <time>2016-08-29T07:22:20Z</time>
      </trkpt>
      <trkpt lat="44.50374" lon="4.80663">
        <ele>214.835205</ele>
        <time>2016-08-29T07:22:23Z</time>
      </trkpt>
      <trkpt lat="44.50373" lon="4.80656">
        <ele>214.557602</ele>
        <time>2016-08-29T07:22:24Z</time>
      </trkpt>
      <trkpt lat="44.50372" lon="4.80649">
        <ele>214.317505</ele>
        <time>2016-08-29T07:22:25Z</time>
      </trkpt>
      <trkpt lat="44.50357" lon="4.80612">
        <ele>213.497314</ele>
        <time>2016-08-29T07:22:30Z</time>
      </trkpt>
      <trkpt lat="44.50352" lon="4.80605">
        <ele>213.521652</ele>
        <time>2016-08-29T07:22:31Z</time>
      </trkpt>
      <trkpt lat="44.50346" lon="4.80599">
        <ele>213.599701</ele>
        <time>2016-08-29T07:22:32Z</time>
      </trkpt>
      <trkpt lat="44.50302" lon="4.80556">
        <ele>213.714996</ele>
        <time>2016-08-29T07:22:40Z</time>
      </trkpt>
      <trkpt lat="44.50298" lon="4.80549">
        <ele>213.684998</ele>
        <time>2016-08-29T07:22:41Z</time>
      </trkpt>
      <trkpt lat="44.50295" lon="4.80541">
        <ele>213.723724</ele>
        <time>2016-08-29T07:22:42Z</time>
      </trkpt>
      <trkpt lat="44.50293" lon="4.80533">
        <ele>213.673126</ele>
        <time>2016-08-29T07:22:43Z</time>
      </trkpt>
      <trkpt lat="44.50292" lon="4.80524">
        <ele>213.491302</ele>
        <time>2016-08-29T07:22:44Z</time>
      </trkpt>
      <trkpt lat="44.50292" lon="4.80514">
        <ele>213.228821</ele>
        <time>2016-08-29T07:22:45Z</time>
      </trkpt>
      <trkpt lat="44.50292" lon="4.80505">
        <ele>212.943634</ele>
        <time>2016-08-29T07:22:46Z</time>
      </trkpt>
      <trkpt lat="44.50291" lon="4.80446">
        <ele>211.833282</ele>
        <time>2016-08-29T07:22:52Z</time>
      </trkpt>
      <trkpt lat="44.50291" lon="4.80384">
        <ele>210.504745</ele>
        <time>2016-08-29T07:22:58Z</time>
      </trkpt>
      <trkpt lat="44.5029" lon="4.80375">
        <ele>210.412827</ele>
        <time>2016-08-29T07:22:59Z</time>
      </trkpt>
      <trkpt lat="44.50267" lon="4.80282">
        <ele>211.705002</ele>
        <time>2016-08-29T07:23:11Z</time>
      </trkpt>
      <trkpt lat="44.50259" lon="4.80181">
        <ele>210.356247</ele>
        <time>2016-08-29T07:23:24Z</time>
      </trkpt>
      <trkpt lat="44.50256" lon="4.80173">
        <ele>209.929993</ele>
        <time>2016-08-29T07:23:25Z</time>
      </trkpt>
      <trkpt lat="44.50253" lon="4.80165">
        <ele>209.452499</ele>
        <time>2016-08-29T07:23:26Z</time>
      </trkpt>
      <trkpt lat="44.50213" lon="4.80099">
        <ele>209.14566</ele>
        <time>2016-08-29T07:23:36Z</time>
      </trkpt>
      <trkpt lat="44.50202" lon="4.80079">
        <ele>210.48439</ele>
        <time>2016-08-29T07:23:39Z</time>
      </trkpt>
      <trkpt lat="44.50189" lon="4.80033">
        <ele>211.646255</ele>
        <time>2016-08-29T07:23:46Z</time>
      </trkpt>
      <trkpt lat="44.50187" lon="4.80027">
        <ele>211.699997</ele>
        <time>2016-08-29T07:23:47Z</time>
      </trkpt>
      <trkpt lat="44.50174" lon="4.79974">
        <ele>212.950058</ele>
        <time>2016-08-29T07:23:55Z</time>
      </trkpt>
      <trkpt lat="44.50168" lon="4.79953">
        <ele>214.17337</ele>
        <time>2016-08-29T07:23:58Z</time>
      </trkpt>
      <trkpt lat="44.50166" lon="4.79947">
        <ele>214.664612</ele>
        <time>2016-08-29T07:23:59Z</time>
      </trkpt>
      <trkpt lat="44.50165" lon="4.79941">
        <ele>214.985245</ele>
        <time>2016-08-29T07:24:00Z</time>
      </trkpt>
      <trkpt lat="44.50156" lon="4.79919">
        <ele>216.572128</ele>
        <time>2016-08-29T07:24:04Z</time>
      </trkpt>
      <trkpt lat="44.50153" lon="4.79916">
        <ele>217.316559</ele>
        <time>2016-08-29T07:24:05Z</time>
      </trkpt>
      <trkpt lat="44.5015" lon="4.79913">
        <ele>217.908524</ele>
        <time>2016-08-29T07:24:06Z</time>
      </trkpt>
      <trkpt lat="44.50148" lon="4.7991">
        <ele>218.078934</ele>
        <time>2016-08-29T07:24:07Z</time>
      </trkpt>
      <trkpt lat="44.50147" lon="4.79907">
        <ele>218.112106</ele>
        <time>2016-08-29T07:24:08Z</time>
      </trkpt>
      <trkpt lat="44.50146" lon="4.79903">
        <ele>218.015823</ele>
        <time>2016-08-29T07:24:09Z</time>
      </trkpt>
      <trkpt lat="44.50145" lon="4.79899">
        <ele>217.888016</ele>
        <time>2016-08-29T07:24:10Z</time>
      </trkpt>
      <trkpt lat="44.50144" lon="4.79895">
        <ele>217.700775</ele>
        <time>2016-08-29T07:24:11Z</time>
      </trkpt>
      <trkpt lat="44.50133" lon="4.7986">
        <ele>216.059692</ele>
        <time>2016-08-29T07:24:19Z</time>
      </trkpt>
      <trkpt lat="44.50103" lon="4.79822">
        <ele>220.194565</ele>
        <time>2016-08-29T07:24:29Z</time>
      </trkpt>
      <trkpt lat="44.50068" lon="4.79802">
        <ele>224.677628</ele>
        <time>2016-08-29T07:24:39Z</time>
      </trkpt>
      <trkpt lat="44.50046" lon="4.79792">
        <ele>227.592316</ele>
        <time>2016-08-29T07:24:46Z</time>
      </trkpt>
      <trkpt lat="44.50045" lon="4.79789">
        <ele>227.460007</ele>
        <time>2016-08-29T07:24:47Z</time>
      </trkpt>
      <trkpt lat="44.50025" lon="4.79733">
        <ele>227.161255</ele>
        <time>2016-08-29T07:25:00Z</time>
      </trkpt>
      <trkpt lat="44.4999" lon="4.79705">
        <ele>231.392502</ele>
        <time>2016-08-29T07:25:11Z</time>
      </trkpt>
      <trkpt lat="44.49975" lon="4.79691">
        <ele>230.021255</ele>
        <time>2016-08-29T07:25:16Z</time>
      </trkpt>
      <trkpt lat="44.49971" lon="4.79688">
        <ele>229.907501</ele>
        <time>2016-08-29T07:25:17Z</time>
      </trkpt>
      <trkpt lat="44.49922" lon="4.79657">
        <ele>230.239532</ele>
        <time>2016-08-29T07:25:29Z</time>
      </trkpt>
      <trkpt lat="44.49909" lon="4.79648">
        <ele>231.699097</ele>
        <time>2016-08-29T07:25:32Z</time>
      </trkpt>
      <trkpt lat="44.49878" lon="4.79617">
        <ele>232.416</ele>
        <time>2016-08-29T07:25:42Z</time>
      </trkpt>
      <trkpt lat="44.49858" lon="4.79612">
        <ele>234.786575</ele>
        <time>2016-08-29T07:25:48Z</time>
      </trkpt>
      <trkpt lat="44.49848" lon="4.79617">
        <ele>237.820374</ele>
        <time>2016-08-29T07:25:51Z</time>
      </trkpt>
      <trkpt lat="44.49836" lon="4.79624">
        <ele>242.535553</ele>
        <time>2016-08-29T07:25:55Z</time>
      </trkpt>
      <trkpt lat="44.49826" lon="4.79633">
        <ele>248.072021</ele>
        <time>2016-08-29T07:25:59Z</time>
      </trkpt>
      <trkpt lat="44.49802" lon="4.79617">
        <ele>248.551117</ele>
        <time>2016-08-29T07:26:08Z</time>
      </trkpt>
      <trkpt lat="44.49798" lon="4.79614">
        <ele>248.31691</ele>
        <time>2016-08-29T07:26:09Z</time>
      </trkpt>
      <trkpt lat="44.4977" lon="4.79591">
        <ele>247.275803</ele>
        <time>2016-08-29T07:26:17Z</time>
      </trkpt>
      <trkpt lat="44.49749" lon="4.79583">
        <ele>248.575729</ele>
        <time>2016-08-29T07:26:23Z</time>
      </trkpt>
      <trkpt lat="44.49714" lon="4.79568">
        <ele>245.925888</ele>
        <time>2016-08-29T07:26:34Z</time>
      </trkpt>
      <trkpt lat="44.49684" lon="4.79586">
        <ele>248.887604</ele>
        <time>2016-08-29T07:26:45Z</time>
      </trkpt>
      <trkpt lat="44.49684" lon="4.79594">
        <ele>249.938232</ele>
        <time>2016-08-29T07:26:54Z</time>
      </trkpt>
      <trkpt lat="44.49687" lon="4.79596">
        <ele>250.950256</ele>
        <time>2016-08-29T07:26:56Z</time>
      </trkpt>
      <trkpt lat="44.49689" lon="4.79596">
        <ele>251.35379</ele>
        <time>2016-08-29T07:26:57Z</time>
      </trkpt>
      <trkpt lat="44.4969" lon="4.79597">
        <ele>251.66626</ele>
        <time>2016-08-29T07:26:58Z</time>
      </trkpt>
      <trkpt lat="44.49704" lon="4.79598">
        <ele>253.035507</ele>
        <time>2016-08-29T07:27:03Z</time>
      </trkpt>
      <trkpt lat="44.4971" lon="4.796">
        <ele>253.754715</ele>
        <time>2016-08-29T07:27:05Z</time>
      </trkpt>
      <trkpt lat="44.49736" lon="4.79632">
        <ele>262.444397</ele>
        <time>2016-08-29T07:27:17Z</time>
      </trkpt>
      <trkpt lat="44.49741" lon="4.7964">
        <ele>263.819214</ele>
        <time>2016-08-29T07:27:20Z</time>
      </trkpt>
      <trkpt lat="44.49748" lon="4.79646">
        <ele>264.765625</ele>
        <time>2016-08-29T07:27:23Z</time>
      </trkpt>
      <trkpt lat="44.49759" lon="4.79649">
        <ele>265.151947</ele>
        <time>2016-08-29T07:27:27Z</time>
      </trkpt>
      <trkpt lat="44.49781" lon="4.79668">
        <ele>267.51001</ele>
        <time>2016-08-29T07:27:35Z</time>
      </trkpt>
      <trkpt lat="44.49813" lon="4.79691">
        <ele>268.592255</ele>
        <time>2016-08-29T07:27:45Z</time>
      </trkpt>
      <trkpt lat="44.49817" lon="4.79693">
        <ele>268.83313</ele>
        <time>2016-08-29T07:27:46Z</time>
      </trkpt>
      <trkpt lat="44.49821" lon="4.79695">
        <ele>269.147034</ele>
        <time>2016-08-29T07:27:47Z</time>
      </trkpt>
      <trkpt lat="44.4985" lon="4.79733">
        <ele>267.193268</ele>
        <time>2016-08-29T07:27:58Z</time>
      </trkpt>
      <trkpt lat="44.49859" lon="4.79774">
        <ele>272.572174</ele>
        <time>2016-08-29T07:28:08Z</time>
      </trkpt>
      <trkpt lat="44.49859" lon="4.79777">
        <ele>273.185791</ele>
        <time>2016-08-29T07:28:09Z</time>
      </trkpt>
      <trkpt lat="44.49858" lon="4.79781">
        <ele>274.174011</ele>
        <time>2016-08-29T07:28:10Z</time>
      </trkpt>
      <trkpt lat="44.49857" lon="4.79786">
        <ele>275.311798</ele>
        <time>2016-08-29T07:28:11Z</time>
      </trkpt>
      <trkpt lat="44.49853" lon="4.79799">
        <ele>277.524048</ele>
        <time>2016-08-29T07:28:14Z</time>
      </trkpt>
      <trkpt lat="44.4984" lon="4.79834">
        <ele>279.999664</ele>
        <time>2016-08-29T07:28:22Z</time>
      </trkpt>
      <trkpt lat="44.49829" lon="4.79882">
        <ele>279.077087</ele>
        <time>2016-08-29T07:28:35Z</time>
      </trkpt>
      <trkpt lat="44.49823" lon="4.79923">
        <ele>279.266113</ele>
        <time>2016-08-29T07:28:45Z</time>
      </trkpt>
      <trkpt lat="44.49803" lon="4.79967">
        <ele>278.645264</ele>
        <time>2016-08-29T07:28:56Z</time>
      </trkpt>
      <trkpt lat="44.49777" lon="4.8">
        <ele>281.143066</ele>
        <time>2016-08-29T07:29:08Z</time>
      </trkpt>
      <trkpt lat="44.49743" lon="4.80031">
        <ele>283.279999</ele>
        <time>2016-08-29T07:29:21Z</time>
      </trkpt>
      <trkpt lat="44.49718" lon="4.80055">
        <ele>285.225006</ele>
        <time>2016-08-29T07:29:31Z</time>
      </trkpt>
      <trkpt lat="44.49713" lon="4.80061">
        <ele>285.912506</ele>
        <time>2016-08-29T07:29:33Z</time>
      </trkpt>
      <trkpt lat="44.497" lon="4.80071">
        <ele>286.558746</ele>
        <time>2016-08-29T07:29:37Z</time>
      </trkpt>
      <trkpt lat="44.49693" lon="4.80077">
        <ele>286.772491</ele>
        <time>2016-08-29T07:29:39Z</time>
      </trkpt>
      <trkpt lat="44.49688" lon="4.80079">
        <ele>286.651245</ele>
        <time>2016-08-29T07:29:40Z</time>
      </trkpt>
      <trkpt lat="44.49674" lon="4.8009">
        <ele>286.789673</ele>
        <time>2016-08-29T07:29:44Z</time>
      </trkpt>
      <trkpt lat="44.49674" lon="4.80096">
        <ele>287.054169</ele>
        <time>2016-08-29T07:29:45Z</time>
      </trkpt>
      <trkpt lat="44.49674" lon="4.80101">
        <ele>287.573242</ele>
        <time>2016-08-29T07:29:46Z</time>
      </trkpt>
      <trkpt lat="44.49675" lon="4.80106">
        <ele>288.15625</ele>
        <time>2016-08-29T07:29:47Z</time>
      </trkpt>
      <trkpt lat="44.49676" lon="4.80111">
        <ele>288.685577</ele>
        <time>2016-08-29T07:29:48Z</time>
      </trkpt>
      <trkpt lat="44.49677" lon="4.80116">
        <ele>289.074219</ele>
        <time>2016-08-29T07:29:49Z</time>
      </trkpt>
      <trkpt lat="44.49684" lon="4.80173">
        <ele>290.881226</ele>
        <time>2016-08-29T07:29:59Z</time>
      </trkpt>
      <trkpt lat="44.49685" lon="4.8018">
        <ele>290.626434</ele>
        <time>2016-08-29T07:30:00Z</time>
      </trkpt>
      <trkpt lat="44.49686" lon="4.80209">
        <ele>289.595337</ele>
        <time>2016-08-29T07:30:04Z</time>
      </trkpt>
      <trkpt lat="44.49687" lon="4.80216">
        <ele>289.314911</ele>
        <time>2016-08-29T07:30:05Z</time>
      </trkpt>
      <trkpt lat="44.49688" lon="4.80224">
        <ele>288.654938</ele>
        <time>2016-08-29T07:30:06Z</time>
      </trkpt>
      <trkpt lat="44.49689" lon="4.80232">
        <ele>288.118896</ele>
        <time>2016-08-29T07:30:07Z</time>
      </trkpt>
      <trkpt lat="44.49691" lon="4.80239">
        <ele>287.692963</ele>
        <time>2016-08-29T07:30:08Z</time>
      </trkpt>
      <trkpt lat="44.49694" lon="4.80247">
        <ele>287.352814</ele>
        <time>2016-08-29T07:30:09Z</time>
      </trkpt>
      <trkpt lat="44.497" lon="4.80269">
        <ele>286.705261</ele>
        <time>2016-08-29T07:30:12Z</time>
      </trkpt>
      <trkpt lat="44.49715" lon="4.80349">
        <ele>286.535217</ele>
        <time>2016-08-29T07:30:23Z</time>
      </trkpt>
      <trkpt lat="44.49717" lon="4.80379">
        <ele>284.774994</ele>
        <time>2016-08-29T07:30:27Z</time>
      </trkpt>
      <trkpt lat="44.49719" lon="4.80388">
        <ele>284.295013</ele>
        <time>2016-08-29T07:30:28Z</time>
      </trkpt>
      <trkpt lat="44.49724" lon="4.80408">
        <ele>283.373291</ele>
        <time>2016-08-29T07:30:30Z</time>
      </trkpt>
      <trkpt lat="44.49729" lon="4.8047">
        <ele>284.960876</ele>
        <time>2016-08-29T07:30:38Z</time>
      </trkpt>
      <trkpt lat="44.49733" lon="4.80521">
        <ele>289.472687</ele>
        <time>2016-08-29T07:30:48Z</time>
      </trkpt>
      <trkpt lat="44.49747" lon="4.8056">
        <ele>291.923096</ele>
        <time>2016-08-29T07:30:57Z</time>
      </trkpt>
      <trkpt lat="44.49754" lon="4.80584">
        <ele>293.29364</ele>
        <time>2016-08-29T07:31:02Z</time>
      </trkpt>
      <trkpt lat="44.49756" lon="4.8059">
        <ele>293.629639</ele>
        <time>2016-08-29T07:31:03Z</time>
      </trkpt>
      <trkpt lat="44.49759" lon="4.80595">
        <ele>293.893066</ele>
        <time>2016-08-29T07:31:04Z</time>
      </trkpt>
      <trkpt lat="44.49787" lon="4.80643">
        <ele>294.049805</ele>
        <time>2016-08-29T07:31:14Z</time>
      </trkpt>
      <trkpt lat="44.498" lon="4.80668">
        <ele>294.592499</ele>
        <time>2016-08-29T07:31:19Z</time>
      </trkpt>
      <trkpt lat="44.49832" lon="4.80739">
        <ele>291.368225</ele>
        <time>2016-08-29T07:31:31Z</time>
      </trkpt>
      <trkpt lat="44.49835" lon="4.80746">
        <ele>290.945313</ele>
        <time>2016-08-29T07:31:32Z</time>
      </trkpt>
      <trkpt lat="44.49838" lon="4.80753">
        <ele>290.601807</ele>
        <time>2016-08-29T07:31:33Z</time>
      </trkpt>
      <trkpt lat="44.49886" lon="4.80813">
        <ele>289.567505</ele>
        <time>2016-08-29T07:31:43Z</time>
      </trkpt>
      <trkpt lat="44.49891" lon="4.80816">
        <ele>289.384247</ele>
        <time>2016-08-29T07:31:44Z</time>
      </trkpt>
      <trkpt lat="44.49913" lon="4.80831">
        <ele>288.68219</ele>
        <time>2016-08-29T07:31:48Z</time>
      </trkpt>
      <trkpt lat="44.49917" lon="4.80835">
        <ele>288.55304</ele>
        <time>2016-08-29T07:31:49Z</time>
      </trkpt>
      <trkpt lat="44.49942" lon="4.80853">
        <ele>287.853577</ele>
        <time>2016-08-29T07:31:54Z</time>
      </trkpt>
      <trkpt lat="44.49965" lon="4.80876">
        <ele>287.603943</ele>
        <time>2016-08-29T07:31:59Z</time>
      </trkpt>
      <trkpt lat="44.50003" lon="4.80956">
        <ele>287.738129</ele>
        <time>2016-08-29T07:32:12Z</time>
      </trkpt>
      <trkpt lat="44.50005" lon="4.80962">
        <ele>288.009216</ele>
        <time>2016-08-29T07:32:13Z</time>
      </trkpt>
      <trkpt lat="44.50016" lon="4.81007">
        <ele>290.059265</ele>
        <time>2016-08-29T07:32:21Z</time>
      </trkpt>
      <trkpt lat="44.50036" lon="4.81081">
        <ele>293.879333</ele>
        <time>2016-08-29T07:32:35Z</time>
      </trkpt>
      <trkpt lat="44.50057" lon="4.81145">
        <ele>295.319855</ele>
        <time>2016-08-29T07:32:47Z</time>
      </trkpt>
      <trkpt lat="44.50088" lon="4.81231">
        <ele>293.056061</ele>
        <time>2016-08-29T07:33:00Z</time>
      </trkpt>
      <trkpt lat="44.50102" lon="4.81313">
        <ele>290.990204</ele>
        <time>2016-08-29T07:33:10Z</time>
      </trkpt>
      <trkpt lat="44.50101" lon="4.8132">
        <ele>291.448792</ele>
        <time>2016-08-29T07:33:11Z</time>
      </trkpt>
      <trkpt lat="44.501" lon="4.81347">
        <ele>293.525787</ele>
        <time>2016-08-29T07:33:16Z</time>
      </trkpt>
      <trkpt lat="44.50098" lon="4.81374">
        <ele>295.942505</ele>
        <time>2016-08-29T07:33:22Z</time>
      </trkpt>
      <trkpt lat="44.50097" lon="4.81382">
        <ele>296.950012</ele>
        <time>2016-08-29T07:33:24Z</time>
      </trkpt>
      <trkpt lat="44.50096" lon="4.81395">
        <ele>298.422485</ele>
        <time>2016-08-29T07:33:27Z</time>
      </trkpt>
      <trkpt lat="44.50098" lon="4.81421">
        <ele>301.955017</ele>
        <time>2016-08-29T07:33:32Z</time>
      </trkpt>
      <trkpt lat="44.50103" lon="4.81478">
        <ele>304.933594</ele>
        <time>2016-08-29T07:33:43Z</time>
      </trkpt>
      <trkpt lat="44.50103" lon="4.81488">
        <ele>305.284241</ele>
        <time>2016-08-29T07:33:45Z</time>
      </trkpt>
      <trkpt lat="44.50103" lon="4.81495">
        <ele>305.350677</ele>
        <time>2016-08-29T07:33:46Z</time>
      </trkpt>
      <trkpt lat="44.50104" lon="4.81501">
        <ele>305.188446</ele>
        <time>2016-08-29T07:33:47Z</time>
      </trkpt>
      <trkpt lat="44.50107" lon="4.81507">
        <ele>305.123108</ele>
        <time>2016-08-29T07:33:48Z</time>
      </trkpt>
      <trkpt lat="44.50109" lon="4.81512">
        <ele>305.116791</ele>
        <time>2016-08-29T07:33:49Z</time>
      </trkpt>
      <trkpt lat="44.50111" lon="4.81518">
        <ele>305.104401</ele>
        <time>2016-08-29T07:33:50Z</time>
      </trkpt>
      <trkpt lat="44.50113" lon="4.81524">
        <ele>305.086609</ele>
        <time>2016-08-29T07:33:51Z</time>
      </trkpt>
      <trkpt lat="44.50115" lon="4.8153">
        <ele>305.087585</ele>
        <time>2016-08-29T07:33:52Z</time>
      </trkpt>
      <trkpt lat="44.50118" lon="4.81536">
        <ele>305.118195</ele>
        <time>2016-08-29T07:33:53Z</time>
      </trkpt>
      <trkpt lat="44.50124" lon="4.81553">
        <ele>305.312103</ele>
        <time>2016-08-29T07:33:56Z</time>
      </trkpt>
      <trkpt lat="44.50136" lon="4.8158">
        <ele>305.922485</ele>
        <time>2016-08-29T07:34:01Z</time>
      </trkpt>
      <trkpt lat="44.50138" lon="4.81586">
        <ele>305.997498</ele>
        <time>2016-08-29T07:34:02Z</time>
      </trkpt>
      <trkpt lat="44.50154" lon="4.81626">
        <ele>304.441895</ele>
        <time>2016-08-29T07:34:09Z</time>
      </trkpt>
      <trkpt lat="44.50156" lon="4.81633">
        <ele>304.123016</ele>
        <time>2016-08-29T07:34:10Z</time>
      </trkpt>
      <trkpt lat="44.50158" lon="4.8164">
        <ele>303.794464</ele>
        <time>2016-08-29T07:34:11Z</time>
      </trkpt>
      <trkpt lat="44.50159" lon="4.81648">
        <ele>303.437531</ele>
        <time>2016-08-29T07:34:12Z</time>
      </trkpt>
      <trkpt lat="44.5016" lon="4.81656">
        <ele>303.093811</ele>
        <time>2016-08-29T07:34:13Z</time>
      </trkpt>
      <trkpt lat="44.50161" lon="4.81676">
        <ele>302.221619</ele>
        <time>2016-08-29T07:34:16Z</time>
      </trkpt>
      <trkpt lat="44.50161" lon="4.81694">
        <ele>302.550293</ele>
        <time>2016-08-29T07:34:19Z</time>
      </trkpt>
      <trkpt lat="44.5016" lon="4.817">
        <ele>302.904846</ele>
        <time>2016-08-29T07:34:20Z</time>
      </trkpt>
      <trkpt lat="44.5016" lon="4.81706">
        <ele>303.250641</ele>
        <time>2016-08-29T07:34:21Z</time>
      </trkpt>
      <trkpt lat="44.50171" lon="4.81747">
        <ele>305.855591</ele>
        <time>2016-08-29T07:34:31Z</time>
      </trkpt>
      <trkpt lat="44.50199" lon="4.81784">
        <ele>311.07251</ele>
        <time>2016-08-29T07:34:43Z</time>
      </trkpt>
      <trkpt lat="44.50218" lon="4.81823">
        <ele>316.617798</ele>
        <time>2016-08-29T07:34:53Z</time>
      </trkpt>
      <trkpt lat="44.50218" lon="4.81834">
        <ele>318.203613</ele>
        <time>2016-08-29T07:34:56Z</time>
      </trkpt>
      <trkpt lat="44.50216" lon="4.81836">
        <ele>318.584595</ele>
        <time>2016-08-29T07:34:57Z</time>
      </trkpt>
      <trkpt lat="44.50215" lon="4.81838">
        <ele>318.855347</ele>
        <time>2016-08-29T07:34:58Z</time>
      </trkpt>
      <trkpt lat="44.50212" lon="4.81839">
        <ele>319.050568</ele>
        <time>2016-08-29T07:34:59Z</time>
      </trkpt>
      <trkpt lat="44.5021" lon="4.81839">
        <ele>319.130249</ele>
        <time>2016-08-29T07:35:00Z</time>
      </trkpt>
      <trkpt lat="44.50188" lon="4.81847">
        <ele>320.880341</ele>
        <time>2016-08-29T07:35:08Z</time>
      </trkpt>
      <trkpt lat="44.50186" lon="4.81849">
        <ele>321.279419</ele>
        <time>2016-08-29T07:35:09Z</time>
      </trkpt>
      <trkpt lat="44.50177" lon="4.8186">
        <ele>323.462738</ele>
        <time>2016-08-29T07:35:13Z</time>
      </trkpt>
      <trkpt lat="44.50169" lon="4.81927">
        <ele>328.20163</ele>
        <time>2016-08-29T07:35:27Z</time>
      </trkpt>
      <trkpt lat="44.50157" lon="4.81983">
        <ele>329.029114</ele>
        <time>2016-08-29T07:35:40Z</time>
      </trkpt>
      <trkpt lat="44.50155" lon="4.81987">
        <ele>328.437927</ele>
        <time>2016-08-29T07:35:41Z</time>
      </trkpt>
      <trkpt lat="44.50137" lon="4.82005">
        <ele>325.785492</ele>
        <time>2016-08-29T07:35:48Z</time>
      </trkpt>
      <trkpt lat="44.50134" lon="4.82006">
        <ele>325.222137</ele>
        <time>2016-08-29T07:35:49Z</time>
      </trkpt>
      <trkpt lat="44.50131" lon="4.82008">
        <ele>324.936951</ele>
        <time>2016-08-29T07:35:50Z</time>
      </trkpt>
      <trkpt lat="44.50128" lon="4.82011">
        <ele>325.211121</ele>
        <time>2016-08-29T07:35:51Z</time>
      </trkpt>
      <trkpt lat="44.50126" lon="4.82014">
        <ele>325.920258</ele>
        <time>2016-08-29T07:35:52Z</time>
      </trkpt>
      <trkpt lat="44.50123" lon="4.82016">
        <ele>326.453796</ele>
        <time>2016-08-29T07:35:53Z</time>
      </trkpt>
      <trkpt lat="44.50121" lon="4.82018">
        <ele>326.849823</ele>
        <time>2016-08-29T07:35:54Z</time>
      </trkpt>
      <trkpt lat="44.50101" lon="4.82035">
        <ele>329.846802</ele>
        <time>2016-08-29T07:36:01Z</time>
      </trkpt>
      <trkpt lat="44.50096" lon="4.8204">
        <ele>330.646088</ele>
        <time>2016-08-29T07:36:03Z</time>
      </trkpt>
      <trkpt lat="44.50079" lon="4.82055">
        <ele>333.315491</ele>
        <time>2016-08-29T07:36:10Z</time>
      </trkpt>
      <trkpt lat="44.50077" lon="4.82057">
        <ele>333.927673</ele>
        <time>2016-08-29T07:36:11Z</time>
      </trkpt>
      <trkpt lat="44.50067" lon="4.82066">
        <ele>336.078735</ele>
        <time>2016-08-29T07:36:15Z</time>
      </trkpt>
      <trkpt lat="44.50043" lon="4.82088">
        <ele>340.615326</ele>
        <time>2016-08-29T07:36:25Z</time>
      </trkpt>
      <trkpt lat="44.50041" lon="4.82116">
        <ele>346.87323</ele>
        <time>2016-08-29T07:36:32Z</time>
      </trkpt>
      <trkpt lat="44.50041" lon="4.8212">
        <ele>347.547211</ele>
        <time>2016-08-29T07:36:33Z</time>
      </trkpt>
      <trkpt lat="44.50045" lon="4.82137">
        <ele>349.462677</ele>
        <time>2016-08-29T07:36:37Z</time>
      </trkpt>
      <trkpt lat="44.50047" lon="4.82166">
        <ele>352.299774</ele>
        <time>2016-08-29T07:36:44Z</time>
      </trkpt>
      <trkpt lat="44.50038" lon="4.82201">
        <ele>354.359222</ele>
        <time>2016-08-29T07:36:55Z</time>
      </trkpt>
      <trkpt lat="44.50023" lon="4.82248">
        <ele>357.54129</ele>
        <time>2016-08-29T07:37:07Z</time>
      </trkpt>
      <trkpt lat="44.50022" lon="4.82253">
        <ele>357.392639</ele>
        <time>2016-08-29T07:37:08Z</time>
      </trkpt>
      <trkpt lat="44.50021" lon="4.82258">
        <ele>357.31366</ele>
        <time>2016-08-29T07:37:09Z</time>
      </trkpt>
      <trkpt lat="44.5002" lon="4.82264">
        <ele>357.193481</ele>
        <time>2016-08-29T07:37:10Z</time>
      </trkpt>
      <trkpt lat="44.50018" lon="4.82292">
        <ele>356.435394</ele>
        <time>2016-08-29T07:37:15Z</time>
      </trkpt>
      <trkpt lat="44.50025" lon="4.82342">
        <ele>357.042786</ele>
        <time>2016-08-29T07:37:27Z</time>
      </trkpt>
      <trkpt lat="44.50025" lon="4.82344">
        <ele>357.203125</ele>
        <time>2016-08-29T07:37:28Z</time>
      </trkpt>
      <trkpt lat="44.50026" lon="4.82346">
        <ele>357.25296</ele>
        <time>2016-08-29T07:37:29Z</time>
      </trkpt>
      <trkpt lat="44.50027" lon="4.82349">
        <ele>357.277405</ele>
        <time>2016-08-29T07:37:30Z</time>
      </trkpt>
      <trkpt lat="44.50046" lon="4.82406">
        <ele>360.7883</ele>
        <time>2016-08-29T07:37:44Z</time>
      </trkpt>
      <trkpt lat="44.50084" lon="4.82454">
        <ele>361.608551</ele>
        <time>2016-08-29T07:37:59Z</time>
      </trkpt>
      <trkpt lat="44.5011" lon="4.82509">
        <ele>364.538452</ele>
        <time>2016-08-29T07:38:14Z</time>
      </trkpt>
      <trkpt lat="44.50127" lon="4.82541">
        <ele>359.203674</ele>
        <time>2016-08-29T07:38:22Z</time>
      </trkpt>
      <trkpt lat="44.50133" lon="4.8255">
        <ele>357.967377</ele>
        <time>2016-08-29T07:38:24Z</time>
      </trkpt>
      <trkpt lat="44.50147" lon="4.82563">
        <ele>356.357574</ele>
        <time>2016-08-29T07:38:28Z</time>
      </trkpt>
      <trkpt lat="44.50165" lon="4.82574">
        <ele>352.48999</ele>
        <time>2016-08-29T07:38:34Z</time>
      </trkpt>
      <trkpt lat="44.50184" lon="4.82586">
        <ele>347.850006</ele>
        <time>2016-08-29T07:38:39Z</time>
      </trkpt>
      <trkpt lat="44.50196" lon="4.82594">
        <ele>344.918762</ele>
        <time>2016-08-29T07:38:43Z</time>
      </trkpt>
      <trkpt lat="44.50201" lon="4.82598">
        <ele>343.32251</ele>
        <time>2016-08-29T07:38:45Z</time>
      </trkpt>
      <trkpt lat="44.50212" lon="4.8261">
        <ele>339.570129</ele>
        <time>2016-08-29T07:38:49Z</time>
      </trkpt>
      <trkpt lat="44.50217" lon="4.82615">
        <ele>337.946259</ele>
        <time>2016-08-29T07:38:51Z</time>
      </trkpt>
      <trkpt lat="44.50233" lon="4.82631">
        <ele>333.340668</ele>
        <time>2016-08-29T07:38:57Z</time>
      </trkpt>
      <trkpt lat="44.50242" lon="4.8264">
        <ele>330.32251</ele>
        <time>2016-08-29T07:39:01Z</time>
      </trkpt>
      <trkpt lat="44.50261" lon="4.82657">
        <ele>323.882263</ele>
        <time>2016-08-29T07:39:08Z</time>
      </trkpt>
      <trkpt lat="44.50277" lon="4.82668">
        <ele>320.476257</ele>
        <time>2016-08-29T07:39:13Z</time>
      </trkpt>
      <trkpt lat="44.50293" lon="4.82677">
        <ele>318.734253</ele>
        <time>2016-08-29T07:39:19Z</time>
      </trkpt>
      <trkpt lat="44.50296" lon="4.82675">
        <ele>319.147003</ele>
        <time>2016-08-29T07:39:28Z</time>
      </trkpt>
      <trkpt lat="44.50297" lon="4.82676">
        <ele>319.008881</ele>
        <time>2016-08-29T07:39:29Z</time>
      </trkpt>
      <trkpt lat="44.50299" lon="4.82677">
        <ele>318.831757</ele>
        <time>2016-08-29T07:39:30Z</time>
      </trkpt>
      <trkpt lat="44.503" lon="4.82678">
        <ele>318.71524</ele>
        <time>2016-08-29T07:39:31Z</time>
      </trkpt>
      <trkpt lat="44.503" lon="4.82678">
        <ele>318.815002</ele>
        <time>2016-08-29T07:39:33Z</time>
      </trkpt>
      <trkpt lat="44.50299" lon="4.82677">
        <ele>318.947754</ele>
        <time>2016-08-29T07:39:34Z</time>
      </trkpt>
      <trkpt lat="44.50299" lon="4.82675">
        <ele>319.246124</ele>
        <time>2016-08-29T07:39:35Z</time>
      </trkpt>
      <trkpt lat="44.50298" lon="4.82674">
        <ele>319.420624</ele>
        <time>2016-08-29T07:39:36Z</time>
      </trkpt>
      <trkpt lat="44.50296" lon="4.82673">
        <ele>319.58075</ele>
        <time>2016-08-29T07:39:37Z</time>
      </trkpt>
      <trkpt lat="44.50271" lon="4.82662">
        <ele>322.218506</ele>
        <time>2016-08-29T07:39:44Z</time>
      </trkpt>
      <trkpt lat="44.50261" lon="4.8266">
        <ele>323.084015</ele>
        <time>2016-08-29T07:39:46Z</time>
      </trkpt>
      <trkpt lat="44.50196" lon="4.82657">
        <ele>328.32959</ele>
        <time>2016-08-29T07:39:57Z</time>
      </trkpt>
      <trkpt lat="44.50192" lon="4.82658">
        <ele>328.815125</ele>
        <time>2016-08-29T07:39:58Z</time>
      </trkpt>
      <trkpt lat="44.50188" lon="4.82659">
        <ele>328.99762</ele>
        <time>2016-08-29T07:39:59Z</time>
      </trkpt>
      <trkpt lat="44.50186" lon="4.82662">
        <ele>328.964111</ele>
        <time>2016-08-29T07:40:00Z</time>
      </trkpt>
      <trkpt lat="44.50184" lon="4.82665">
        <ele>328.764587</ele>
        <time>2016-08-29T07:40:01Z</time>
      </trkpt>
      <trkpt lat="44.50184" lon="4.8267">
        <ele>328.047638</ele>
        <time>2016-08-29T07:40:02Z</time>
      </trkpt>
      <trkpt lat="44.50184" lon="4.82675">
        <ele>326.925293</ele>
        <time>2016-08-29T07:40:03Z</time>
      </trkpt>
      <trkpt lat="44.50185" lon="4.8268">
        <ele>325.870392</ele>
        <time>2016-08-29T07:40:04Z</time>
      </trkpt>
      <trkpt lat="44.50187" lon="4.82685">
        <ele>324.352875</ele>
        <time>2016-08-29T07:40:05Z</time>
      </trkpt>
      <trkpt lat="44.50189" lon="4.8269">
        <ele>322.825592</ele>
        <time>2016-08-29T07:40:06Z</time>
      </trkpt>
      <trkpt lat="44.50191" lon="4.82695">
        <ele>322.726501</ele>
        <time>2016-08-29T07:40:07Z</time>
      </trkpt>
      <trkpt lat="44.50197" lon="4.8272">
        <ele>323.170807</ele>
        <time>2016-08-29T07:40:12Z</time>
      </trkpt>
      <trkpt lat="44.50198" lon="4.82755">
        <ele>325.98584</ele>
        <time>2016-08-29T07:40:20Z</time>
      </trkpt>
      <trkpt lat="44.502" lon="4.8278">
        <ele>325.952087</ele>
        <time>2016-08-29T07:40:25Z</time>
      </trkpt>
      <trkpt lat="44.502" lon="4.82787">
        <ele>326.205292</ele>
        <time>2016-08-29T07:40:26Z</time>
      </trkpt>
      <trkpt lat="44.50201" lon="4.82801">
        <ele>326.556152</ele>
        <time>2016-08-29T07:40:28Z</time>
      </trkpt>
      <trkpt lat="44.50205" lon="4.82824">
        <ele>324.463562</ele>
        <time>2016-08-29T07:40:31Z</time>
      </trkpt>
      <trkpt lat="44.50207" lon="4.82831">
        <ele>322.600861</ele>
        <time>2016-08-29T07:40:32Z</time>
      </trkpt>
      <trkpt lat="44.50209" lon="4.82838">
        <ele>320.951599</ele>
        <time>2016-08-29T07:40:33Z</time>
      </trkpt>
      <trkpt lat="44.5021" lon="4.82844">
        <ele>319.685913</ele>
        <time>2016-08-29T07:40:34Z</time>
      </trkpt>
      <trkpt lat="44.50212" lon="4.82848">
        <ele>318.684784</ele>
        <time>2016-08-29T07:40:35Z</time>
      </trkpt>
      <trkpt lat="44.50213" lon="4.82857">
        <ele>317.18576</ele>
        <time>2016-08-29T07:40:37Z</time>
      </trkpt>
      <trkpt lat="44.50212" lon="4.82861">
        <ele>316.902344</ele>
        <time>2016-08-29T07:40:38Z</time>
      </trkpt>
      <trkpt lat="44.50209" lon="4.82863">
        <ele>317.087799</ele>
        <time>2016-08-29T07:40:39Z</time>
      </trkpt>
      <trkpt lat="44.50206" lon="4.82864">
        <ele>317.584076</ele>
        <time>2016-08-29T07:40:40Z</time>
      </trkpt>
      <trkpt lat="44.50202" lon="4.82865">
        <ele>318.141144</ele>
        <time>2016-08-29T07:40:41Z</time>
      </trkpt>
      <trkpt lat="44.50198" lon="4.82866">
        <ele>318.688904</ele>
        <time>2016-08-29T07:40:42Z</time>
      </trkpt>
      <trkpt lat="44.50179" lon="4.82867">
        <ele>321.29071</ele>
        <time>2016-08-29T07:40:47Z</time>
      </trkpt>
      <trkpt lat="44.50164" lon="4.82872">
        <ele>322.225372</ele>
        <time>2016-08-29T07:40:54Z</time>
      </trkpt>
      <trkpt lat="44.50164" lon="4.82875">
        <ele>321.392517</ele>
        <time>2016-08-29T07:40:55Z</time>
      </trkpt>
      <trkpt lat="44.50155" lon="4.82935">
        <ele>317.117706</ele>
        <time>2016-08-29T07:41:05Z</time>
      </trkpt>
      <trkpt lat="44.50173" lon="4.82999">
        <ele>313.538635</ele>
        <time>2016-08-29T07:41:14Z</time>
      </trkpt>
      <trkpt lat="44.50179" lon="4.83027">
        <ele>313.40329</ele>
        <time>2016-08-29T07:41:18Z</time>
      </trkpt>
      <trkpt lat="44.50206" lon="4.83109">
        <ele>306.87442</ele>
        <time>2016-08-29T07:41:29Z</time>
      </trkpt>
      <trkpt lat="44.50206" lon="4.83116">
        <ele>307.026978</ele>
        <time>2016-08-29T07:41:30Z</time>
      </trkpt>
      <trkpt lat="44.50206" lon="4.83123">
        <ele>307.477509</ele>
        <time>2016-08-29T07:41:31Z</time>
      </trkpt>
      <trkpt lat="44.50204" lon="4.83129">
        <ele>308.26474</ele>
        <time>2016-08-29T07:41:32Z</time>
      </trkpt>
      <trkpt lat="44.50201" lon="4.83134">
        <ele>308.719147</ele>
        <time>2016-08-29T07:41:33Z</time>
      </trkpt>
      <trkpt lat="44.50197" lon="4.8314">
        <ele>308.862793</ele>
        <time>2016-08-29T07:41:34Z</time>
      </trkpt>
      <trkpt lat="44.50193" lon="4.83145">
        <ele>309.058258</ele>
        <time>2016-08-29T07:41:35Z</time>
      </trkpt>
      <trkpt lat="44.50189" lon="4.8315">
        <ele>308.967468</ele>
        <time>2016-08-29T07:41:36Z</time>
      </trkpt>
      <trkpt lat="44.50185" lon="4.83155">
        <ele>308.942993</ele>
        <time>2016-08-29T07:41:37Z</time>
      </trkpt>
      <trkpt lat="44.50155" lon="4.83182">
        <ele>309.561371</ele>
        <time>2016-08-29T07:41:44Z</time>
      </trkpt>
      <trkpt lat="44.50152" lon="4.83186">
        <ele>309.198883</ele>
        <time>2016-08-29T07:41:45Z</time>
      </trkpt>
      <trkpt lat="44.50152" lon="4.83191">
        <ele>308.219574</ele>
        <time>2016-08-29T07:41:46Z</time>
      </trkpt>
      <trkpt lat="44.50151" lon="4.83197">
        <ele>307.237549</ele>
        <time>2016-08-29T07:41:47Z</time>
      </trkpt>
      <trkpt lat="44.50152" lon="4.83203">
        <ele>306.102173</ele>
        <time>2016-08-29T07:41:48Z</time>
      </trkpt>
      <trkpt lat="44.50153" lon="4.83208">
        <ele>305.019409</ele>
        <time>2016-08-29T07:41:49Z</time>
      </trkpt>
      <trkpt lat="44.50155" lon="4.83212">
        <ele>304.097839</ele>
        <time>2016-08-29T07:41:50Z</time>
      </trkpt>
      <trkpt lat="44.50157" lon="4.83217">
        <ele>303.145874</ele>
        <time>2016-08-29T07:41:51Z</time>
      </trkpt>
      <trkpt lat="44.50178" lon="4.83255">
        <ele>299.171539</ele>
        <time>2016-08-29T07:41:58Z</time>
      </trkpt>
      <trkpt lat="44.50182" lon="4.83258">
        <ele>298.77951</ele>
        <time>2016-08-29T07:41:59Z</time>
      </trkpt>
      <trkpt lat="44.50186" lon="4.8326">
        <ele>298.726563</ele>
        <time>2016-08-29T07:42:00Z</time>
      </trkpt>
      <trkpt lat="44.50188" lon="4.83259">
        <ele>299.176147</ele>
        <time>2016-08-29T07:42:01Z</time>
      </trkpt>
      <trkpt lat="44.5019" lon="4.83256">
        <ele>299.914276</ele>
        <time>2016-08-29T07:42:02Z</time>
      </trkpt>
      <trkpt lat="44.50191" lon="4.83252">
        <ele>299.925995</ele>
        <time>2016-08-29T07:42:03Z</time>
      </trkpt>
      <trkpt lat="44.50191" lon="4.83248">
        <ele>299.866241</ele>
        <time>2016-08-29T07:42:04Z</time>
      </trkpt>
      <trkpt lat="44.5019" lon="4.83244">
        <ele>299.795898</ele>
        <time>2016-08-29T07:42:05Z</time>
      </trkpt>
      <trkpt lat="44.50189" lon="4.83241">
        <ele>299.768402</ele>
        <time>2016-08-29T07:42:06Z</time>
      </trkpt>
      <trkpt lat="44.50186" lon="4.83238">
        <ele>299.80481</ele>
        <time>2016-08-29T07:42:07Z</time>
      </trkpt>
      <trkpt lat="44.50183" lon="4.83235">
        <ele>299.910797</ele>
        <time>2016-08-29T07:42:08Z</time>
      </trkpt>
      <trkpt lat="44.50181" lon="4.83232">
        <ele>300.102203</ele>
        <time>2016-08-29T07:42:09Z</time>
      </trkpt>
      <trkpt lat="44.50178" lon="4.83228">
        <ele>300.420685</ele>
        <time>2016-08-29T07:42:10Z</time>
      </trkpt>
      <trkpt lat="44.50174" lon="4.83224">
        <ele>300.878876</ele>
        <time>2016-08-29T07:42:11Z</time>
      </trkpt>
      <trkpt lat="44.50172" lon="4.8322">
        <ele>301.386475</ele>
        <time>2016-08-29T07:42:12Z</time>
      </trkpt>
      <trkpt lat="44.50171" lon="4.83215">
        <ele>301.86615</ele>
        <time>2016-08-29T07:42:13Z</time>
      </trkpt>
      <trkpt lat="44.50171" lon="4.83211">
        <ele>302.166992</ele>
        <time>2016-08-29T07:42:14Z</time>
      </trkpt>
      <trkpt lat="44.50177" lon="4.83186">
        <ele>304.102997</ele>
        <time>2016-08-29T07:42:21Z</time>
      </trkpt>
      <trkpt lat="44.50201" lon="4.83173">
        <ele>300.927704</ele>
        <time>2016-08-29T07:42:26Z</time>
      </trkpt>
      <trkpt lat="44.50209" lon="4.8317">
        <ele>299.117188</ele>
        <time>2016-08-29T07:42:27Z</time>
      </trkpt>
      <trkpt lat="44.50216" lon="4.83165">
        <ele>297.989929</ele>
        <time>2016-08-29T07:42:28Z</time>
      </trkpt>
      <trkpt lat="44.50238" lon="4.8313">
        <ele>295.331207</ele>
        <time>2016-08-29T07:42:34Z</time>
      </trkpt>
      <trkpt lat="44.50241" lon="4.83129">
        <ele>294.444977</ele>
        <time>2016-08-29T07:42:35Z</time>
      </trkpt>
      <trkpt lat="44.50247" lon="4.83136">
        <ele>292.161285</ele>
        <time>2016-08-29T07:42:38Z</time>
      </trkpt>
      <trkpt lat="44.50238" lon="4.83169">
        <ele>290.5513</ele>
        <time>2016-08-29T07:42:44Z</time>
      </trkpt>
      <trkpt lat="44.5023" lon="4.83187">
        <ele>290.27063</ele>
        <time>2016-08-29T07:42:48Z</time>
      </trkpt>
      <trkpt lat="44.5023" lon="4.83192">
        <ele>289.593872</ele>
        <time>2016-08-29T07:42:49Z</time>
      </trkpt>
      <trkpt lat="44.5023" lon="4.83195">
        <ele>289.048889</ele>
        <time>2016-08-29T07:42:50Z</time>
      </trkpt>
      <trkpt lat="44.50232" lon="4.83198">
        <ele>289.089203</ele>
        <time>2016-08-29T07:42:51Z</time>
      </trkpt>
      <trkpt lat="44.50234" lon="4.832">
        <ele>288.991058</ele>
        <time>2016-08-29T07:42:52Z</time>
      </trkpt>
      <trkpt lat="44.50236" lon="4.83202">
        <ele>288.835236</ele>
        <time>2016-08-29T07:42:53Z</time>
      </trkpt>
      <trkpt lat="44.50238" lon="4.83205">
        <ele>288.818146</ele>
        <time>2016-08-29T07:42:54Z</time>
      </trkpt>
      <trkpt lat="44.50245" lon="4.83208">
        <ele>288.328827</ele>
        <time>2016-08-29T07:42:56Z</time>
      </trkpt>
      <trkpt lat="44.50249" lon="4.83209">
        <ele>287.765625</ele>
        <time>2016-08-29T07:42:57Z</time>
      </trkpt>
      <trkpt lat="44.5026" lon="4.83206">
        <ele>285.328491</ele>
        <time>2016-08-29T07:43:00Z</time>
      </trkpt>
      <trkpt lat="44.50265" lon="4.83207">
        <ele>284.556305</ele>
        <time>2016-08-29T07:43:01Z</time>
      </trkpt>
      <trkpt lat="44.50278" lon="4.83208">
        <ele>282.548004</ele>
        <time>2016-08-29T07:43:03Z</time>
      </trkpt>
      <trkpt lat="44.50303" lon="4.83211">
        <ele>279.901611</ele>
        <time>2016-08-29T07:43:06Z</time>
      </trkpt>
      <trkpt lat="44.50313" lon="4.83217">
        <ele>279.471497</ele>
        <time>2016-08-29T07:43:07Z</time>
      </trkpt>
      <trkpt lat="44.50347" lon="4.83232">
        <ele>275.740936</ele>
        <time>2016-08-29T07:43:11Z</time>
      </trkpt>
      <trkpt lat="44.50381" lon="4.83261">
        <ele>270.922485</ele>
        <time>2016-08-29T07:43:16Z</time>
      </trkpt>
      <trkpt lat="44.50392" lon="4.83273">
        <ele>268.024231</ele>
        <time>2016-08-29T07:43:18Z</time>
      </trkpt>
      <trkpt lat="44.50407" lon="4.83295">
        <ele>263.097137</ele>
        <time>2016-08-29T07:43:22Z</time>
      </trkpt>
      <trkpt lat="44.50408" lon="4.83301">
        <ele>262.32312</ele>
        <time>2016-08-29T07:43:23Z</time>
      </trkpt>
      <trkpt lat="44.50409" lon="4.83307">
        <ele>261.754639</ele>
        <time>2016-08-29T07:43:24Z</time>
      </trkpt>
      <trkpt lat="44.50408" lon="4.83313">
        <ele>261.404968</ele>
        <time>2016-08-29T07:43:25Z</time>
      </trkpt>
      <trkpt lat="44.50405" lon="4.83318">
        <ele>261.260986</ele>
        <time>2016-08-29T07:43:26Z</time>
      </trkpt>
      <trkpt lat="44.50401" lon="4.83323">
        <ele>261.257263</ele>
        <time>2016-08-29T07:43:27Z</time>
      </trkpt>
      <trkpt lat="44.50397" lon="4.83329">
        <ele>261.359924</ele>
        <time>2016-08-29T07:43:28Z</time>
      </trkpt>
      <trkpt lat="44.50392" lon="4.83334">
        <ele>261.618927</ele>
        <time>2016-08-29T07:43:29Z</time>
      </trkpt>
      <trkpt lat="44.50374" lon="4.83353">
        <ele>263.593781</ele>
        <time>2016-08-29T07:43:33Z</time>
      </trkpt>
      <trkpt lat="44.50372" lon="4.83358">
        <ele>263.842987</ele>
        <time>2016-08-29T07:43:34Z</time>
      </trkpt>
      <trkpt lat="44.50372" lon="4.83364">
        <ele>263.692261</ele>
        <time>2016-08-29T07:43:35Z</time>
      </trkpt>
      <trkpt lat="44.50374" lon="4.8337">
        <ele>263.286011</ele>
        <time>2016-08-29T07:43:36Z</time>
      </trkpt>
      <trkpt lat="44.50375" lon="4.83375">
        <ele>262.812531</ele>
        <time>2016-08-29T07:43:37Z</time>
      </trkpt>
      <trkpt lat="44.50377" lon="4.8338">
        <ele>262.186676</ele>
        <time>2016-08-29T07:43:38Z</time>
      </trkpt>
      <trkpt lat="44.5038" lon="4.83386">
        <ele>261.369568</ele>
        <time>2016-08-29T07:43:39Z</time>
      </trkpt>
      <trkpt lat="44.50411" lon="4.83445">
        <ele>258.264496</ele>
        <time>2016-08-29T07:43:49Z</time>
      </trkpt>
      <trkpt lat="44.50417" lon="4.83463">
        <ele>257.556915</ele>
        <time>2016-08-29T07:43:53Z</time>
      </trkpt>
      <trkpt lat="44.50416" lon="4.83466">
        <ele>257.578003</ele>
        <time>2016-08-29T07:43:54Z</time>
      </trkpt>
      <trkpt lat="44.5041" lon="4.83467">
        <ele>258.321259</ele>
        <time>2016-08-29T07:43:57Z</time>
      </trkpt>
      <trkpt lat="44.50404" lon="4.83465">
        <ele>258.983307</ele>
        <time>2016-08-29T07:43:59Z</time>
      </trkpt>
      <trkpt lat="44.50377" lon="4.83446">
        <ele>263.462769</ele>
        <time>2016-08-29T07:44:10Z</time>
      </trkpt>
      <trkpt lat="44.50353" lon="4.83441">
        <ele>265.440521</ele>
        <time>2016-08-29T07:44:19Z</time>
      </trkpt>
      <trkpt lat="44.50333" lon="4.83438">
        <ele>266.618011</ele>
        <time>2016-08-29T07:44:29Z</time>
      </trkpt>
      <trkpt lat="44.50301" lon="4.83446">
        <ele>267.255341</ele>
        <time>2016-08-29T07:44:40Z</time>
      </trkpt>
      <trkpt lat="44.50274" lon="4.83444">
        <ele>269.277496</ele>
        <time>2016-08-29T07:44:49Z</time>
      </trkpt>
      <trkpt lat="44.50263" lon="4.8344">
        <ele>270.556244</ele>
        <time>2016-08-29T07:44:54Z</time>
      </trkpt>
      <trkpt lat="44.50244" lon="4.83435">
        <ele>272.47876</ele>
        <time>2016-08-29T07:45:02Z</time>
      </trkpt>
      <trkpt lat="44.50216" lon="4.83405">
        <ele>274.795746</ele>
        <time>2016-08-29T07:45:16Z</time>
      </trkpt>
      <trkpt lat="44.50193" lon="4.83362">
        <ele>277.012787</ele>
        <time>2016-08-29T07:45:28Z</time>
      </trkpt>
      <trkpt lat="44.50173" lon="4.83335">
        <ele>281.035156</ele>
        <time>2016-08-29T07:45:36Z</time>
      </trkpt>
      <trkpt lat="44.50163" lon="4.83335">
        <ele>280.456421</ele>
        <time>2016-08-29T07:45:39Z</time>
      </trkpt>
      <trkpt lat="44.5016" lon="4.83361">
        <ele>277.59256</ele>
        <time>2016-08-29T07:45:46Z</time>
      </trkpt>
      <trkpt lat="44.50161" lon="4.834">
        <ele>271.696564</ele>
        <time>2016-08-29T07:45:56Z</time>
      </trkpt>
      <trkpt lat="44.50165" lon="4.83425">
        <ele>266.387817</ele>
        <time>2016-08-29T07:46:01Z</time>
      </trkpt>
      <trkpt lat="44.50168" lon="4.83433">
        <ele>264.243256</ele>
        <time>2016-08-29T07:46:03Z</time>
      </trkpt>
      <trkpt lat="44.50171" lon="4.83445">
        <ele>261.545013</ele>
        <time>2016-08-29T07:46:06Z</time>
      </trkpt>
      <trkpt lat="44.50172" lon="4.83448">
        <ele>261.264984</ele>
        <time>2016-08-29T07:46:07Z</time>
      </trkpt>
      <trkpt lat="44.50183" lon="4.8349">
        <ele>257.339996</ele>
        <time>2016-08-29T07:46:13Z</time>
      </trkpt>
      <trkpt lat="44.50193" lon="4.83514">
        <ele>254.81192</ele>
        <time>2016-08-29T07:46:18Z</time>
      </trkpt>
      <trkpt lat="44.50206" lon="4.83545">
        <ele>251.950806</ele>
        <time>2016-08-29T07:46:25Z</time>
      </trkpt>
      <trkpt lat="44.50208" lon="4.83549">
        <ele>251.385834</ele>
        <time>2016-08-29T07:46:26Z</time>
      </trkpt>
      <trkpt lat="44.50221" lon="4.83561">
        <ele>248.351486</ele>
        <time>2016-08-29T07:46:30Z</time>
      </trkpt>
      <trkpt lat="44.50236" lon="4.83585">
        <ele>244.383652</ele>
        <time>2016-08-29T07:46:36Z</time>
      </trkpt>
      <trkpt lat="44.50245" lon="4.8363">
        <ele>240.514755</ele>
        <time>2016-08-29T07:46:45Z</time>
      </trkpt>
      <trkpt lat="44.50243" lon="4.83634">
        <ele>240.734955</ele>
        <time>2016-08-29T07:46:46Z</time>
      </trkpt>
      <trkpt lat="44.5023" lon="4.83648">
        <ele>242.492996</ele>
        <time>2016-08-29T07:46:50Z</time>
      </trkpt>
      <trkpt lat="44.50204" lon="4.83665">
        <ele>243.81189</ele>
        <time>2016-08-29T07:46:57Z</time>
      </trkpt>
      <trkpt lat="44.50202" lon="4.83684">
        <ele>242.629761</ele>
        <time>2016-08-29T07:47:01Z</time>
      </trkpt>
      <trkpt lat="44.50204" lon="4.83691">
        <ele>241.926498</ele>
        <time>2016-08-29T07:47:02Z</time>
      </trkpt>
      <trkpt lat="44.50207" lon="4.83697">
        <ele>241.185333</ele>
        <time>2016-08-29T07:47:03Z</time>
      </trkpt>
      <trkpt lat="44.50243" lon="4.8374">
        <ele>247.65213</ele>
        <time>2016-08-29T07:47:16Z</time>
      </trkpt>
      <trkpt lat="44.50278" lon="4.83767">
        <ele>251.642807</ele>
        <time>2016-08-29T07:47:26Z</time>
      </trkpt>
      <trkpt lat="44.50281" lon="4.83771">
        <ele>251.951874</ele>
        <time>2016-08-29T07:47:27Z</time>
      </trkpt>
      <trkpt lat="44.50286" lon="4.83778">
        <ele>252.626068</ele>
        <time>2016-08-29T07:47:29Z</time>
      </trkpt>
      <trkpt lat="44.50331" lon="4.83827">
        <ele>255.558899</ele>
        <time>2016-08-29T07:47:45Z</time>
      </trkpt>
      <trkpt lat="44.50341" lon="4.83852">
        <ele>256.940002</ele>
        <time>2016-08-29T07:47:51Z</time>
      </trkpt>
      <trkpt lat="44.50344" lon="4.83891">
        <ele>261.100006</ele>
        <time>2016-08-29T07:47:59Z</time>
      </trkpt>
      <trkpt lat="44.50358" lon="4.83922">
        <ele>264.830017</ele>
        <time>2016-08-29T07:48:07Z</time>
      </trkpt>
      <trkpt lat="44.50361" lon="4.83922">
        <ele>265.130005</ele>
        <time>2016-08-29T07:48:08Z</time>
      </trkpt>
      <trkpt lat="44.50364" lon="4.83922">
        <ele>265.259979</ele>
        <time>2016-08-29T07:48:09Z</time>
      </trkpt>
      <trkpt lat="44.50367" lon="4.8392">
        <ele>265.290009</ele>
        <time>2016-08-29T07:48:10Z</time>
      </trkpt>
      <trkpt lat="44.50371" lon="4.83919">
        <ele>265.244995</ele>
        <time>2016-08-29T07:48:11Z</time>
      </trkpt>
      <trkpt lat="44.50376" lon="4.83916">
        <ele>265.190002</ele>
        <time>2016-08-29T07:48:12Z</time>
      </trkpt>
      <trkpt lat="44.50381" lon="4.83913">
        <ele>264.955017</ele>
        <time>2016-08-29T07:48:13Z</time>
      </trkpt>
      <trkpt lat="44.50385" lon="4.8391">
        <ele>264.644989</ele>
        <time>2016-08-29T07:48:14Z</time>
      </trkpt>
      <trkpt lat="44.50389" lon="4.83907">
        <ele>264.410004</ele>
        <time>2016-08-29T07:48:15Z</time>
      </trkpt>
      <trkpt lat="44.50435" lon="4.83906">
        <ele>266.903473</ele>
        <time>2016-08-29T07:48:28Z</time>
      </trkpt>
      <trkpt lat="44.50448" lon="4.83909">
        <ele>268.050751</ele>
        <time>2016-08-29T07:48:32Z</time>
      </trkpt>
      <trkpt lat="44.50479" lon="4.83925">
        <ele>271.01593</ele>
        <time>2016-08-29T07:48:43Z</time>
      </trkpt>
      <trkpt lat="44.50499" lon="4.83934">
        <ele>272.331879</ele>
        <time>2016-08-29T07:48:50Z</time>
      </trkpt>
      <trkpt lat="44.50498" lon="4.83935">
        <ele>272.62146</ele>
        <time>2016-08-29T07:48:54Z</time>
      </trkpt>
      <trkpt lat="44.50454" lon="4.83943">
        <ele>273.679352</ele>
        <time>2016-08-29T07:49:07Z</time>
      </trkpt>
      <trkpt lat="44.50416" lon="4.83961">
        <ele>275.503204</ele>
        <time>2016-08-29T07:49:19Z</time>
      </trkpt>
      <trkpt lat="44.50376" lon="4.83966">
        <ele>274.126984</ele>
        <time>2016-08-29T07:49:30Z</time>
      </trkpt>
      <trkpt lat="44.50335" lon="4.83988">
        <ele>276.982025</ele>
        <time>2016-08-29T07:49:42Z</time>
      </trkpt>
      <trkpt lat="44.50289" lon="4.83989">
        <ele>282.337646</ele>
        <time>2016-08-29T07:49:55Z</time>
      </trkpt>
      <trkpt lat="44.50265" lon="4.83968">
        <ele>287.732513</ele>
        <time>2016-08-29T07:50:04Z</time>
      </trkpt>
      <trkpt lat="44.50262" lon="4.83965">
        <ele>288.532288</ele>
        <time>2016-08-29T07:50:05Z</time>
      </trkpt>
      <trkpt lat="44.50241" lon="4.83944">
        <ele>294.222198</ele>
        <time>2016-08-29T07:50:13Z</time>
      </trkpt>
      <trkpt lat="44.50207" lon="4.83925">
        <ele>296.138977</ele>
        <time>2016-08-29T07:50:24Z</time>
      </trkpt>
      <trkpt lat="44.502" lon="4.83922">
        <ele>296.056763</ele>
        <time>2016-08-29T07:50:26Z</time>
      </trkpt>
      <trkpt lat="44.5018" lon="4.83914">
        <ele>295.92453</ele>
        <time>2016-08-29T07:50:32Z</time>
      </trkpt>
      <trkpt lat="44.50143" lon="4.8392">
        <ele>299.840515</ele>
        <time>2016-08-29T07:50:44Z</time>
      </trkpt>
      <trkpt lat="44.50106" lon="4.83925">
        <ele>304.337128</ele>
        <time>2016-08-29T07:50:55Z</time>
      </trkpt>
      <trkpt lat="44.50081" lon="4.83929">
        <ele>307.159363</ele>
        <time>2016-08-29T07:51:02Z</time>
      </trkpt>
      <trkpt lat="44.5004" lon="4.83929">
        <ele>310.319855</ele>
        <time>2016-08-29T07:51:14Z</time>
      </trkpt>
      <trkpt lat="44.50009" lon="4.83922">
        <ele>312.288818</ele>
        <time>2016-08-29T07:51:24Z</time>
      </trkpt>
      <trkpt lat="44.50006" lon="4.83922">
        <ele>312.469574</ele>
        <time>2016-08-29T07:51:25Z</time>
      </trkpt>
      <trkpt lat="44.49999" lon="4.8392">
        <ele>312.961426</ele>
        <time>2016-08-29T07:51:27Z</time>
      </trkpt>
      <trkpt lat="44.49959" lon="4.83936">
        <ele>316.08078</ele>
        <time>2016-08-29T07:51:38Z</time>
      </trkpt>
      <trkpt lat="44.4995" lon="4.83944">
        <ele>315.602997</ele>
        <time>2016-08-29T07:51:41Z</time>
      </trkpt>
      <trkpt lat="44.4991" lon="4.83957">
        <ele>317.996002</ele>
        <time>2016-08-29T07:51:53Z</time>
      </trkpt>
      <trkpt lat="44.49869" lon="4.83957">
        <ele>327.045135</ele>
        <time>2016-08-29T07:52:04Z</time>
      </trkpt>
      <trkpt lat="44.49861" lon="4.83952">
        <ele>328.915009</ele>
        <time>2016-08-29T07:52:07Z</time>
      </trkpt>
      <trkpt lat="44.49858" lon="4.83935">
        <ele>329.451263</ele>
        <time>2016-08-29T07:52:12Z</time>
      </trkpt>
      <trkpt lat="44.49847" lon="4.83888">
        <ele>331.552765</ele>
        <time>2016-08-29T07:52:23Z</time>
      </trkpt>
      <trkpt lat="44.49846" lon="4.83884">
        <ele>331.923584</ele>
        <time>2016-08-29T07:52:24Z</time>
      </trkpt>
      <trkpt lat="44.49842" lon="4.83877">
        <ele>332.870605</ele>
        <time>2016-08-29T07:52:26Z</time>
      </trkpt>
      <trkpt lat="44.49826" lon="4.83838">
        <ele>337.69101</ele>
        <time>2016-08-29T07:52:35Z</time>
      </trkpt>
      <trkpt lat="44.49821" lon="4.83775">
        <ele>337.964996</ele>
        <time>2016-08-29T07:52:47Z</time>
      </trkpt>
      <trkpt lat="44.49815" lon="4.83716">
        <ele>340.755493</ele>
        <time>2016-08-29T07:52:59Z</time>
      </trkpt>
      <trkpt lat="44.49813" lon="4.83711">
        <ele>341.216919</ele>
        <time>2016-08-29T07:53:00Z</time>
      </trkpt>
      <trkpt lat="44.49802" lon="4.83658">
        <ele>344.334991</ele>
        <time>2016-08-29T07:53:11Z</time>
      </trkpt>
      <trkpt lat="44.49802" lon="4.83652">
        <ele>344.476257</ele>
        <time>2016-08-29T07:53:12Z</time>
      </trkpt>
      <trkpt lat="44.49811" lon="4.83591">
        <ele>345.058868</ele>
        <time>2016-08-29T07:53:25Z</time>
      </trkpt>
      <trkpt lat="44.49844" lon="4.8353">
        <ele>345.009308</ele>
        <time>2016-08-29T07:53:40Z</time>
      </trkpt>
      <trkpt lat="44.49857" lon="4.83505">
        <ele>344.291443</ele>
        <time>2016-08-29T07:53:46Z</time>
      </trkpt>
      <trkpt lat="44.49844" lon="4.83506">
        <ele>349.050781</ele>
        <time>2016-08-29T07:53:52Z</time>
      </trkpt>
      <trkpt lat="44.49815" lon="4.83538">
        <ele>352.496704</ele>
        <time>2016-08-29T07:54:01Z</time>
      </trkpt>
      <trkpt lat="44.49769" lon="4.83568">
        <ele>359.345001</ele>
        <time>2016-08-29T07:54:15Z</time>
      </trkpt>
      <trkpt lat="44.49761" lon="4.83581">
        <ele>359.742493</ele>
        <time>2016-08-29T07:54:19Z</time>
      </trkpt>
      <trkpt lat="44.49755" lon="4.83576">
        <ele>361.686249</ele>
        <time>2016-08-29T07:54:23Z</time>
      </trkpt>
      <trkpt lat="44.49756" lon="4.83556">
        <ele>363.76001</ele>
        <time>2016-08-29T07:54:29Z</time>
      </trkpt>
      <trkpt lat="44.49771" lon="4.83527">
        <ele>365.143036</ele>
        <time>2016-08-29T07:54:37Z</time>
      </trkpt>
      <trkpt lat="44.49795" lon="4.83491">
        <ele>366.365265</ele>
        <time>2016-08-29T07:54:47Z</time>
      </trkpt>
      <trkpt lat="44.49806" lon="4.83431">
        <ele>368.577789</ele>
        <time>2016-08-29T07:54:59Z</time>
      </trkpt>
      <trkpt lat="44.49832" lon="4.83365">
        <ele>368.439453</ele>
        <time>2016-08-29T07:55:12Z</time>
      </trkpt>
      <trkpt lat="44.49857" lon="4.83307">
        <ele>369.429718</ele>
        <time>2016-08-29T07:55:22Z</time>
      </trkpt>
      <trkpt lat="44.49858" lon="4.83301">
        <ele>369.982727</ele>
        <time>2016-08-29T07:55:23Z</time>
      </trkpt>
      <trkpt lat="44.49859" lon="4.83281">
        <ele>372.555511</ele>
        <time>2016-08-29T07:55:27Z</time>
      </trkpt>
      <trkpt lat="44.49877" lon="4.8323">
        <ele>375.668091</ele>
        <time>2016-08-29T07:55:39Z</time>
      </trkpt>
      <trkpt lat="44.49897" lon="4.83164">
        <ele>376.049194</ele>
        <time>2016-08-29T07:55:50Z</time>
      </trkpt>
      <trkpt lat="44.49902" lon="4.83143">
        <ele>377.245575</ele>
        <time>2016-08-29T07:55:53Z</time>
      </trkpt>
      <trkpt lat="44.49904" lon="4.83137">
        <ele>377.424957</ele>
        <time>2016-08-29T07:55:54Z</time>
      </trkpt>
      <trkpt lat="44.49907" lon="4.83131">
        <ele>377.470581</ele>
        <time>2016-08-29T07:55:55Z</time>
      </trkpt>
      <trkpt lat="44.49909" lon="4.83126">
        <ele>377.450226</ele>
        <time>2016-08-29T07:55:56Z</time>
      </trkpt>
      <trkpt lat="44.49912" lon="4.83122">
        <ele>377.371643</ele>
        <time>2016-08-29T07:55:57Z</time>
      </trkpt>
      <trkpt lat="44.49934" lon="4.83075">
        <ele>380.071442</ele>
        <time>2016-08-29T07:56:08Z</time>
      </trkpt>
      <trkpt lat="44.49945" lon="4.8302">
        <ele>385.286957</ele>
        <time>2016-08-29T07:56:20Z</time>
      </trkpt>
      <trkpt lat="44.49963" lon="4.82953">
        <ele>385.391418</ele>
        <time>2016-08-29T07:56:32Z</time>
      </trkpt>
      <trkpt lat="44.49967" lon="4.82916">
        <ele>385.403748</ele>
        <time>2016-08-29T07:56:38Z</time>
      </trkpt>
      <trkpt lat="44.49965" lon="4.82898">
        <ele>386.841919</ele>
        <time>2016-08-29T07:56:41Z</time>
      </trkpt>
      <trkpt lat="44.49955" lon="4.82868">
        <ele>391.403198</ele>
        <time>2016-08-29T07:56:47Z</time>
      </trkpt>
      <trkpt lat="44.49953" lon="4.82863">
        <ele>392.162476</ele>
        <time>2016-08-29T07:56:48Z</time>
      </trkpt>
      <trkpt lat="44.49945" lon="4.82841">
        <ele>396.350616</ele>
        <time>2016-08-29T07:56:54Z</time>
      </trkpt>
      <trkpt lat="44.49938" lon="4.82826">
        <ele>399.585724</ele>
        <time>2016-08-29T07:56:58Z</time>
      </trkpt>
      <trkpt lat="44.49946" lon="4.82773">
        <ele>400.880798</ele>
        <time>2016-08-29T07:57:09Z</time>
      </trkpt>
      <trkpt lat="44.49953" lon="4.82751">
        <ele>400.030273</ele>
        <time>2016-08-29T07:57:13Z</time>
      </trkpt>
      <trkpt lat="44.49965" lon="4.82693">
        <ele>401.338379</ele>
        <time>2016-08-29T07:57:22Z</time>
      </trkpt>
      <trkpt lat="44.49979" lon="4.82656">
        <ele>398.207062</ele>
        <time>2016-08-29T07:57:29Z</time>
      </trkpt>
      <trkpt lat="44.49984" lon="4.82644">
        <ele>396.432587</ele>
        <time>2016-08-29T07:57:31Z</time>
      </trkpt>
      <trkpt lat="44.49985" lon="4.82638">
        <ele>395.784607</ele>
        <time>2016-08-29T07:57:32Z</time>
      </trkpt>
      <trkpt lat="44.49987" lon="4.82632">
        <ele>395.328857</ele>
        <time>2016-08-29T07:57:33Z</time>
      </trkpt>
      <trkpt lat="44.49987" lon="4.82626">
        <ele>395.365082</ele>
        <time>2016-08-29T07:57:34Z</time>
      </trkpt>
      <trkpt lat="44.49986" lon="4.82619">
        <ele>395.801636</ele>
        <time>2016-08-29T07:57:35Z</time>
      </trkpt>
      <trkpt lat="44.49984" lon="4.82613">
        <ele>396.430939</ele>
        <time>2016-08-29T07:57:36Z</time>
      </trkpt>
      <trkpt lat="44.49984" lon="4.82606">
        <ele>396.632813</ele>
        <time>2016-08-29T07:57:37Z</time>
      </trkpt>
      <trkpt lat="44.49983" lon="4.82599">
        <ele>396.960938</ele>
        <time>2016-08-29T07:57:38Z</time>
      </trkpt>
      <trkpt lat="44.49985" lon="4.82554">
        <ele>395.793243</ele>
        <time>2016-08-29T07:57:44Z</time>
      </trkpt>
      <trkpt lat="44.49986" lon="4.82547">
        <ele>394.355682</ele>
        <time>2016-08-29T07:57:45Z</time>
      </trkpt>
      <trkpt lat="44.49988" lon="4.82542">
        <ele>392.913879</ele>
        <time>2016-08-29T07:57:46Z</time>
      </trkpt>
      <trkpt lat="44.49991" lon="4.82537">
        <ele>391.283264</ele>
        <time>2016-08-29T07:57:47Z</time>
      </trkpt>
      <trkpt lat="44.49994" lon="4.82531">
        <ele>389.604767</ele>
        <time>2016-08-29T07:57:48Z</time>
      </trkpt>
      <trkpt lat="44.49996" lon="4.82526">
        <ele>388.378479</ele>
        <time>2016-08-29T07:57:49Z</time>
      </trkpt>
      <trkpt lat="44.49994" lon="4.8252">
        <ele>388.343781</ele>
        <time>2016-08-29T07:57:50Z</time>
      </trkpt>
      <trkpt lat="44.49992" lon="4.82513">
        <ele>388.200409</ele>
        <time>2016-08-29T07:57:51Z</time>
      </trkpt>
      <trkpt lat="44.49989" lon="4.82506">
        <ele>388.267761</ele>
        <time>2016-08-29T07:57:52Z</time>
      </trkpt>
      <trkpt lat="44.49983" lon="4.82491">
        <ele>387.908936</ele>
        <time>2016-08-29T07:57:54Z</time>
      </trkpt>
      <trkpt lat="44.49981" lon="4.82477">
        <ele>386.3591</ele>
        <time>2016-08-29T07:57:56Z</time>
      </trkpt>
      <trkpt lat="44.49978" lon="4.82456">
        <ele>383.71759</ele>
        <time>2016-08-29T07:57:59Z</time>
      </trkpt>
      <trkpt lat="44.49975" lon="4.82449">
        <ele>383.461517</ele>
        <time>2016-08-29T07:58:00Z</time>
      </trkpt>
      <trkpt lat="44.49972" lon="4.82444">
        <ele>383.229034</ele>
        <time>2016-08-29T07:58:01Z</time>
      </trkpt>
      <trkpt lat="44.49969" lon="4.8244">
        <ele>383.201385</ele>
        <time>2016-08-29T07:58:02Z</time>
      </trkpt>
      <trkpt lat="44.49966" lon="4.82436">
        <ele>383.467438</ele>
        <time>2016-08-29T07:58:03Z</time>
      </trkpt>
      <trkpt lat="44.49962" lon="4.82431">
        <ele>383.572601</ele>
        <time>2016-08-29T07:58:04Z</time>
      </trkpt>
      <trkpt lat="44.49952" lon="4.82416">
        <ele>382.59317</ele>
        <time>2016-08-29T07:58:07Z</time>
      </trkpt>
      <trkpt lat="44.49945" lon="4.82397">
        <ele>380.144989</ele>
        <time>2016-08-29T07:58:11Z</time>
      </trkpt>
      <trkpt lat="44.49933" lon="4.82371">
        <ele>376.883728</ele>
        <time>2016-08-29T07:58:15Z</time>
      </trkpt>
      <trkpt lat="44.49924" lon="4.82349">
        <ele>373.931519</ele>
        <time>2016-08-29T07:58:20Z</time>
      </trkpt>
      <trkpt lat="44.49906" lon="4.82335">
        <ele>372.900146</ele>
        <time>2016-08-29T07:58:25Z</time>
      </trkpt>
      <trkpt lat="44.49882" lon="4.82325">
        <ele>372.767975</ele>
        <time>2016-08-29T07:58:31Z</time>
      </trkpt>
      <trkpt lat="44.49877" lon="4.82324">
        <ele>373.006958</ele>
        <time>2016-08-29T07:58:32Z</time>
      </trkpt>
      <trkpt lat="44.49848" lon="4.82312">
        <ele>372.743256</ele>
        <time>2016-08-29T07:58:40Z</time>
      </trkpt>
      <trkpt lat="44.49827" lon="4.82295">
        <ele>372.132996</ele>
        <time>2016-08-29T07:58:46Z</time>
      </trkpt>
      <trkpt lat="44.49777" lon="4.82272">
        <ele>375.504059</ele>
        <time>2016-08-29T07:58:59Z</time>
      </trkpt>
      <trkpt lat="44.49763" lon="4.82265">
        <ele>376.171844</ele>
        <time>2016-08-29T07:59:03Z</time>
      </trkpt>
      <trkpt lat="44.49736" lon="4.82259">
        <ele>378.678131</ele>
        <time>2016-08-29T07:59:10Z</time>
      </trkpt>
      <trkpt lat="44.49675" lon="4.82268">
        <ele>384.34375</ele>
        <time>2016-08-29T07:59:26Z</time>
      </trkpt>
      <trkpt lat="44.49641" lon="4.82281">
        <ele>387.970001</ele>
        <time>2016-08-29T07:59:35Z</time>
      </trkpt>
      <trkpt lat="44.49628" lon="4.82284">
        <ele>388.992493</ele>
        <time>2016-08-29T07:59:39Z</time>
      </trkpt>
      <trkpt lat="44.49614" lon="4.82288">
        <ele>390.105469</ele>
        <time>2016-08-29T07:59:43Z</time>
      </trkpt>
      <trkpt lat="44.49584" lon="4.823">
        <ele>392.641418</ele>
        <time>2016-08-29T07:59:52Z</time>
      </trkpt>
      <trkpt lat="44.49581" lon="4.82302">
        <ele>392.872131</ele>
        <time>2016-08-29T07:59:53Z</time>
      </trkpt>
      <trkpt lat="44.49556" lon="4.82316">
        <ele>395.556976</ele>
        <time>2016-08-29T08:00:01Z</time>
      </trkpt>
      <trkpt lat="44.49553" lon="4.82318">
        <ele>396.047455</ele>
        <time>2016-08-29T08:00:02Z</time>
      </trkpt>
      <trkpt lat="44.49532" lon="4.82335">
        <ele>399.323456</ele>
        <time>2016-08-29T08:00:10Z</time>
      </trkpt>
      <trkpt lat="44.49522" lon="4.82341">
        <ele>400.200348</ele>
        <time>2016-08-29T08:00:13Z</time>
      </trkpt>
      <trkpt lat="44.49518" lon="4.82342">
        <ele>400.346222</ele>
        <time>2016-08-29T08:00:14Z</time>
      </trkpt>
      <trkpt lat="44.49495" lon="4.82347">
        <ele>400.139984</ele>
        <time>2016-08-29T08:00:19Z</time>
      </trkpt>
      <trkpt lat="44.49431" lon="4.82366">
        <ele>396.741394</ele>
        <time>2016-08-29T08:00:29Z</time>
      </trkpt>
      <trkpt lat="44.49419" lon="4.82374">
        <ele>396.602875</ele>
        <time>2016-08-29T08:00:31Z</time>
      </trkpt>
      <trkpt lat="44.49413" lon="4.82378">
        <ele>396.458435</ele>
        <time>2016-08-29T08:00:32Z</time>
      </trkpt>
      <trkpt lat="44.49407" lon="4.8238">
        <ele>396.24646</ele>
        <time>2016-08-29T08:00:33Z</time>
      </trkpt>
      <trkpt lat="44.494" lon="4.82383">
        <ele>395.941467</ele>
        <time>2016-08-29T08:00:34Z</time>
      </trkpt>
      <trkpt lat="44.49336" lon="4.82377">
        <ele>392.690002</ele>
        <time>2016-08-29T08:00:44Z</time>
      </trkpt>
      <trkpt lat="44.4933" lon="4.82377">
        <ele>392.433746</ele>
        <time>2016-08-29T08:00:45Z</time>
      </trkpt>
      <trkpt lat="44.49324" lon="4.82377">
        <ele>392.190002</ele>
        <time>2016-08-29T08:00:46Z</time>
      </trkpt>
      <trkpt lat="44.49318" lon="4.82379">
        <ele>391.956238</ele>
        <time>2016-08-29T08:00:47Z</time>
      </trkpt>
      <trkpt lat="44.49312" lon="4.82381">
        <ele>391.732513</ele>
        <time>2016-08-29T08:00:48Z</time>
      </trkpt>
      <trkpt lat="44.49259" lon="4.82401">
        <ele>390.83783</ele>
        <time>2016-08-29T08:00:57Z</time>
      </trkpt>
      <trkpt lat="44.49241" lon="4.82406">
        <ele>390.366547</ele>
        <time>2016-08-29T08:01:00Z</time>
      </trkpt>
      <trkpt lat="44.49235" lon="4.82406">
        <ele>390.215973</ele>
        <time>2016-08-29T08:01:01Z</time>
      </trkpt>
      <trkpt lat="44.49224" lon="4.82406">
        <ele>389.922424</ele>
        <time>2016-08-29T08:01:03Z</time>
      </trkpt>
      <trkpt lat="44.49218" lon="4.82404">
        <ele>389.788391</ele>
        <time>2016-08-29T08:01:04Z</time>
      </trkpt>
      <trkpt lat="44.49188" lon="4.82399">
        <ele>389.157043</ele>
        <time>2016-08-29T08:01:09Z</time>
      </trkpt>
      <trkpt lat="44.49181" lon="4.82399">
        <ele>388.978668</ele>
        <time>2016-08-29T08:01:10Z</time>
      </trkpt>
      <trkpt lat="44.49174" lon="4.824">
        <ele>388.740723</ele>
        <time>2016-08-29T08:01:11Z</time>
      </trkpt>
      <trkpt lat="44.49168" lon="4.82403">
        <ele>388.387726</ele>
        <time>2016-08-29T08:01:12Z</time>
      </trkpt>
      <trkpt lat="44.49162" lon="4.82407">
        <ele>388.027679</ele>
        <time>2016-08-29T08:01:13Z</time>
      </trkpt>
      <trkpt lat="44.4911" lon="4.82448">
        <ele>384.849335</ele>
        <time>2016-08-29T08:01:21Z</time>
      </trkpt>
      <trkpt lat="44.4909" lon="4.82462">
        <ele>383.18576</ele>
        <time>2016-08-29T08:01:24Z</time>
      </trkpt>
      <trkpt lat="44.49078" lon="4.82472">
        <ele>382.493103</ele>
        <time>2016-08-29T08:01:26Z</time>
      </trkpt>
      <trkpt lat="44.49064" lon="4.82481">
        <ele>381.901245</ele>
        <time>2016-08-29T08:01:28Z</time>
      </trkpt>
      <trkpt lat="44.49059" lon="4.82486">
        <ele>381.578217</ele>
        <time>2016-08-29T08:01:29Z</time>
      </trkpt>
      <trkpt lat="44.49053" lon="4.82493">
        <ele>381.211334</ele>
        <time>2016-08-29T08:01:30Z</time>
      </trkpt>
      <trkpt lat="44.49048" lon="4.825">
        <ele>380.820526</ele>
        <time>2016-08-29T08:01:31Z</time>
      </trkpt>
      <trkpt lat="44.49044" lon="4.82508">
        <ele>380.406708</ele>
        <time>2016-08-29T08:01:32Z</time>
      </trkpt>
      <trkpt lat="44.49039" lon="4.82516">
        <ele>379.923828</ele>
        <time>2016-08-29T08:01:33Z</time>
      </trkpt>
      <trkpt lat="44.49035" lon="4.82523">
        <ele>379.448761</ele>
        <time>2016-08-29T08:01:34Z</time>
      </trkpt>
      <trkpt lat="44.49012" lon="4.82559">
        <ele>377.209991</ele>
        <time>2016-08-29T08:01:39Z</time>
      </trkpt>
      <trkpt lat="44.49005" lon="4.82574">
        <ele>376.36499</ele>
        <time>2016-08-29T08:01:41Z</time>
      </trkpt>
      <trkpt lat="44.48992" lon="4.82611">
        <ele>374.350433</ele>
        <time>2016-08-29T08:01:46Z</time>
      </trkpt>
      <trkpt lat="44.48991" lon="4.82619">
        <ele>373.870331</ele>
        <time>2016-08-29T08:01:47Z</time>
      </trkpt>
      <trkpt lat="44.48991" lon="4.82628">
        <ele>373.436432</ele>
        <time>2016-08-29T08:01:48Z</time>
      </trkpt>
      <trkpt lat="44.48991" lon="4.82636">
        <ele>373.112946</ele>
        <time>2016-08-29T08:01:49Z</time>
      </trkpt>
      <trkpt lat="44.48992" lon="4.82642">
        <ele>373.368591</ele>
        <time>2016-08-29T08:01:50Z</time>
      </trkpt>
      <trkpt lat="44.48992" lon="4.82648">
        <ele>373.787567</ele>
        <time>2016-08-29T08:01:51Z</time>
      </trkpt>
      <trkpt lat="44.48993" lon="4.82653">
        <ele>374.169739</ele>
        <time>2016-08-29T08:01:52Z</time>
      </trkpt>
      <trkpt lat="44.49015" lon="4.8269">
        <ele>376.694672</ele>
        <time>2016-08-29T08:02:03Z</time>
      </trkpt>
      <trkpt lat="44.49063" lon="4.82713">
        <ele>378.918457</ele>
        <time>2016-08-29T08:02:15Z</time>
      </trkpt>
      <trkpt lat="44.49119" lon="4.82733">
        <ele>382.6521</ele>
        <time>2016-08-29T08:02:29Z</time>
      </trkpt>
      <trkpt lat="44.49164" lon="4.82742">
        <ele>385.324036</ele>
        <time>2016-08-29T08:02:41Z</time>
      </trkpt>
      <trkpt lat="44.49216" lon="4.82744">
        <ele>385.636261</ele>
        <time>2016-08-29T08:02:52Z</time>
      </trkpt>
      <trkpt lat="44.49247" lon="4.82747">
        <ele>387.061249</ele>
        <time>2016-08-29T08:03:00Z</time>
      </trkpt>
      <trkpt lat="44.49291" lon="4.82747">
        <ele>388.617157</ele>
        <time>2016-08-29T08:03:12Z</time>
      </trkpt>
      <trkpt lat="44.49341" lon="4.82765">
        <ele>389.845001</ele>
        <time>2016-08-29T08:03:27Z</time>
      </trkpt>
      <trkpt lat="44.49369" lon="4.82798">
        <ele>390.429108</ele>
        <time>2016-08-29T08:03:38Z</time>
      </trkpt>
      <trkpt lat="44.49374" lon="4.8281">
        <ele>390.76712</ele>
        <time>2016-08-29T08:03:41Z</time>
      </trkpt>
      <trkpt lat="44.494" lon="4.82871">
        <ele>393.414764</ele>
        <time>2016-08-29T08:03:57Z</time>
      </trkpt>
      <trkpt lat="44.49418" lon="4.82926">
        <ele>395.309998</ele>
        <time>2016-08-29T08:04:11Z</time>
      </trkpt>
      <trkpt lat="44.49441" lon="4.82953">
        <ele>396.532501</ele>
        <time>2016-08-29T08:04:23Z</time>
      </trkpt>
      <trkpt lat="44.49479" lon="4.82966">
        <ele>399.049988</ele>
        <time>2016-08-29T08:04:35Z</time>
      </trkpt>
      <trkpt lat="44.49513" lon="4.82998">
        <ele>400.589996</ele>
        <time>2016-08-29T08:04:48Z</time>
      </trkpt>
      <trkpt lat="44.49553" lon="4.83043">
        <ele>401.709991</ele>
        <time>2016-08-29T08:05:01Z</time>
      </trkpt>
      <trkpt lat="44.49573" lon="4.83056">
        <ele>402.254303</ele>
        <time>2016-08-29T08:05:09Z</time>
      </trkpt>
      <trkpt lat="44.49573" lon="4.83057">
        <ele>402.250854</ele>
        <time>2016-08-29T08:05:10Z</time>
      </trkpt>
      <trkpt lat="44.49572" lon="4.83059">
        <ele>402.216125</ele>
        <time>2016-08-29T08:05:11Z</time>
      </trkpt>
      <trkpt lat="44.49571" lon="4.83062">
        <ele>402.173767</ele>
        <time>2016-08-29T08:05:12Z</time>
      </trkpt>
      <trkpt lat="44.4957" lon="4.83064">
        <ele>402.137695</ele>
        <time>2016-08-29T08:05:13Z</time>
      </trkpt>
      <trkpt lat="44.49566" lon="4.83073">
        <ele>401.997498</ele>
        <time>2016-08-29T08:05:17Z</time>
      </trkpt>
      <trkpt lat="44.49565" lon="4.83076">
        <ele>401.984985</ele>
        <time>2016-08-29T08:05:18Z</time>
      </trkpt>
      <trkpt lat="44.49563" lon="4.8308">
        <ele>401.957489</ele>
        <time>2016-08-29T08:05:19Z</time>
      </trkpt>
      <trkpt lat="44.4955" lon="4.83122">
        <ele>401.667511</ele>
        <time>2016-08-29T08:05:32Z</time>
      </trkpt>
      <trkpt lat="44.49531" lon="4.83172">
        <ele>401.074249</ele>
        <time>2016-08-29T08:05:46Z</time>
      </trkpt>
      <trkpt lat="44.49515" lon="4.83219">
        <ele>399.088562</ele>
        <time>2016-08-29T08:05:59Z</time>
      </trkpt>
      <trkpt lat="44.49512" lon="4.83232">
        <ele>398.624176</ele>
        <time>2016-08-29T08:06:14Z</time>
      </trkpt>
      <trkpt lat="44.49512" lon="4.83233">
        <ele>398.574432</ele>
        <time>2016-08-29T08:06:27Z</time>
      </trkpt>
      <trkpt lat="44.4951" lon="4.83235">
        <ele>398.443268</ele>
        <time>2016-08-29T08:06:32Z</time>
      </trkpt>
      <trkpt lat="44.49508" lon="4.83238">
        <ele>398.235504</ele>
        <time>2016-08-29T08:06:34Z</time>
      </trkpt>
      <trkpt lat="44.49506" lon="4.8324">
        <ele>398.090942</ele>
        <time>2016-08-29T08:06:35Z</time>
      </trkpt>
      <trkpt lat="44.49503" lon="4.83242">
        <ele>397.953827</ele>
        <time>2016-08-29T08:06:36Z</time>
      </trkpt>
      <trkpt lat="44.49501" lon="4.83245">
        <ele>397.776031</ele>
        <time>2016-08-29T08:06:37Z</time>
      </trkpt>
      <trkpt lat="44.49498" lon="4.83249">
        <ele>397.585724</ele>
        <time>2016-08-29T08:06:38Z</time>
      </trkpt>
      <trkpt lat="44.49482" lon="4.83275">
        <ele>396.494202</ele>
        <time>2016-08-29T08:06:46Z</time>
      </trkpt>
      <trkpt lat="44.49459" lon="4.83308">
        <ele>395.152496</ele>
        <time>2016-08-29T08:06:56Z</time>
      </trkpt>
      <trkpt lat="44.49432" lon="4.83358">
        <ele>393.333221</ele>
        <time>2016-08-29T08:07:07Z</time>
      </trkpt>
      <trkpt lat="44.49407" lon="4.83401">
        <ele>392.697723</ele>
        <time>2016-08-29T08:07:20Z</time>
      </trkpt>
      <trkpt lat="44.49403" lon="4.83414">
        <ele>392.52356</ele>
        <time>2016-08-29T08:07:32Z</time>
      </trkpt>
      <trkpt lat="44.49404" lon="4.83413">
        <ele>392.563202</ele>
        <time>2016-08-29T08:07:43Z</time>
      </trkpt>
      <trkpt lat="44.49401" lon="4.83417">
        <ele>392.4664</ele>
        <time>2016-08-29T08:08:00Z</time>
      </trkpt>
      <trkpt lat="44.49406" lon="4.83412">
        <ele>392.601532</ele>
        <time>2016-08-29T08:08:21Z</time>
      </trkpt>
      <trkpt lat="44.49404" lon="4.83415">
        <ele>392.559753</ele>
        <time>2016-08-29T08:08:39Z</time>
      </trkpt>
      <trkpt lat="44.49402" lon="4.83416">
        <ele>392.495148</ele>
        <time>2016-08-29T08:08:54Z</time>
      </trkpt>
      <trkpt lat="44.49392" lon="4.83428">
        <ele>392.122803</ele>
        <time>2016-08-29T08:09:04Z</time>
      </trkpt>
      <trkpt lat="44.4939" lon="4.83432">
        <ele>392.014893</ele>
        <time>2016-08-29T08:09:13Z</time>
      </trkpt>
      <trkpt lat="44.49387" lon="4.83437">
        <ele>391.871552</ele>
        <time>2016-08-29T08:09:15Z</time>
      </trkpt>
      <trkpt lat="44.49386" lon="4.83439">
        <ele>391.797241</ele>
        <time>2016-08-29T08:09:16Z</time>
      </trkpt>
      <trkpt lat="44.49384" lon="4.83441">
        <ele>391.734131</ele>
        <time>2016-08-29T08:09:17Z</time>
      </trkpt>
      <trkpt lat="44.49383" lon="4.83442">
        <ele>391.673248</ele>
        <time>2016-08-29T08:09:18Z</time>
      </trkpt>
      <trkpt lat="44.49381" lon="4.83444">
        <ele>391.569183</ele>
        <time>2016-08-29T08:09:31Z</time>
      </trkpt>
      <trkpt lat="44.4938" lon="4.83446">
        <ele>391.525269</ele>
        <time>2016-08-29T08:09:36Z</time>
      </trkpt>
      <trkpt lat="44.49379" lon="4.83448">
        <ele>391.45932</ele>
        <time>2016-08-29T08:09:37Z</time>
      </trkpt>
      <trkpt lat="44.49378" lon="4.8345">
        <ele>391.376862</ele>
        <time>2016-08-29T08:09:38Z</time>
      </trkpt>
      <trkpt lat="44.49376" lon="4.83452">
        <ele>391.297485</ele>
        <time>2016-08-29T08:09:39Z</time>
      </trkpt>
      <trkpt lat="44.49375" lon="4.83454">
        <ele>391.226257</ele>
        <time>2016-08-29T08:09:40Z</time>
      </trkpt>
      <trkpt lat="44.49373" lon="4.83457">
        <ele>391.153748</ele>
        <time>2016-08-29T08:09:41Z</time>
      </trkpt>
      <trkpt lat="44.49372" lon="4.8346">
        <ele>391.078735</ele>
        <time>2016-08-29T08:09:42Z</time>
      </trkpt>
      <trkpt lat="44.49371" lon="4.83463">
        <ele>391.001251</ele>
        <time>2016-08-29T08:09:43Z</time>
      </trkpt>
      <trkpt lat="44.4937" lon="4.83467">
        <ele>390.922516</ele>
        <time>2016-08-29T08:09:44Z</time>
      </trkpt>
      <trkpt lat="44.49368" lon="4.83469">
        <ele>390.829987</ele>
        <time>2016-08-29T08:09:45Z</time>
      </trkpt>
      <trkpt lat="44.49366" lon="4.83473">
        <ele>390.730011</ele>
        <time>2016-08-29T08:09:46Z</time>
      </trkpt>
      <trkpt lat="44.49364" lon="4.83475">
        <ele>390.628815</ele>
        <time>2016-08-29T08:09:47Z</time>
      </trkpt>
      <trkpt lat="44.49363" lon="4.83478">
        <ele>390.54425</ele>
        <time>2016-08-29T08:09:48Z</time>
      </trkpt>
      <trkpt lat="44.49362" lon="4.83481">
        <ele>390.46051</ele>
        <time>2016-08-29T08:09:49Z</time>
      </trkpt>
      <trkpt lat="44.49361" lon="4.83483">
        <ele>390.381683</ele>
        <time>2016-08-29T08:09:50Z</time>
      </trkpt>
      <trkpt lat="44.49359" lon="4.83485">
        <ele>390.297424</ele>
        <time>2016-08-29T08:09:51Z</time>
      </trkpt>
      <trkpt lat="44.49358" lon="4.83488">
        <ele>390.195892</ele>
        <time>2016-08-29T08:09:52Z</time>
      </trkpt>
      <trkpt lat="44.49356" lon="4.83491">
        <ele>390.068481</ele>
        <time>2016-08-29T08:09:53Z</time>
      </trkpt>
      <trkpt lat="44.4933" lon="4.83532">
        <ele>388</ele>
        <time>2016-08-29T08:10:05Z</time>
      </trkpt>
      <trkpt lat="44.49312" lon="4.83562">
        <ele>387.432465</ele>
        <time>2016-08-29T08:10:15Z</time>
      </trkpt>
      <trkpt lat="44.49295" lon="4.83593">
        <ele>386.504425</ele>
        <time>2016-08-29T08:10:26Z</time>
      </trkpt>
      <trkpt lat="44.49285" lon="4.83606">
        <ele>386.472839</ele>
        <time>2016-08-29T08:10:32Z</time>
      </trkpt>
      <trkpt lat="44.49282" lon="4.83605">
        <ele>386.337494</ele>
        <time>2016-08-29T08:10:33Z</time>
      </trkpt>
      <trkpt lat="44.49275" lon="4.83602">
        <ele>385.897491</ele>
        <time>2016-08-29T08:10:35Z</time>
      </trkpt>
      <trkpt lat="44.49265" lon="4.836">
        <ele>385.442505</ele>
        <time>2016-08-29T08:10:37Z</time>
      </trkpt>
      <trkpt lat="44.49251" lon="4.83597">
        <ele>384.705017</ele>
        <time>2016-08-29T08:10:40Z</time>
      </trkpt>
      <trkpt lat="44.49246" lon="4.83597">
        <ele>384.484985</ele>
        <time>2016-08-29T08:10:41Z</time>
      </trkpt>
      <trkpt lat="44.49181" lon="4.83619">
        <ele>384.725006</ele>
        <time>2016-08-29T08:10:54Z</time>
      </trkpt>
      <trkpt lat="44.49152" lon="4.8363">
        <ele>384.092499</ele>
        <time>2016-08-29T08:10:59Z</time>
      </trkpt>
      <trkpt lat="44.49146" lon="4.83631">
        <ele>383.948059</ele>
        <time>2016-08-29T08:11:00Z</time>
      </trkpt>
      <trkpt lat="44.4914" lon="4.83631">
        <ele>383.777466</ele>
        <time>2016-08-29T08:11:01Z</time>
      </trkpt>
      <trkpt lat="44.49134" lon="4.83631">
        <ele>383.609772</ele>
        <time>2016-08-29T08:11:02Z</time>
      </trkpt>
      <trkpt lat="44.49129" lon="4.8363">
        <ele>383.439941</ele>
        <time>2016-08-29T08:11:03Z</time>
      </trkpt>
      <trkpt lat="44.49123" lon="4.83629">
        <ele>383.262695</ele>
        <time>2016-08-29T08:11:04Z</time>
      </trkpt>
      <trkpt lat="44.49102" lon="4.83621">
        <ele>382.529388</ele>
        <time>2016-08-29T08:11:08Z</time>
      </trkpt>
      <trkpt lat="44.49096" lon="4.83618">
        <ele>382.230927</ele>
        <time>2016-08-29T08:11:09Z</time>
      </trkpt>
      <trkpt lat="44.49091" lon="4.83614">
        <ele>381.891235</ele>
        <time>2016-08-29T08:11:10Z</time>
      </trkpt>
      <trkpt lat="44.49015" lon="4.83566">
        <ele>379.014313</ele>
        <time>2016-08-29T08:11:23Z</time>
      </trkpt>
      <trkpt lat="44.49003" lon="4.83557">
        <ele>378.620056</ele>
        <time>2016-08-29T08:11:25Z</time>
      </trkpt>
      <trkpt lat="44.48927" lon="4.83505">
        <ele>374.186768</ele>
        <time>2016-08-29T08:11:37Z</time>
      </trkpt>
      <trkpt lat="44.48915" lon="4.83498">
        <ele>373.939362</ele>
        <time>2016-08-29T08:11:39Z</time>
      </trkpt>
      <trkpt lat="44.48833" lon="4.83467">
        <ele>371.572601</ele>
        <time>2016-08-29T08:11:52Z</time>
      </trkpt>
      <trkpt lat="44.48821" lon="4.83463">
        <ele>371.263947</ele>
        <time>2016-08-29T08:11:54Z</time>
      </trkpt>
      <trkpt lat="44.48815" lon="4.83462">
        <ele>371.132507</ele>
        <time>2016-08-29T08:11:55Z</time>
      </trkpt>
      <trkpt lat="44.48781" lon="4.83462">
        <ele>370.798737</ele>
        <time>2016-08-29T08:12:01Z</time>
      </trkpt>
      <trkpt lat="44.48776" lon="4.83461">
        <ele>370.761261</ele>
        <time>2016-08-29T08:12:02Z</time>
      </trkpt>
      <trkpt lat="44.48751" lon="4.83456">
        <ele>370.573761</ele>
        <time>2016-08-29T08:12:07Z</time>
      </trkpt>
      <trkpt lat="44.48746" lon="4.83456">
        <ele>370.515839</ele>
        <time>2016-08-29T08:12:08Z</time>
      </trkpt>
      <trkpt lat="44.48727" lon="4.83456">
        <ele>369.12735</ele>
        <time>2016-08-29T08:12:12Z</time>
      </trkpt>
      <trkpt lat="44.48696" lon="4.83453">
        <ele>367.27597</ele>
        <time>2016-08-29T08:12:18Z</time>
      </trkpt>
      <trkpt lat="44.4869" lon="4.83454">
        <ele>367.536133</ele>
        <time>2016-08-29T08:12:19Z</time>
      </trkpt>
      <trkpt lat="44.4868" lon="4.83458">
        <ele>368.090485</ele>
        <time>2016-08-29T08:12:21Z</time>
      </trkpt>
      <trkpt lat="44.48609" lon="4.83492">
        <ele>364.767487</ele>
        <time>2016-08-29T08:12:35Z</time>
      </trkpt>
      <trkpt lat="44.48598" lon="4.83493">
        <ele>364.121246</ele>
        <time>2016-08-29T08:12:37Z</time>
      </trkpt>
      <trkpt lat="44.48593" lon="4.83493">
        <ele>363.908752</ele>
        <time>2016-08-29T08:12:38Z</time>
      </trkpt>
      <trkpt lat="44.48521" lon="4.83484">
        <ele>361.100403</ele>
        <time>2016-08-29T08:12:50Z</time>
      </trkpt>
      <trkpt lat="44.48471" lon="4.83472">
        <ele>359.481323</ele>
        <time>2016-08-29T08:12:57Z</time>
      </trkpt>
      <trkpt lat="44.48464" lon="4.83471">
        <ele>359.248108</ele>
        <time>2016-08-29T08:12:58Z</time>
      </trkpt>
      <trkpt lat="44.48458" lon="4.83472">
        <ele>358.970215</ele>
        <time>2016-08-29T08:12:59Z</time>
      </trkpt>
      <trkpt lat="44.48445" lon="4.83474">
        <ele>358.485718</ele>
        <time>2016-08-29T08:13:01Z</time>
      </trkpt>
      <trkpt lat="44.48439" lon="4.83474">
        <ele>358.26236</ele>
        <time>2016-08-29T08:13:02Z</time>
      </trkpt>
      <trkpt lat="44.48433" lon="4.83473">
        <ele>358.048676</ele>
        <time>2016-08-29T08:13:03Z</time>
      </trkpt>
      <trkpt lat="44.484" lon="4.83462">
        <ele>357.351624</ele>
        <time>2016-08-29T08:13:09Z</time>
      </trkpt>
      <trkpt lat="44.48376" lon="4.83456">
        <ele>356.638763</ele>
        <time>2016-08-29T08:13:13Z</time>
      </trkpt>
      <trkpt lat="44.4837" lon="4.83453">
        <ele>356.383575</ele>
        <time>2016-08-29T08:13:14Z</time>
      </trkpt>
      <trkpt lat="44.48337" lon="4.83436">
        <ele>354.664032</ele>
        <time>2016-08-29T08:13:20Z</time>
      </trkpt>
      <trkpt lat="44.48332" lon="4.83434">
        <ele>354.54483</ele>
        <time>2016-08-29T08:13:21Z</time>
      </trkpt>
      <trkpt lat="44.48326" lon="4.83432">
        <ele>354.390503</ele>
        <time>2016-08-29T08:13:22Z</time>
      </trkpt>
      <trkpt lat="44.48321" lon="4.83429">
        <ele>354.227997</ele>
        <time>2016-08-29T08:13:23Z</time>
      </trkpt>
      <trkpt lat="44.48315" lon="4.83426">
        <ele>354.088776</ele>
        <time>2016-08-29T08:13:24Z</time>
      </trkpt>
      <trkpt lat="44.48291" lon="4.8342">
        <ele>353.649445</ele>
        <time>2016-08-29T08:13:28Z</time>
      </trkpt>
      <trkpt lat="44.48286" lon="4.83421">
        <ele>353.247833</ele>
        <time>2016-08-29T08:13:29Z</time>
      </trkpt>
      <trkpt lat="44.48281" lon="4.83423">
        <ele>352.903137</ele>
        <time>2016-08-29T08:13:30Z</time>
      </trkpt>
      <trkpt lat="44.48278" lon="4.83427">
        <ele>352.820221</ele>
        <time>2016-08-29T08:13:31Z</time>
      </trkpt>
      <trkpt lat="44.48274" lon="4.83431">
        <ele>352.756042</ele>
        <time>2016-08-29T08:13:32Z</time>
      </trkpt>
      <trkpt lat="44.48263" lon="4.83443">
        <ele>352.48996</ele>
        <time>2016-08-29T08:13:35Z</time>
      </trkpt>
      <trkpt lat="44.48256" lon="4.83452">
        <ele>352.269714</ele>
        <time>2016-08-29T08:13:37Z</time>
      </trkpt>
      <trkpt lat="44.48254" lon="4.83457">
        <ele>352.250946</ele>
        <time>2016-08-29T08:13:38Z</time>
      </trkpt>
      <trkpt lat="44.48251" lon="4.83463">
        <ele>352.257416</ele>
        <time>2016-08-29T08:13:39Z</time>
      </trkpt>
      <trkpt lat="44.4825" lon="4.83471">
        <ele>352.407196</ele>
        <time>2016-08-29T08:13:40Z</time>
      </trkpt>
      <trkpt lat="44.48251" lon="4.83478">
        <ele>352.747162</ele>
        <time>2016-08-29T08:13:41Z</time>
      </trkpt>
      <trkpt lat="44.48253" lon="4.83486">
        <ele>353.160004</ele>
        <time>2016-08-29T08:13:42Z</time>
      </trkpt>
      <trkpt lat="44.48255" lon="4.83494">
        <ele>353.609985</ele>
        <time>2016-08-29T08:13:43Z</time>
      </trkpt>
      <trkpt lat="44.48257" lon="4.83501">
        <ele>354.05249</ele>
        <time>2016-08-29T08:13:44Z</time>
      </trkpt>
      <trkpt lat="44.48274" lon="4.83578">
        <ele>357.597015</ele>
        <time>2016-08-29T08:13:56Z</time>
      </trkpt>
      <trkpt lat="44.4828" lon="4.83638">
        <ele>358.528259</ele>
        <time>2016-08-29T08:14:06Z</time>
      </trkpt>
      <trkpt lat="44.4828" lon="4.83644">
        <ele>358.578918</ele>
        <time>2016-08-29T08:14:07Z</time>
      </trkpt>
      <trkpt lat="44.48281" lon="4.8365">
        <ele>358.634644</ele>
        <time>2016-08-29T08:14:08Z</time>
      </trkpt>
      <trkpt lat="44.48287" lon="4.83688">
        <ele>358.697815</ele>
        <time>2016-08-29T08:14:14Z</time>
      </trkpt>
      <trkpt lat="44.48287" lon="4.83701">
        <ele>358.521515</ele>
        <time>2016-08-29T08:14:16Z</time>
      </trkpt>
      <trkpt lat="44.4828" lon="4.83754">
        <ele>357.936768</ele>
        <time>2016-08-29T08:14:24Z</time>
      </trkpt>
      <trkpt lat="44.4828" lon="4.83761">
        <ele>357.912811</ele>
        <time>2016-08-29T08:14:25Z</time>
      </trkpt>
      <trkpt lat="44.48281" lon="4.83774">
        <ele>357.887878</ele>
        <time>2016-08-29T08:14:27Z</time>
      </trkpt>
      <trkpt lat="44.48283" lon="4.83779">
        <ele>357.895569</ele>
        <time>2016-08-29T08:14:28Z</time>
      </trkpt>
      <trkpt lat="44.48285" lon="4.83785">
        <ele>357.921722</ele>
        <time>2016-08-29T08:14:29Z</time>
      </trkpt>
      <trkpt lat="44.48291" lon="4.83796">
        <ele>358.029541</ele>
        <time>2016-08-29T08:14:31Z</time>
      </trkpt>
      <trkpt lat="44.483" lon="4.83811">
        <ele>358.252502</ele>
        <time>2016-08-29T08:14:34Z</time>
      </trkpt>
      <trkpt lat="44.48303" lon="4.83817">
        <ele>358.299988</ele>
        <time>2016-08-29T08:14:35Z</time>
      </trkpt>
      <trkpt lat="44.48304" lon="4.83823">
        <ele>358.327515</ele>
        <time>2016-08-29T08:14:36Z</time>
      </trkpt>
      <trkpt lat="44.48303" lon="4.8383">
        <ele>358.32251</ele>
        <time>2016-08-29T08:14:37Z</time>
      </trkpt>
      <trkpt lat="44.48302" lon="4.83837">
        <ele>358.304993</ele>
        <time>2016-08-29T08:14:38Z</time>
      </trkpt>
      <trkpt lat="44.48301" lon="4.83843">
        <ele>358.287506</ele>
        <time>2016-08-29T08:14:39Z</time>
      </trkpt>
      <trkpt lat="44.483" lon="4.83905">
        <ele>358.290009</ele>
        <time>2016-08-29T08:14:51Z</time>
      </trkpt>
      <trkpt lat="44.48298" lon="4.83921">
        <ele>358.252502</ele>
        <time>2016-08-29T08:14:55Z</time>
      </trkpt>
      <trkpt lat="44.48296" lon="4.83924">
        <ele>358.212494</ele>
        <time>2016-08-29T08:14:56Z</time>
      </trkpt>
      <trkpt lat="44.48294" lon="4.83927">
        <ele>358.176178</ele>
        <time>2016-08-29T08:14:57Z</time>
      </trkpt>
      <trkpt lat="44.48293" lon="4.83931">
        <ele>358.156952</ele>
        <time>2016-08-29T08:14:58Z</time>
      </trkpt>
      <trkpt lat="44.48292" lon="4.83935">
        <ele>358.143738</ele>
        <time>2016-08-29T08:14:59Z</time>
      </trkpt>
      <trkpt lat="44.48292" lon="4.8394">
        <ele>358.152039</ele>
        <time>2016-08-29T08:15:00Z</time>
      </trkpt>
      <trkpt lat="44.48292" lon="4.83943">
        <ele>358.156494</ele>
        <time>2016-08-29T08:15:01Z</time>
      </trkpt>
      <trkpt lat="44.48291" lon="4.83948">
        <ele>358.161713</ele>
        <time>2016-08-29T08:15:02Z</time>
      </trkpt>
      <trkpt lat="44.4829" lon="4.83953">
        <ele>358.142761</ele>
        <time>2016-08-29T08:15:03Z</time>
      </trkpt>
      <trkpt lat="44.48289" lon="4.83958">
        <ele>358.116455</ele>
        <time>2016-08-29T08:15:04Z</time>
      </trkpt>
      <trkpt lat="44.48288" lon="4.83962">
        <ele>358.090118</ele>
        <time>2016-08-29T08:15:05Z</time>
      </trkpt>
      <trkpt lat="44.48278" lon="4.84013">
        <ele>357.699554</ele>
        <time>2016-08-29T08:15:17Z</time>
      </trkpt>
      <trkpt lat="44.48257" lon="4.84074">
        <ele>354.110016</ele>
        <time>2016-08-29T08:15:29Z</time>
      </trkpt>
      <trkpt lat="44.48255" lon="4.84082">
        <ele>353.519989</ele>
        <time>2016-08-29T08:15:30Z</time>
      </trkpt>
      <trkpt lat="44.48251" lon="4.84111">
        <ele>351.339996</ele>
        <time>2016-08-29T08:15:34Z</time>
      </trkpt>
      <trkpt lat="44.48249" lon="4.84118">
        <ele>350.632721</ele>
        <time>2016-08-29T08:15:35Z</time>
      </trkpt>
      <trkpt lat="44.48246" lon="4.84124">
        <ele>349.940338</ele>
        <time>2016-08-29T08:15:36Z</time>
      </trkpt>
      <trkpt lat="44.48242" lon="4.84128">
        <ele>349.339417</ele>
        <time>2016-08-29T08:15:37Z</time>
      </trkpt>
      <trkpt lat="44.48237" lon="4.84131">
        <ele>348.791962</ele>
        <time>2016-08-29T08:15:38Z</time>
      </trkpt>
      <trkpt lat="44.48231" lon="4.84132">
        <ele>348.366364</ele>
        <time>2016-08-29T08:15:39Z</time>
      </trkpt>
      <trkpt lat="44.48225" lon="4.84134">
        <ele>347.973236</ele>
        <time>2016-08-29T08:15:40Z</time>
      </trkpt>
      <trkpt lat="44.48213" lon="4.84135">
        <ele>347.263275</ele>
        <time>2016-08-29T08:15:42Z</time>
      </trkpt>
      <trkpt lat="44.48179" lon="4.84139">
        <ele>345.500763</ele>
        <time>2016-08-29T08:15:47Z</time>
      </trkpt>
      <trkpt lat="44.48151" lon="4.84133">
        <ele>344.222992</ele>
        <time>2016-08-29T08:15:51Z</time>
      </trkpt>
      <trkpt lat="44.48133" lon="4.84124">
        <ele>342.424988</ele>
        <time>2016-08-29T08:15:54Z</time>
      </trkpt>
      <trkpt lat="44.48115" lon="4.84115">
        <ele>340.399994</ele>
        <time>2016-08-29T08:15:57Z</time>
      </trkpt>
      <trkpt lat="44.48079" lon="4.8409">
        <ele>337.067505</ele>
        <time>2016-08-29T08:16:03Z</time>
      </trkpt>
      <trkpt lat="44.48074" lon="4.84084">
        <ele>336.807495</ele>
        <time>2016-08-29T08:16:04Z</time>
      </trkpt>
      <trkpt lat="44.48053" lon="4.84053">
        <ele>335.896088</ele>
        <time>2016-08-29T08:16:09Z</time>
      </trkpt>
      <trkpt lat="44.4805" lon="4.84048">
        <ele>335.819305</ele>
        <time>2016-08-29T08:16:10Z</time>
      </trkpt>
      <trkpt lat="44.48031" lon="4.84023">
        <ele>335.925934</ele>
        <time>2016-08-29T08:16:15Z</time>
      </trkpt>
      <trkpt lat="44.48027" lon="4.84019">
        <ele>335.788513</ele>
        <time>2016-08-29T08:16:16Z</time>
      </trkpt>
      <trkpt lat="44.48017" lon="4.84014">
        <ele>335.290924</ele>
        <time>2016-08-29T08:16:18Z</time>
      </trkpt>
      <trkpt lat="44.47996" lon="4.84006">
        <ele>334.162567</ele>
        <time>2016-08-29T08:16:22Z</time>
      </trkpt>
      <trkpt lat="44.47977" lon="4.84004">
        <ele>332.828186</ele>
        <time>2016-08-29T08:16:25Z</time>
      </trkpt>
      <trkpt lat="44.47966" lon="4.84003">
        <ele>331.88501</ele>
        <time>2016-08-29T08:16:27Z</time>
      </trkpt>
      <trkpt lat="44.47936" lon="4.84003">
        <ele>329.1875</ele>
        <time>2016-08-29T08:16:32Z</time>
      </trkpt>
      <trkpt lat="44.479" lon="4.84007">
        <ele>326.238892</ele>
        <time>2016-08-29T08:16:38Z</time>
      </trkpt>
      <trkpt lat="44.47895" lon="4.84007">
        <ele>325.905853</ele>
        <time>2016-08-29T08:16:39Z</time>
      </trkpt>
      <trkpt lat="44.47884" lon="4.84008">
        <ele>325.303406</ele>
        <time>2016-08-29T08:16:41Z</time>
      </trkpt>
      <trkpt lat="44.47856" lon="4.84007">
        <ele>322.9375</ele>
        <time>2016-08-29T08:16:48Z</time>
      </trkpt>
      <trkpt lat="44.47839" lon="4.84012">
        <ele>320.976257</ele>
        <time>2016-08-29T08:16:52Z</time>
      </trkpt>
      <trkpt lat="44.47835" lon="4.84013">
        <ele>320.480011</ele>
        <time>2016-08-29T08:16:53Z</time>
      </trkpt>
      <trkpt lat="44.47829" lon="4.84013">
        <ele>320.128754</ele>
        <time>2016-08-29T08:16:54Z</time>
      </trkpt>
      <trkpt lat="44.47824" lon="4.84012">
        <ele>319.804993</ele>
        <time>2016-08-29T08:16:55Z</time>
      </trkpt>
      <trkpt lat="44.47818" lon="4.84011">
        <ele>319.512512</ele>
        <time>2016-08-29T08:16:56Z</time>
      </trkpt>
      <trkpt lat="44.47772" lon="4.84004">
        <ele>317.132507</ele>
        <time>2016-08-29T08:17:05Z</time>
      </trkpt>
      <trkpt lat="44.47767" lon="4.84005">
        <ele>316.815002</ele>
        <time>2016-08-29T08:17:06Z</time>
      </trkpt>
      <trkpt lat="44.47717" lon="4.84005">
        <ele>313.537964</ele>
        <time>2016-08-29T08:17:14Z</time>
      </trkpt>
      <trkpt lat="44.47699" lon="4.84006">
        <ele>312.103668</ele>
        <time>2016-08-29T08:17:17Z</time>
      </trkpt>
      <trkpt lat="44.47685" lon="4.84005">
        <ele>311.071564</ele>
        <time>2016-08-29T08:17:19Z</time>
      </trkpt>
      <trkpt lat="44.47673" lon="4.84002">
        <ele>310.21286</ele>
        <time>2016-08-29T08:17:21Z</time>
      </trkpt>
      <trkpt lat="44.47662" lon="4.83999">
        <ele>309.757996</ele>
        <time>2016-08-29T08:17:23Z</time>
      </trkpt>
      <trkpt lat="44.47656" lon="4.83998">
        <ele>309.358795</ele>
        <time>2016-08-29T08:17:24Z</time>
      </trkpt>
      <trkpt lat="44.4765" lon="4.83998">
        <ele>308.715576</ele>
        <time>2016-08-29T08:17:25Z</time>
      </trkpt>
      <trkpt lat="44.47639" lon="4.83999">
        <ele>307.188477</ele>
        <time>2016-08-29T08:17:27Z</time>
      </trkpt>
      <trkpt lat="44.47629" lon="4.84">
        <ele>305.748901</ele>
        <time>2016-08-29T08:17:29Z</time>
      </trkpt>
      <trkpt lat="44.47624" lon="4.83999">
        <ele>305.208954</ele>
        <time>2016-08-29T08:17:30Z</time>
      </trkpt>
      <trkpt lat="44.47618" lon="4.83997">
        <ele>304.788391</ele>
        <time>2016-08-29T08:17:31Z</time>
      </trkpt>
      <trkpt lat="44.47575" lon="4.83978">
        <ele>302.206512</ele>
        <time>2016-08-29T08:17:39Z</time>
      </trkpt>
      <trkpt lat="44.47565" lon="4.83974">
        <ele>301.429413</ele>
        <time>2016-08-29T08:17:41Z</time>
      </trkpt>
      <trkpt lat="44.47514" lon="4.83943">
        <ele>301.148865</ele>
        <time>2016-08-29T08:17:53Z</time>
      </trkpt>
      <trkpt lat="44.47496" lon="4.8393">
        <ele>301.115723</ele>
        <time>2016-08-29T08:17:57Z</time>
      </trkpt>
      <trkpt lat="44.47493" lon="4.83925">
        <ele>301.741882</ele>
        <time>2016-08-29T08:17:58Z</time>
      </trkpt>
      <trkpt lat="44.47491" lon="4.83918">
        <ele>302.917908</ele>
        <time>2016-08-29T08:17:59Z</time>
      </trkpt>
      <trkpt lat="44.47489" lon="4.83912">
        <ele>303.815796</ele>
        <time>2016-08-29T08:18:00Z</time>
      </trkpt>
      <trkpt lat="44.47487" lon="4.83908">
        <ele>304.466217</ele>
        <time>2016-08-29T08:18:01Z</time>
      </trkpt>
      <trkpt lat="44.47484" lon="4.83905">
        <ele>304.698914</ele>
        <time>2016-08-29T08:18:02Z</time>
      </trkpt>
      <trkpt lat="44.4748" lon="4.83902">
        <ele>304.740417</ele>
        <time>2016-08-29T08:18:03Z</time>
      </trkpt>
      <trkpt lat="44.47477" lon="4.83899">
        <ele>304.74942</ele>
        <time>2016-08-29T08:18:04Z</time>
      </trkpt>
      <trkpt lat="44.47469" lon="4.83895">
        <ele>304.461243</ele>
        <time>2016-08-29T08:18:06Z</time>
      </trkpt>
      <trkpt lat="44.47465" lon="4.83893">
        <ele>304.250397</ele>
        <time>2016-08-29T08:18:07Z</time>
      </trkpt>
      <trkpt lat="44.47449" lon="4.83886">
        <ele>302.827728</ele>
        <time>2016-08-29T08:18:11Z</time>
      </trkpt>
      <trkpt lat="44.47444" lon="4.83885">
        <ele>302.067902</ele>
        <time>2016-08-29T08:18:12Z</time>
      </trkpt>
      <trkpt lat="44.47425" lon="4.83884">
        <ele>299.90921</ele>
        <time>2016-08-29T08:18:16Z</time>
      </trkpt>
      <trkpt lat="44.47413" lon="4.83882">
        <ele>299.170441</ele>
        <time>2016-08-29T08:18:19Z</time>
      </trkpt>
      <trkpt lat="44.47411" lon="4.8388">
        <ele>299.254242</ele>
        <time>2016-08-29T08:18:20Z</time>
      </trkpt>
      <trkpt lat="44.47408" lon="4.83876">
        <ele>299.438293</ele>
        <time>2016-08-29T08:18:21Z</time>
      </trkpt>
      <trkpt lat="44.47406" lon="4.83872">
        <ele>299.75238</ele>
        <time>2016-08-29T08:18:22Z</time>
      </trkpt>
      <trkpt lat="44.47405" lon="4.83866">
        <ele>300.197205</ele>
        <time>2016-08-29T08:18:23Z</time>
      </trkpt>
      <trkpt lat="44.47398" lon="4.83839">
        <ele>302.269958</ele>
        <time>2016-08-29T08:18:30Z</time>
      </trkpt>
      <trkpt lat="44.47374" lon="4.83816">
        <ele>303.065002</ele>
        <time>2016-08-29T08:18:40Z</time>
      </trkpt>
      <trkpt lat="44.47358" lon="4.83786">
        <ele>304.5625</ele>
        <time>2016-08-29T08:18:49Z</time>
      </trkpt>
      <trkpt lat="44.47357" lon="4.83783">
        <ele>304.76001</ele>
        <time>2016-08-29T08:18:50Z</time>
      </trkpt>
      <trkpt lat="44.47357" lon="4.8378">
        <ele>304.915009</ele>
        <time>2016-08-29T08:18:51Z</time>
      </trkpt>
      <trkpt lat="44.47357" lon="4.83777">
        <ele>305.112488</ele>
        <time>2016-08-29T08:18:52Z</time>
      </trkpt>
      <trkpt lat="44.47357" lon="4.83774">
        <ele>305.327484</ele>
        <time>2016-08-29T08:18:53Z</time>
      </trkpt>
      <trkpt lat="44.47358" lon="4.83771">
        <ele>305.527496</ele>
        <time>2016-08-29T08:18:54Z</time>
      </trkpt>
      <trkpt lat="44.47359" lon="4.83768">
        <ele>305.717499</ele>
        <time>2016-08-29T08:18:55Z</time>
      </trkpt>
      <trkpt lat="44.4736" lon="4.83766">
        <ele>305.882507</ele>
        <time>2016-08-29T08:18:56Z</time>
      </trkpt>
      <trkpt lat="44.47361" lon="4.83764">
        <ele>306.022491</ele>
        <time>2016-08-29T08:18:57Z</time>
      </trkpt>
      <trkpt lat="44.47371" lon="4.83739">
        <ele>307.15744</ele>
        <time>2016-08-29T08:19:03Z</time>
      </trkpt>
      <trkpt lat="44.47392" lon="4.83723">
        <ele>307.601013</ele>
        <time>2016-08-29T08:19:10Z</time>
      </trkpt>
      <trkpt lat="44.4742" lon="4.83666">
        <ele>308.61499</ele>
        <time>2016-08-29T08:19:22Z</time>
      </trkpt>
      <trkpt lat="44.4742" lon="4.83659">
        <ele>308.607513</ele>
        <time>2016-08-29T08:19:23Z</time>
      </trkpt>
      <trkpt lat="44.47418" lon="4.83653">
        <ele>308.567505</ele>
        <time>2016-08-29T08:19:24Z</time>
      </trkpt>
      <trkpt lat="44.47416" lon="4.83647">
        <ele>308.502502</ele>
        <time>2016-08-29T08:19:25Z</time>
      </trkpt>
      <trkpt lat="44.47414" lon="4.83642">
        <ele>308.450012</ele>
        <time>2016-08-29T08:19:26Z</time>
      </trkpt>
      <trkpt lat="44.47411" lon="4.83636">
        <ele>308.387512</ele>
        <time>2016-08-29T08:19:27Z</time>
      </trkpt>
      <trkpt lat="44.47408" lon="4.8363">
        <ele>308.184113</ele>
        <time>2016-08-29T08:19:28Z</time>
      </trkpt>
      <trkpt lat="44.47406" lon="4.83624">
        <ele>307.957245</ele>
        <time>2016-08-29T08:19:29Z</time>
      </trkpt>
      <trkpt lat="44.47405" lon="4.83618">
        <ele>307.753601</ele>
        <time>2016-08-29T08:19:30Z</time>
      </trkpt>
      <trkpt lat="44.47404" lon="4.83612">
        <ele>307.561829</ele>
        <time>2016-08-29T08:19:31Z</time>
      </trkpt>
      <trkpt lat="44.47404" lon="4.83605">
        <ele>307.372284</ele>
        <time>2016-08-29T08:19:32Z</time>
      </trkpt>
      <trkpt lat="44.47411" lon="4.83547">
        <ele>306.286255</ele>
        <time>2016-08-29T08:19:41Z</time>
      </trkpt>
      <trkpt lat="44.4742" lon="4.83522">
        <ele>306.248749</ele>
        <time>2016-08-29T08:19:45Z</time>
      </trkpt>
      <trkpt lat="44.47421" lon="4.83516">
        <ele>306.19751</ele>
        <time>2016-08-29T08:19:46Z</time>
      </trkpt>
      <trkpt lat="44.47426" lon="4.83496">
        <ele>305.714844</ele>
        <time>2016-08-29T08:19:49Z</time>
      </trkpt>
      <trkpt lat="44.47436" lon="4.83443">
        <ele>304.457092</ele>
        <time>2016-08-29T08:19:57Z</time>
      </trkpt>
      <trkpt lat="44.47439" lon="4.83425">
        <ele>306.843079</ele>
        <time>2016-08-29T08:20:00Z</time>
      </trkpt>
      <trkpt lat="44.47441" lon="4.8342">
        <ele>307.54541</ele>
        <time>2016-08-29T08:20:01Z</time>
      </trkpt>
      <trkpt lat="44.47445" lon="4.83416">
        <ele>308.193573</ele>
        <time>2016-08-29T08:20:02Z</time>
      </trkpt>
      <trkpt lat="44.47453" lon="4.83409">
        <ele>308.999451</ele>
        <time>2016-08-29T08:20:04Z</time>
      </trkpt>
      <trkpt lat="44.47476" lon="4.83394">
        <ele>310.092163</ele>
        <time>2016-08-29T08:20:10Z</time>
      </trkpt>
      <trkpt lat="44.47476" lon="4.83391">
        <ele>310.323486</ele>
        <time>2016-08-29T08:20:11Z</time>
      </trkpt>
      <trkpt lat="44.47476" lon="4.83386">
        <ele>310.648651</ele>
        <time>2016-08-29T08:20:12Z</time>
      </trkpt>
      <trkpt lat="44.47476" lon="4.83382">
        <ele>311.192047</ele>
        <time>2016-08-29T08:20:13Z</time>
      </trkpt>
      <trkpt lat="44.47475" lon="4.83377">
        <ele>311.773132</ele>
        <time>2016-08-29T08:20:14Z</time>
      </trkpt>
      <trkpt lat="44.47471" lon="4.83337">
        <ele>316.51535</ele>
        <time>2016-08-29T08:20:24Z</time>
      </trkpt>
      <trkpt lat="44.47466" lon="4.83315">
        <ele>318.474365</ele>
        <time>2016-08-29T08:20:29Z</time>
      </trkpt>
      <trkpt lat="44.47466" lon="4.8331">
        <ele>318.746063</ele>
        <time>2016-08-29T08:20:30Z</time>
      </trkpt>
      <trkpt lat="44.47466" lon="4.83306">
        <ele>318.980347</ele>
        <time>2016-08-29T08:20:31Z</time>
      </trkpt>
      <trkpt lat="44.47467" lon="4.83302">
        <ele>319.233612</ele>
        <time>2016-08-29T08:20:32Z</time>
      </trkpt>
      <trkpt lat="44.47469" lon="4.83297">
        <ele>319.477692</ele>
        <time>2016-08-29T08:20:33Z</time>
      </trkpt>
      <trkpt lat="44.47469" lon="4.83293">
        <ele>319.719177</ele>
        <time>2016-08-29T08:20:34Z</time>
      </trkpt>
      <trkpt lat="44.47474" lon="4.83264">
        <ele>321.451782</ele>
        <time>2016-08-29T08:20:41Z</time>
      </trkpt>
      <trkpt lat="44.47482" lon="4.83209">
        <ele>324.885925</ele>
        <time>2016-08-29T08:20:53Z</time>
      </trkpt>
      <trkpt lat="44.47489" lon="4.83184">
        <ele>326.75061</ele>
        <time>2016-08-29T08:21:00Z</time>
      </trkpt>
      <trkpt lat="44.4749" lon="4.83183">
        <ele>326.883698</ele>
        <time>2016-08-29T08:21:01Z</time>
      </trkpt>
      <trkpt lat="44.47491" lon="4.83181">
        <ele>327.009399</ele>
        <time>2016-08-29T08:21:02Z</time>
      </trkpt>
      <trkpt lat="44.4749" lon="4.8318">
        <ele>327.021454</ele>
        <time>2016-08-29T08:21:17Z</time>
      </trkpt>
      <trkpt lat="44.4748" lon="4.83172">
        <ele>326.963531</ele>
        <time>2016-08-29T08:21:38Z</time>
      </trkpt>
      <trkpt lat="44.47483" lon="4.83168">
        <ele>327.359222</ele>
        <time>2016-08-29T08:22:08Z</time>
      </trkpt>
      <trkpt lat="44.47484" lon="4.8317">
        <ele>327.336182</ele>
        <time>2016-08-29T08:22:27Z</time>
      </trkpt>
      <trkpt lat="44.47486" lon="4.83169">
        <ele>327.45871</ele>
        <time>2016-08-29T08:22:38Z</time>
      </trkpt>
      <trkpt lat="44.47487" lon="4.83167">
        <ele>327.668304</ele>
        <time>2016-08-29T08:23:04Z</time>
      </trkpt>
      <trkpt lat="44.47488" lon="4.83169">
        <ele>327.616943</ele>
        <time>2016-08-29T08:23:22Z</time>
      </trkpt>
      <trkpt lat="44.47489" lon="4.8317">
        <ele>327.550964</ele>
        <time>2016-08-29T08:23:51Z</time>
      </trkpt>
      <trkpt lat="44.47489" lon="4.83171">
        <ele>327.514771</ele>
        <time>2016-08-29T08:24:20Z</time>
      </trkpt>
      <trkpt lat="44.47491" lon="4.83169">
        <ele>327.784698</ele>
        <time>2016-08-29T08:24:35Z</time>
      </trkpt>
      <trkpt lat="44.47492" lon="4.83168">
        <ele>327.871582</ele>
        <time>2016-08-29T08:25:07Z</time>
      </trkpt>
      <trkpt lat="44.47492" lon="4.83168">
        <ele>327.897644</ele>
        <time>2016-08-29T08:25:35Z</time>
      </trkpt>
      <trkpt lat="44.47492" lon="4.83166">
        <ele>327.992676</ele>
        <time>2016-08-29T08:25:38Z</time>
      </trkpt>
      <trkpt lat="44.47491" lon="4.83164">
        <ele>328.076538</ele>
        <time>2016-08-29T08:25:39Z</time>
      </trkpt>
      <trkpt lat="44.47474" lon="4.83127">
        <ele>328.933258</ele>
        <time>2016-08-29T08:25:49Z</time>
      </trkpt>
      <trkpt lat="44.4745" lon="4.83066">
        <ele>329.107513</ele>
        <time>2016-08-29T08:26:03Z</time>
      </trkpt>
      <trkpt lat="44.47436" lon="4.83018">
        <ele>329.607513</ele>
        <time>2016-08-29T08:26:12Z</time>
      </trkpt>
      <trkpt lat="44.47437" lon="4.82956">
        <ele>331.522491</ele>
        <time>2016-08-29T08:26:24Z</time>
      </trkpt>
      <trkpt lat="44.4744" lon="4.82892">
        <ele>332.278168</ele>
        <time>2016-08-29T08:26:37Z</time>
      </trkpt>
      <trkpt lat="44.47443" lon="4.82823">
        <ele>331.434998</ele>
        <time>2016-08-29T08:26:50Z</time>
      </trkpt>
      <trkpt lat="44.47444" lon="4.82795">
        <ele>329.892242</ele>
        <time>2016-08-29T08:26:55Z</time>
      </trkpt>
      <trkpt lat="44.47446" lon="4.82783">
        <ele>329.24884</ele>
        <time>2016-08-29T08:26:57Z</time>
      </trkpt>
      <trkpt lat="44.47448" lon="4.82777">
        <ele>328.92926</ele>
        <time>2016-08-29T08:26:58Z</time>
      </trkpt>
      <trkpt lat="44.47456" lon="4.82756">
        <ele>327.805573</ele>
        <time>2016-08-29T08:27:01Z</time>
      </trkpt>
      <trkpt lat="44.4746" lon="4.82748">
        <ele>327.375</ele>
        <time>2016-08-29T08:27:02Z</time>
      </trkpt>
      <trkpt lat="44.47479" lon="4.82722">
        <ele>325.640015</ele>
        <time>2016-08-29T08:27:06Z</time>
      </trkpt>
      <trkpt lat="44.47507" lon="4.82692">
        <ele>323.349792</ele>
        <time>2016-08-29T08:27:11Z</time>
      </trkpt>
      <trkpt lat="44.47512" lon="4.82688">
        <ele>322.858887</ele>
        <time>2016-08-29T08:27:12Z</time>
      </trkpt>
      <trkpt lat="44.47518" lon="4.82685">
        <ele>322.451355</ele>
        <time>2016-08-29T08:27:13Z</time>
      </trkpt>
      <trkpt lat="44.47524" lon="4.82683">
        <ele>322.129425</ele>
        <time>2016-08-29T08:27:14Z</time>
      </trkpt>
      <trkpt lat="44.4756" lon="4.82674">
        <ele>321.07489</ele>
        <time>2016-08-29T08:27:20Z</time>
      </trkpt>
      <trkpt lat="44.47616" lon="4.82663">
        <ele>320.471039</ele>
        <time>2016-08-29T08:27:29Z</time>
      </trkpt>
      <trkpt lat="44.47623" lon="4.82662">
        <ele>320.246307</ele>
        <time>2016-08-29T08:27:30Z</time>
      </trkpt>
      <trkpt lat="44.4764" lon="4.8266">
        <ele>319.868195</ele>
        <time>2016-08-29T08:27:33Z</time>
      </trkpt>
      <trkpt lat="44.47645" lon="4.82659">
        <ele>319.593567</ele>
        <time>2016-08-29T08:27:34Z</time>
      </trkpt>
      <trkpt lat="44.4765" lon="4.82657">
        <ele>319.274414</ele>
        <time>2016-08-29T08:27:35Z</time>
      </trkpt>
      <trkpt lat="44.47656" lon="4.82654">
        <ele>318.841858</ele>
        <time>2016-08-29T08:27:36Z</time>
      </trkpt>
      <trkpt lat="44.47661" lon="4.8265">
        <ele>318.20874</ele>
        <time>2016-08-29T08:27:37Z</time>
      </trkpt>
      <trkpt lat="44.47666" lon="4.82645">
        <ele>317.412048</ele>
        <time>2016-08-29T08:27:38Z</time>
      </trkpt>
      <trkpt lat="44.4767" lon="4.82638">
        <ele>316.622681</ele>
        <time>2016-08-29T08:27:39Z</time>
      </trkpt>
      <trkpt lat="44.47673" lon="4.82633">
        <ele>315.92511</ele>
        <time>2016-08-29T08:27:40Z</time>
      </trkpt>
      <trkpt lat="44.4768" lon="4.8262">
        <ele>314.475983</ele>
        <time>2016-08-29T08:27:42Z</time>
      </trkpt>
      <trkpt lat="44.47731" lon="4.82553">
        <ele>309.678741</ele>
        <time>2016-08-29T08:27:54Z</time>
      </trkpt>
      <trkpt lat="44.47736" lon="4.8255">
        <ele>309.552734</ele>
        <time>2016-08-29T08:27:55Z</time>
      </trkpt>
      <trkpt lat="44.47759" lon="4.82539">
        <ele>309.492676</ele>
        <time>2016-08-29T08:27:59Z</time>
      </trkpt>
      <trkpt lat="44.47771" lon="4.82532">
        <ele>309.517487</ele>
        <time>2016-08-29T08:28:01Z</time>
      </trkpt>
      <trkpt lat="44.47777" lon="4.82529">
        <ele>309.561462</ele>
        <time>2016-08-29T08:28:02Z</time>
      </trkpt>
      <trkpt lat="44.47827" lon="4.82502">
        <ele>306.309265</ele>
        <time>2016-08-29T08:28:11Z</time>
      </trkpt>
      <trkpt lat="44.47858" lon="4.82484">
        <ele>304.543335</ele>
        <time>2016-08-29T08:28:17Z</time>
      </trkpt>
      <trkpt lat="44.47887" lon="4.82456">
        <ele>303.40332</ele>
        <time>2016-08-29T08:28:24Z</time>
      </trkpt>
      <trkpt lat="44.4789" lon="4.82452">
        <ele>303.515717</ele>
        <time>2016-08-29T08:28:25Z</time>
      </trkpt>
      <trkpt lat="44.47898" lon="4.82437">
        <ele>303.865692</ele>
        <time>2016-08-29T08:28:28Z</time>
      </trkpt>
      <trkpt lat="44.479" lon="4.82431">
        <ele>303.980408</ele>
        <time>2016-08-29T08:28:29Z</time>
      </trkpt>
      <trkpt lat="44.47901" lon="4.82425">
        <ele>304.085236</ele>
        <time>2016-08-29T08:28:30Z</time>
      </trkpt>
      <trkpt lat="44.47902" lon="4.82419">
        <ele>304.179901</ele>
        <time>2016-08-29T08:28:31Z</time>
      </trkpt>
      <trkpt lat="44.47903" lon="4.82413">
        <ele>304.266266</ele>
        <time>2016-08-29T08:28:32Z</time>
      </trkpt>
      <trkpt lat="44.47903" lon="4.82407">
        <ele>304.335083</ele>
        <time>2016-08-29T08:28:33Z</time>
      </trkpt>
      <trkpt lat="44.47903" lon="4.82402">
        <ele>304.393585</ele>
        <time>2016-08-29T08:28:34Z</time>
      </trkpt>
      <trkpt lat="44.47903" lon="4.82396">
        <ele>304.702667</ele>
        <time>2016-08-29T08:28:35Z</time>
      </trkpt>
      <trkpt lat="44.47893" lon="4.8235">
        <ele>307.56604</ele>
        <time>2016-08-29T08:28:44Z</time>
      </trkpt>
      <trkpt lat="44.47908" lon="4.82333">
        <ele>309.607513</ele>
        <time>2016-08-29T08:28:50Z</time>
      </trkpt>
      <trkpt lat="44.47955" lon="4.82299">
        <ele>314.520325</ele>
        <time>2016-08-29T08:29:05Z</time>
      </trkpt>
      <trkpt lat="44.47986" lon="4.82269">
        <ele>318.354797</ele>
        <time>2016-08-29T08:29:16Z</time>
      </trkpt>
      <trkpt lat="44.48005" lon="4.82265">
        <ele>317.595367</ele>
        <time>2016-08-29T08:29:21Z</time>
      </trkpt>
      <trkpt lat="44.48017" lon="4.82255">
        <ele>318.774841</ele>
        <time>2016-08-29T08:29:24Z</time>
      </trkpt>
      <trkpt lat="44.48027" lon="4.8222">
        <ele>321.257385</ele>
        <time>2016-08-29T08:29:31Z</time>
      </trkpt>
      <trkpt lat="44.48037" lon="4.82158">
        <ele>323.277069</ele>
        <time>2016-08-29T08:29:43Z</time>
      </trkpt>
      <trkpt lat="44.48026" lon="4.82121">
        <ele>323.981262</ele>
        <time>2016-08-29T08:29:50Z</time>
      </trkpt>
      <trkpt lat="44.48016" lon="4.82107">
        <ele>324.635895</ele>
        <time>2016-08-29T08:29:54Z</time>
      </trkpt>
      <trkpt lat="44.47992" lon="4.82064">
        <ele>322.982513</ele>
        <time>2016-08-29T08:30:02Z</time>
      </trkpt>
      <trkpt lat="44.47972" lon="4.82042">
        <ele>322.480011</ele>
        <time>2016-08-29T08:30:07Z</time>
      </trkpt>
      <trkpt lat="44.47941" lon="4.82016">
        <ele>321.803802</ele>
        <time>2016-08-29T08:30:14Z</time>
      </trkpt>
      <trkpt lat="44.47927" lon="4.82004">
        <ele>320.886078</ele>
        <time>2016-08-29T08:30:18Z</time>
      </trkpt>
      <trkpt lat="44.47889" lon="4.81986">
        <ele>322.447906</ele>
        <time>2016-08-29T08:30:27Z</time>
      </trkpt>
      <trkpt lat="44.47852" lon="4.81984">
        <ele>326.148743</ele>
        <time>2016-08-29T08:30:37Z</time>
      </trkpt>
      <trkpt lat="44.47841" lon="4.81985">
        <ele>327.346588</ele>
        <time>2016-08-29T08:30:40Z</time>
      </trkpt>
      <trkpt lat="44.47792" lon="4.81963">
        <ele>331.574066</ele>
        <time>2016-08-29T08:30:53Z</time>
      </trkpt>
      <trkpt lat="44.47758" lon="4.81933">
        <ele>332.355072</ele>
        <time>2016-08-29T08:31:04Z</time>
      </trkpt>
      <trkpt lat="44.47746" lon="4.81928">
        <ele>334.799652</ele>
        <time>2016-08-29T08:31:08Z</time>
      </trkpt>
      <trkpt lat="44.47731" lon="4.8192">
        <ele>335.916382</ele>
        <time>2016-08-29T08:31:13Z</time>
      </trkpt>
      <trkpt lat="44.47718" lon="4.8191">
        <ele>337.187225</ele>
        <time>2016-08-29T08:31:18Z</time>
      </trkpt>
      <trkpt lat="44.47703" lon="4.81905">
        <ele>339.405792</ele>
        <time>2016-08-29T08:31:22Z</time>
      </trkpt>
      <trkpt lat="44.4768" lon="4.81903">
        <ele>339.73642</ele>
        <time>2016-08-29T08:31:28Z</time>
      </trkpt>
      <trkpt lat="44.47671" lon="4.81889">
        <ele>339.715759</ele>
        <time>2016-08-29T08:31:32Z</time>
      </trkpt>
      <trkpt lat="44.47664" lon="4.81839">
        <ele>340.36499</ele>
        <time>2016-08-29T08:31:42Z</time>
      </trkpt>
      <trkpt lat="44.47664" lon="4.81821">
        <ele>340.483887</ele>
        <time>2016-08-29T08:31:45Z</time>
      </trkpt>
      <trkpt lat="44.47658" lon="4.81749">
        <ele>340.177521</ele>
        <time>2016-08-29T08:31:58Z</time>
      </trkpt>
      <trkpt lat="44.47657" lon="4.81742">
        <ele>339.746735</ele>
        <time>2016-08-29T08:31:59Z</time>
      </trkpt>
      <trkpt lat="44.47655" lon="4.8172">
        <ele>338.411041</ele>
        <time>2016-08-29T08:32:02Z</time>
      </trkpt>
      <trkpt lat="44.47653" lon="4.81713">
        <ele>338.024841</ele>
        <time>2016-08-29T08:32:03Z</time>
      </trkpt>
      <trkpt lat="44.47648" lon="4.81707">
        <ele>337.759155</ele>
        <time>2016-08-29T08:32:04Z</time>
      </trkpt>
      <trkpt lat="44.47641" lon="4.81701">
        <ele>337.612396</ele>
        <time>2016-08-29T08:32:05Z</time>
      </trkpt>
      <trkpt lat="44.47635" lon="4.81696">
        <ele>337.365204</ele>
        <time>2016-08-29T08:32:06Z</time>
      </trkpt>
      <trkpt lat="44.47629" lon="4.81692">
        <ele>337.082977</ele>
        <time>2016-08-29T08:32:07Z</time>
      </trkpt>
      <trkpt lat="44.47585" lon="4.81665">
        <ele>338.239777</ele>
        <time>2016-08-29T08:32:15Z</time>
      </trkpt>
      <trkpt lat="44.47582" lon="4.81661">
        <ele>338.306244</ele>
        <time>2016-08-29T08:32:16Z</time>
      </trkpt>
      <trkpt lat="44.47579" lon="4.81656">
        <ele>338.33844</ele>
        <time>2016-08-29T08:32:17Z</time>
      </trkpt>
      <trkpt lat="44.47577" lon="4.81651">
        <ele>338.332031</ele>
        <time>2016-08-29T08:32:18Z</time>
      </trkpt>
      <trkpt lat="44.47574" lon="4.81645">
        <ele>338.31131</ele>
        <time>2016-08-29T08:32:19Z</time>
      </trkpt>
      <trkpt lat="44.47567" lon="4.81621">
        <ele>338.27774</ele>
        <time>2016-08-29T08:32:23Z</time>
      </trkpt>
      <trkpt lat="44.47565" lon="4.81615">
        <ele>338.365387</ele>
        <time>2016-08-29T08:32:24Z</time>
      </trkpt>
      <trkpt lat="44.47563" lon="4.8161">
        <ele>338.421692</ele>
        <time>2016-08-29T08:32:25Z</time>
      </trkpt>
      <trkpt lat="44.47554" lon="4.81584">
        <ele>338.588867</ele>
        <time>2016-08-29T08:32:30Z</time>
      </trkpt>
      <trkpt lat="44.47552" lon="4.81578">
        <ele>338.582001</ele>
        <time>2016-08-29T08:32:31Z</time>
      </trkpt>
      <trkpt lat="44.47551" lon="4.81571">
        <ele>338.552521</ele>
        <time>2016-08-29T08:32:32Z</time>
      </trkpt>
      <trkpt lat="44.47543" lon="4.81459">
        <ele>339.229065</ele>
        <time>2016-08-29T08:32:47Z</time>
      </trkpt>
      <trkpt lat="44.47529" lon="4.81392">
        <ele>340.107513</ele>
        <time>2016-08-29T08:32:58Z</time>
      </trkpt>
      <trkpt lat="44.47528" lon="4.81386">
        <ele>340.140015</ele>
        <time>2016-08-29T08:32:59Z</time>
      </trkpt>
      <trkpt lat="44.47522" lon="4.81334">
        <ele>339.381287</ele>
        <time>2016-08-29T08:33:06Z</time>
      </trkpt>
      <trkpt lat="44.47508" lon="4.81289">
        <ele>337.579346</ele>
        <time>2016-08-29T08:33:12Z</time>
      </trkpt>
      <trkpt lat="44.47485" lon="4.81233">
        <ele>334.17215</ele>
        <time>2016-08-29T08:33:19Z</time>
      </trkpt>
      <trkpt lat="44.47483" lon="4.81223">
        <ele>333.222351</ele>
        <time>2016-08-29T08:33:20Z</time>
      </trkpt>
      <trkpt lat="44.47479" lon="4.81193">
        <ele>330.438843</ele>
        <time>2016-08-29T08:33:23Z</time>
      </trkpt>
      <trkpt lat="44.47476" lon="4.81184">
        <ele>329.763</ele>
        <time>2016-08-29T08:33:24Z</time>
      </trkpt>
      <trkpt lat="44.47459" lon="4.81148">
        <ele>328.692749</ele>
        <time>2016-08-29T08:33:28Z</time>
      </trkpt>
      <trkpt lat="44.47446" lon="4.81104">
        <ele>329.040771</ele>
        <time>2016-08-29T08:33:32Z</time>
      </trkpt>
      <trkpt lat="44.47444" lon="4.81093">
        <ele>329.005341</ele>
        <time>2016-08-29T08:33:33Z</time>
      </trkpt>
      <trkpt lat="44.47437" lon="4.81028">
        <ele>326.587555</ele>
        <time>2016-08-29T08:33:40Z</time>
      </trkpt>
      <trkpt lat="44.4742" lon="4.80952">
        <ele>323.742096</ele>
        <time>2016-08-29T08:33:49Z</time>
      </trkpt>
      <trkpt lat="44.47412" lon="4.80891">
        <ele>321.862518</ele>
        <time>2016-08-29T08:33:54Z</time>
      </trkpt>
      <trkpt lat="44.47405" lon="4.80849">
        <ele>320.297485</ele>
        <time>2016-08-29T08:33:58Z</time>
      </trkpt>
      <trkpt lat="44.47406" lon="4.80821">
        <ele>319.404999</ele>
        <time>2016-08-29T08:34:04Z</time>
      </trkpt>
      <trkpt lat="44.4741" lon="4.80802">
        <ele>319.09375</ele>
        <time>2016-08-29T08:34:07Z</time>
      </trkpt>
      <trkpt lat="44.47411" lon="4.80796">
        <ele>319.19751</ele>
        <time>2016-08-29T08:34:08Z</time>
      </trkpt>
      <trkpt lat="44.47414" lon="4.80776">
        <ele>319.298889</ele>
        <time>2016-08-29T08:34:11Z</time>
      </trkpt>
      <trkpt lat="44.47414" lon="4.80718">
        <ele>321.313507</ele>
        <time>2016-08-29T08:34:20Z</time>
      </trkpt>
      <trkpt lat="44.47415" lon="4.80653">
        <ele>324.345795</ele>
        <time>2016-08-29T08:34:31Z</time>
      </trkpt>
      <trkpt lat="44.47416" lon="4.80595">
        <ele>326.639893</ele>
        <time>2016-08-29T08:34:43Z</time>
      </trkpt>
      <trkpt lat="44.47403" lon="4.8053">
        <ele>328.210815</ele>
        <time>2016-08-29T08:34:58Z</time>
      </trkpt>
      <trkpt lat="44.47385" lon="4.80449">
        <ele>332.781281</ele>
        <time>2016-08-29T08:35:13Z</time>
      </trkpt>
      <trkpt lat="44.47363" lon="4.80373">
        <ele>333.589294</ele>
        <time>2016-08-29T08:35:29Z</time>
      </trkpt>
      <trkpt lat="44.47355" lon="4.8034">
        <ele>332.374847</ele>
        <time>2016-08-29T08:35:34Z</time>
      </trkpt>
      <trkpt lat="44.4734" lon="4.80294">
        <ele>332.751068</ele>
        <time>2016-08-29T08:35:41Z</time>
      </trkpt>
      <trkpt lat="44.47324" lon="4.80244">
        <ele>330.956299</ele>
        <time>2016-08-29T08:35:49Z</time>
      </trkpt>
      <trkpt lat="44.47316" lon="4.80204">
        <ele>334.286865</ele>
        <time>2016-08-29T08:35:56Z</time>
      </trkpt>
      <trkpt lat="44.47314" lon="4.80199">
        <ele>334.876282</ele>
        <time>2016-08-29T08:35:57Z</time>
      </trkpt>
      <trkpt lat="44.47312" lon="4.80195">
        <ele>335.465668</ele>
        <time>2016-08-29T08:35:58Z</time>
      </trkpt>
      <trkpt lat="44.4731" lon="4.80191">
        <ele>336.032623</ele>
        <time>2016-08-29T08:35:59Z</time>
      </trkpt>
      <trkpt lat="44.47306" lon="4.80187">
        <ele>336.562408</ele>
        <time>2016-08-29T08:36:00Z</time>
      </trkpt>
      <trkpt lat="44.47303" lon="4.80185">
        <ele>337.046356</ele>
        <time>2016-08-29T08:36:01Z</time>
      </trkpt>
      <trkpt lat="44.473" lon="4.80183">
        <ele>337.523407</ele>
        <time>2016-08-29T08:36:02Z</time>
      </trkpt>
      <trkpt lat="44.47296" lon="4.80182">
        <ele>337.985229</ele>
        <time>2016-08-29T08:36:03Z</time>
      </trkpt>
      <trkpt lat="44.47292" lon="4.80181">
        <ele>338.373688</ele>
        <time>2016-08-29T08:36:04Z</time>
      </trkpt>
      <trkpt lat="44.47288" lon="4.8018">
        <ele>338.684998</ele>
        <time>2016-08-29T08:36:05Z</time>
      </trkpt>
      <trkpt lat="44.47284" lon="4.8018">
        <ele>338.962494</ele>
        <time>2016-08-29T08:36:06Z</time>
      </trkpt>
      <trkpt lat="44.47271" lon="4.80176">
        <ele>340.154999</ele>
        <time>2016-08-29T08:36:09Z</time>
      </trkpt>
      <trkpt lat="44.47241" lon="4.80163">
        <ele>342.886169</ele>
        <time>2016-08-29T08:36:18Z</time>
      </trkpt>
      <trkpt lat="44.47195" lon="4.8014">
        <ele>342.886078</ele>
        <time>2016-08-29T08:36:32Z</time>
      </trkpt>
      <trkpt lat="44.47125" lon="4.80102">
        <ele>341.033813</ele>
        <time>2016-08-29T08:36:46Z</time>
      </trkpt>
      <trkpt lat="44.47095" lon="4.80092">
        <ele>340.519135</ele>
        <time>2016-08-29T08:36:52Z</time>
      </trkpt>
      <trkpt lat="44.47091" lon="4.8009">
        <ele>340.511597</ele>
        <time>2016-08-29T08:36:53Z</time>
      </trkpt>
      <trkpt lat="44.47046" lon="4.80068">
        <ele>340.615906</ele>
        <time>2016-08-29T08:37:03Z</time>
      </trkpt>
      <trkpt lat="44.47022" lon="4.80059">
        <ele>340.102509</ele>
        <time>2016-08-29T08:37:08Z</time>
      </trkpt>
      <trkpt lat="44.47018" lon="4.80058">
        <ele>339.880005</ele>
        <time>2016-08-29T08:37:09Z</time>
      </trkpt>
      <trkpt lat="44.46988" lon="4.80047">
        <ele>338.683746</ele>
        <time>2016-08-29T08:37:15Z</time>
      </trkpt>
      <trkpt lat="44.46978" lon="4.80042">
        <ele>338.332001</ele>
        <time>2016-08-29T08:37:17Z</time>
      </trkpt>
      <trkpt lat="44.46968" lon="4.80034">
        <ele>337.997314</ele>
        <time>2016-08-29T08:37:19Z</time>
      </trkpt>
      <trkpt lat="44.46935" lon="4.80006">
        <ele>337.61084</ele>
        <time>2016-08-29T08:37:25Z</time>
      </trkpt>
      <trkpt lat="44.46857" lon="4.79985">
        <ele>336.218933</ele>
        <time>2016-08-29T08:37:37Z</time>
      </trkpt>
      <trkpt lat="44.46836" lon="4.79986">
        <ele>337.345947</ele>
        <time>2016-08-29T08:37:41Z</time>
      </trkpt>
      <trkpt lat="44.4683" lon="4.79984">
        <ele>337.90506</ele>
        <time>2016-08-29T08:37:42Z</time>
      </trkpt>
      <trkpt lat="44.46825" lon="4.79982">
        <ele>338.419617</ele>
        <time>2016-08-29T08:37:43Z</time>
      </trkpt>
      <trkpt lat="44.46812" lon="4.79969">
        <ele>339.388367</ele>
        <time>2016-08-29T08:37:46Z</time>
      </trkpt>
      <trkpt lat="44.46803" lon="4.79961">
        <ele>340.136536</ele>
        <time>2016-08-29T08:37:48Z</time>
      </trkpt>
      <trkpt lat="44.4679" lon="4.79949">
        <ele>341.804993</ele>
        <time>2016-08-29T08:37:51Z</time>
      </trkpt>
      <trkpt lat="44.46773" lon="4.79942">
        <ele>343.592499</ele>
        <time>2016-08-29T08:37:54Z</time>
      </trkpt>
      <trkpt lat="44.46758" lon="4.79941">
        <ele>344.971252</ele>
        <time>2016-08-29T08:37:57Z</time>
      </trkpt>
      <trkpt lat="44.46749" lon="4.79939">
        <ele>345.462494</ele>
        <time>2016-08-29T08:37:59Z</time>
      </trkpt>
      <trkpt lat="44.4674" lon="4.79938">
        <ele>345.913757</ele>
        <time>2016-08-29T08:38:01Z</time>
      </trkpt>
      <trkpt lat="44.46736" lon="4.79937">
        <ele>346.158752</ele>
        <time>2016-08-29T08:38:02Z</time>
      </trkpt>
      <trkpt lat="44.46732" lon="4.79934">
        <ele>346.442505</ele>
        <time>2016-08-29T08:38:03Z</time>
      </trkpt>
      <trkpt lat="44.46727" lon="4.79932">
        <ele>346.755005</ele>
        <time>2016-08-29T08:38:04Z</time>
      </trkpt>
      <trkpt lat="44.46723" lon="4.79929">
        <ele>347.084991</ele>
        <time>2016-08-29T08:38:05Z</time>
      </trkpt>
      <trkpt lat="44.46719" lon="4.79926">
        <ele>347.421265</ele>
        <time>2016-08-29T08:38:06Z</time>
      </trkpt>
      <trkpt lat="44.46691" lon="4.79905">
        <ele>348.153748</ele>
        <time>2016-08-29T08:38:12Z</time>
      </trkpt>
      <trkpt lat="44.46631" lon="4.79884">
        <ele>347.820007</ele>
        <time>2016-08-29T08:38:23Z</time>
      </trkpt>
      <trkpt lat="44.4655" lon="4.79867">
        <ele>345.661255</ele>
        <time>2016-08-29T08:38:36Z</time>
      </trkpt>
      <trkpt lat="44.46523" lon="4.79856">
        <ele>345.180817</ele>
        <time>2016-08-29T08:38:41Z</time>
      </trkpt>
      <trkpt lat="44.46518" lon="4.79852">
        <ele>345.180847</ele>
        <time>2016-08-29T08:38:42Z</time>
      </trkpt>
      <trkpt lat="44.46512" lon="4.79848">
        <ele>345.156616</ele>
        <time>2016-08-29T08:38:43Z</time>
      </trkpt>
      <trkpt lat="44.46503" lon="4.79838">
        <ele>345.220856</ele>
        <time>2016-08-29T08:38:45Z</time>
      </trkpt>
      <trkpt lat="44.46497" lon="4.79825">
        <ele>345.472229</ele>
        <time>2016-08-29T08:38:47Z</time>
      </trkpt>
      <trkpt lat="44.46493" lon="4.79812">
        <ele>345.422638</ele>
        <time>2016-08-29T08:38:49Z</time>
      </trkpt>
      <trkpt lat="44.46492" lon="4.79805">
        <ele>345.481628</ele>
        <time>2016-08-29T08:38:50Z</time>
      </trkpt>
      <trkpt lat="44.4649" lon="4.79779">
        <ele>345.703827</ele>
        <time>2016-08-29T08:38:54Z</time>
      </trkpt>
      <trkpt lat="44.46492" lon="4.79698">
        <ele>346.029999</ele>
        <time>2016-08-29T08:39:08Z</time>
      </trkpt>
      <trkpt lat="44.46506" lon="4.79639">
        <ele>348.780518</ele>
        <time>2016-08-29T08:39:20Z</time>
      </trkpt>
      <trkpt lat="44.46541" lon="4.79586">
        <ele>351.03598</ele>
        <time>2016-08-29T08:39:34Z</time>
      </trkpt>
      <trkpt lat="44.4656" lon="4.79551">
        <ele>351.310822</ele>
        <time>2016-08-29T08:39:42Z</time>
      </trkpt>
      <trkpt lat="44.46561" lon="4.79545">
        <ele>351.278687</ele>
        <time>2016-08-29T08:39:43Z</time>
      </trkpt>
      <trkpt lat="44.46566" lon="4.79498">
        <ele>350.125397</ele>
        <time>2016-08-29T08:39:51Z</time>
      </trkpt>
      <trkpt lat="44.46573" lon="4.79468">
        <ele>347.69516</ele>
        <time>2016-08-29T08:39:55Z</time>
      </trkpt>
      <trkpt lat="44.46575" lon="4.79459">
        <ele>346.841156</ele>
        <time>2016-08-29T08:39:56Z</time>
      </trkpt>
      <trkpt lat="44.46577" lon="4.79442">
        <ele>344.712738</ele>
        <time>2016-08-29T08:39:58Z</time>
      </trkpt>
      <trkpt lat="44.46576" lon="4.79434">
        <ele>343.788391</ele>
        <time>2016-08-29T08:39:59Z</time>
      </trkpt>
      <trkpt lat="44.46575" lon="4.79426">
        <ele>343.11792</ele>
        <time>2016-08-29T08:40:00Z</time>
      </trkpt>
      <trkpt lat="44.46572" lon="4.7942">
        <ele>342.920502</ele>
        <time>2016-08-29T08:40:01Z</time>
      </trkpt>
      <trkpt lat="44.46569" lon="4.79414">
        <ele>342.975922</ele>
        <time>2016-08-29T08:40:02Z</time>
      </trkpt>
      <trkpt lat="44.46565" lon="4.7941">
        <ele>343.253082</ele>
        <time>2016-08-29T08:40:03Z</time>
      </trkpt>
      <trkpt lat="44.46562" lon="4.79406">
        <ele>343.639862</ele>
        <time>2016-08-29T08:40:04Z</time>
      </trkpt>
      <trkpt lat="44.46558" lon="4.79403">
        <ele>344.140778</ele>
        <time>2016-08-29T08:40:05Z</time>
      </trkpt>
      <trkpt lat="44.46531" lon="4.79382">
        <ele>347.506775</ele>
        <time>2016-08-29T08:40:12Z</time>
      </trkpt>
      <trkpt lat="44.46495" lon="4.7936">
        <ele>350.905487</ele>
        <time>2016-08-29T08:40:21Z</time>
      </trkpt>
      <trkpt lat="44.46456" lon="4.79346">
        <ele>354.529846</ele>
        <time>2016-08-29T08:40:33Z</time>
      </trkpt>
      <trkpt lat="44.46418" lon="4.79305">
        <ele>355.905945</ele>
        <time>2016-08-29T08:40:45Z</time>
      </trkpt>
      <trkpt lat="44.4639" lon="4.79276">
        <ele>357.422394</ele>
        <time>2016-08-29T08:40:55Z</time>
      </trkpt>
      <trkpt lat="44.46351" lon="4.79232">
        <ele>360.394318</ele>
        <time>2016-08-29T08:41:08Z</time>
      </trkpt>
      <trkpt lat="44.46316" lon="4.79189">
        <ele>363.548798</ele>
        <time>2016-08-29T08:41:22Z</time>
      </trkpt>
      <trkpt lat="44.46288" lon="4.79155">
        <ele>364.559052</ele>
        <time>2016-08-29T08:41:33Z</time>
      </trkpt>
      <trkpt lat="44.46261" lon="4.79113">
        <ele>366.029053</ele>
        <time>2016-08-29T08:41:46Z</time>
      </trkpt>
      <trkpt lat="44.46245" lon="4.79055">
        <ele>366.945129</ele>
        <time>2016-08-29T08:41:58Z</time>
      </trkpt>
      <trkpt lat="44.46235" lon="4.78987">
        <ele>369.302765</ele>
        <time>2016-08-29T08:42:12Z</time>
      </trkpt>
      <trkpt lat="44.46231" lon="4.78972">
        <ele>369.880981</ele>
        <time>2016-08-29T08:42:15Z</time>
      </trkpt>
      <trkpt lat="44.46218" lon="4.78912">
        <ele>372.692139</ele>
        <time>2016-08-29T08:42:26Z</time>
      </trkpt>
      <trkpt lat="44.46217" lon="4.78906">
        <ele>372.886505</ele>
        <time>2016-08-29T08:42:27Z</time>
      </trkpt>
      <trkpt lat="44.46208" lon="4.78848">
        <ele>376.072296</ele>
        <time>2016-08-29T08:42:38Z</time>
      </trkpt>
      <trkpt lat="44.46206" lon="4.78816">
        <ele>378.512878</ele>
        <time>2016-08-29T08:42:44Z</time>
      </trkpt>
      <trkpt lat="44.46214" lon="4.78771">
        <ele>374.794556</ele>
        <time>2016-08-29T08:42:54Z</time>
      </trkpt>
      <trkpt lat="44.46219" lon="4.78755">
        <ele>373.264099</ele>
        <time>2016-08-29T08:42:56Z</time>
      </trkpt>
      <trkpt lat="44.46223" lon="4.78748">
        <ele>372.664429</ele>
        <time>2016-08-29T08:42:57Z</time>
      </trkpt>
      <trkpt lat="44.46227" lon="4.7874">
        <ele>371.894409</ele>
        <time>2016-08-29T08:42:58Z</time>
      </trkpt>
      <trkpt lat="44.4623" lon="4.78734">
        <ele>371.133728</ele>
        <time>2016-08-29T08:42:59Z</time>
      </trkpt>
      <trkpt lat="44.46232" lon="4.78728">
        <ele>370.460022</ele>
        <time>2016-08-29T08:43:00Z</time>
      </trkpt>
      <trkpt lat="44.46233" lon="4.78723">
        <ele>369.820038</ele>
        <time>2016-08-29T08:43:01Z</time>
      </trkpt>
      <trkpt lat="44.46234" lon="4.78718">
        <ele>369.278503</ele>
        <time>2016-08-29T08:43:02Z</time>
      </trkpt>
      <trkpt lat="44.46231" lon="4.78713">
        <ele>368.489868</ele>
        <time>2016-08-29T08:43:03Z</time>
      </trkpt>
      <trkpt lat="44.46227" lon="4.78709">
        <ele>367.745148</ele>
        <time>2016-08-29T08:43:04Z</time>
      </trkpt>
      <trkpt lat="44.46222" lon="4.78706">
        <ele>367.12677</ele>
        <time>2016-08-29T08:43:05Z</time>
      </trkpt>
      <trkpt lat="44.46217" lon="4.78705">
        <ele>366.665497</ele>
        <time>2016-08-29T08:43:06Z</time>
      </trkpt>
      <trkpt lat="44.46201" lon="4.78702">
        <ele>365.180542</ele>
        <time>2016-08-29T08:43:09Z</time>
      </trkpt>
      <trkpt lat="44.462" lon="4.78699">
        <ele>364.706818</ele>
        <time>2016-08-29T08:43:10Z</time>
      </trkpt>
      <trkpt lat="44.46201" lon="4.78695">
        <ele>364.112793</ele>
        <time>2016-08-29T08:43:11Z</time>
      </trkpt>
      <trkpt lat="44.46202" lon="4.7869">
        <ele>363.465759</ele>
        <time>2016-08-29T08:43:12Z</time>
      </trkpt>
      <trkpt lat="44.46205" lon="4.78685">
        <ele>362.865479</ele>
        <time>2016-08-29T08:43:13Z</time>
      </trkpt>
      <trkpt lat="44.46209" lon="4.7868">
        <ele>362.372589</ele>
        <time>2016-08-29T08:43:14Z</time>
      </trkpt>
      <trkpt lat="44.46229" lon="4.78646">
        <ele>358.760345</ele>
        <time>2016-08-29T08:43:19Z</time>
      </trkpt>
      <trkpt lat="44.46233" lon="4.7864">
        <ele>358.025787</ele>
        <time>2016-08-29T08:43:20Z</time>
      </trkpt>
      <trkpt lat="44.46249" lon="4.78624">
        <ele>355.213745</ele>
        <time>2016-08-29T08:43:23Z</time>
      </trkpt>
      <trkpt lat="44.46252" lon="4.78618">
        <ele>354.193756</ele>
        <time>2016-08-29T08:43:24Z</time>
      </trkpt>
      <trkpt lat="44.46255" lon="4.78614">
        <ele>353.506256</ele>
        <time>2016-08-29T08:43:25Z</time>
      </trkpt>
      <trkpt lat="44.4626" lon="4.78611">
        <ele>352.731262</ele>
        <time>2016-08-29T08:43:26Z</time>
      </trkpt>
      <trkpt lat="44.46265" lon="4.78609">
        <ele>352</ele>
        <time>2016-08-29T08:43:27Z</time>
      </trkpt>
      <trkpt lat="44.46269" lon="4.78609">
        <ele>351.424988</ele>
        <time>2016-08-29T08:43:28Z</time>
      </trkpt>
      <trkpt lat="44.46274" lon="4.7861">
        <ele>351.056244</ele>
        <time>2016-08-29T08:43:29Z</time>
      </trkpt>
      <trkpt lat="44.46281" lon="4.78613">
        <ele>350.443756</ele>
        <time>2016-08-29T08:43:30Z</time>
      </trkpt>
      <trkpt lat="44.46304" lon="4.78622">
        <ele>347.707672</ele>
        <time>2016-08-29T08:43:33Z</time>
      </trkpt>
      <trkpt lat="44.46335" lon="4.78641">
        <ele>344.850616</ele>
        <time>2016-08-29T08:43:37Z</time>
      </trkpt>
      <trkpt lat="44.46343" lon="4.78645">
        <ele>344.162872</ele>
        <time>2016-08-29T08:43:38Z</time>
      </trkpt>
      <trkpt lat="44.46373" lon="4.78667">
        <ele>342.135193</ele>
        <time>2016-08-29T08:43:42Z</time>
      </trkpt>
      <trkpt lat="44.46392" lon="4.78682">
        <ele>341.461731</ele>
        <time>2016-08-29T08:43:45Z</time>
      </trkpt>
      <trkpt lat="44.46398" lon="4.78687">
        <ele>341.333557</ele>
        <time>2016-08-29T08:43:46Z</time>
      </trkpt>
      <trkpt lat="44.46402" lon="4.78693">
        <ele>341.057251</ele>
        <time>2016-08-29T08:43:47Z</time>
      </trkpt>
      <trkpt lat="44.4641" lon="4.78706">
        <ele>339.672943</ele>
        <time>2016-08-29T08:43:49Z</time>
      </trkpt>
      <trkpt lat="44.46413" lon="4.78713">
        <ele>339.097748</ele>
        <time>2016-08-29T08:43:50Z</time>
      </trkpt>
      <trkpt lat="44.46414" lon="4.78719">
        <ele>338.713837</ele>
        <time>2016-08-29T08:43:51Z</time>
      </trkpt>
      <trkpt lat="44.46415" lon="4.78725">
        <ele>338.485413</ele>
        <time>2016-08-29T08:43:52Z</time>
      </trkpt>
      <trkpt lat="44.46414" lon="4.78731">
        <ele>338.345001</ele>
        <time>2016-08-29T08:43:53Z</time>
      </trkpt>
      <trkpt lat="44.46414" lon="4.78736">
        <ele>338.29364</ele>
        <time>2016-08-29T08:43:54Z</time>
      </trkpt>
      <trkpt lat="44.46413" lon="4.78742">
        <ele>338.260315</ele>
        <time>2016-08-29T08:43:55Z</time>
      </trkpt>
      <trkpt lat="44.46406" lon="4.78787">
        <ele>336.214569</ele>
        <time>2016-08-29T08:44:03Z</time>
      </trkpt>
      <trkpt lat="44.46404" lon="4.78793">
        <ele>336.236542</ele>
        <time>2016-08-29T08:44:04Z</time>
      </trkpt>
      <trkpt lat="44.46401" lon="4.78798">
        <ele>336.366821</ele>
        <time>2016-08-29T08:44:05Z</time>
      </trkpt>
      <trkpt lat="44.46383" lon="4.78827">
        <ele>337.859344</ele>
        <time>2016-08-29T08:44:14Z</time>
      </trkpt>
      <trkpt lat="44.46377" lon="4.78842">
        <ele>337.815582</ele>
        <time>2016-08-29T08:44:19Z</time>
      </trkpt>
      <trkpt lat="44.46373" lon="4.78901">
        <ele>334.815277</ele>
        <time>2016-08-29T08:44:31Z</time>
      </trkpt>
      <trkpt lat="44.46383" lon="4.78958">
        <ele>331.880951</ele>
        <time>2016-08-29T08:44:45Z</time>
      </trkpt>
      <trkpt lat="44.46403" lon="4.79014">
        <ele>328.446259</ele>
        <time>2016-08-29T08:44:56Z</time>
      </trkpt>
      <trkpt lat="44.46429" lon="4.79082">
        <ele>327.422638</ele>
        <time>2016-08-29T08:45:11Z</time>
      </trkpt>
      <trkpt lat="44.46432" lon="4.7909">
        <ele>327.272919</ele>
        <time>2016-08-29T08:45:14Z</time>
      </trkpt>
      <trkpt lat="44.46437" lon="4.79121">
        <ele>328.747101</ele>
        <time>2016-08-29T08:45:26Z</time>
      </trkpt>
      <trkpt lat="44.4644" lon="4.79125">
        <ele>328.432007</ele>
        <time>2016-08-29T08:45:30Z</time>
      </trkpt>
      <trkpt lat="44.4644" lon="4.79127">
        <ele>328.459412</ele>
        <time>2016-08-29T08:45:31Z</time>
      </trkpt>
      <trkpt lat="44.46442" lon="4.7913">
        <ele>328.341309</ele>
        <time>2016-08-29T08:45:32Z</time>
      </trkpt>
      <trkpt lat="44.46455" lon="4.79157">
        <ele>328.483551</ele>
        <time>2016-08-29T08:45:44Z</time>
      </trkpt>
      <trkpt lat="44.46455" lon="4.79164">
        <ele>329.390289</ele>
        <time>2016-08-29T08:45:47Z</time>
      </trkpt>
      <trkpt lat="44.4646" lon="4.79189">
        <ele>330.934998</ele>
        <time>2016-08-29T08:45:53Z</time>
      </trkpt>
      <trkpt lat="44.46476" lon="4.79234">
        <ele>334.423767</ele>
        <time>2016-08-29T08:46:05Z</time>
      </trkpt>
      <trkpt lat="44.46476" lon="4.79236">
        <ele>334.950012</ele>
        <time>2016-08-29T08:46:12Z</time>
      </trkpt>
      <trkpt lat="44.46487" lon="4.79244">
        <ele>333.713745</ele>
        <time>2016-08-29T08:46:15Z</time>
      </trkpt>
      <trkpt lat="44.46504" lon="4.79257">
        <ele>332.041595</ele>
        <time>2016-08-29T08:46:23Z</time>
      </trkpt>
      <trkpt lat="44.46518" lon="4.79237">
        <ele>326.235657</ele>
        <time>2016-08-29T08:46:30Z</time>
      </trkpt>
      <trkpt lat="44.46521" lon="4.79229">
        <ele>324.432617</ele>
        <time>2016-08-29T08:46:32Z</time>
      </trkpt>
      <trkpt lat="44.4652" lon="4.79203">
        <ele>319.920837</ele>
        <time>2016-08-29T08:46:42Z</time>
      </trkpt>
      <trkpt lat="44.46519" lon="4.79197">
        <ele>319.121277</ele>
        <time>2016-08-29T08:46:45Z</time>
      </trkpt>
      <trkpt lat="44.46516" lon="4.79192">
        <ele>319.053925</ele>
        <time>2016-08-29T08:46:47Z</time>
      </trkpt>
      <trkpt lat="44.4651" lon="4.79187">
        <ele>319.618866</ele>
        <time>2016-08-29T08:46:51Z</time>
      </trkpt>
      <trkpt lat="44.46507" lon="4.79169">
        <ele>317.927185</ele>
        <time>2016-08-29T08:46:57Z</time>
      </trkpt>
      <trkpt lat="44.46496" lon="4.79125">
        <ele>315.097656</ele>
        <time>2016-08-29T08:47:09Z</time>
      </trkpt>
      <trkpt lat="44.4649" lon="4.79117">
        <ele>315.825897</ele>
        <time>2016-08-29T08:47:13Z</time>
      </trkpt>
      <trkpt lat="44.46492" lon="4.79115">
        <ele>315.090302</ele>
        <time>2016-08-29T08:47:15Z</time>
      </trkpt>
      <trkpt lat="44.46495" lon="4.79111">
        <ele>313.898865</ele>
        <time>2016-08-29T08:47:18Z</time>
      </trkpt>
      <trkpt lat="44.465" lon="4.7911">
        <ele>312.708466</ele>
        <time>2016-08-29T08:47:20Z</time>
      </trkpt>
      <trkpt lat="44.46514" lon="4.79111">
        <ele>309.686096</ele>
        <time>2016-08-29T08:47:25Z</time>
      </trkpt>
      <trkpt lat="44.46518" lon="4.79111">
        <ele>308.929413</ele>
        <time>2016-08-29T08:47:26Z</time>
      </trkpt>
      <trkpt lat="44.46533" lon="4.79113">
        <ele>306.291168</ele>
        <time>2016-08-29T08:47:31Z</time>
      </trkpt>
      <trkpt lat="44.46535" lon="4.79112">
        <ele>305.651978</ele>
        <time>2016-08-29T08:47:34Z</time>
      </trkpt>
      <trkpt lat="44.46545" lon="4.79075">
        <ele>300.261505</ele>
        <time>2016-08-29T08:47:44Z</time>
      </trkpt>
      <trkpt lat="44.46547" lon="4.79068">
        <ele>299.470001</ele>
        <time>2016-08-29T08:47:45Z</time>
      </trkpt>
      <trkpt lat="44.46553" lon="4.79054">
        <ele>297.257019</ele>
        <time>2016-08-29T08:47:49Z</time>
      </trkpt>
      <trkpt lat="44.46556" lon="4.79043">
        <ele>296.064697</ele>
        <time>2016-08-29T08:48:01Z</time>
      </trkpt>
      <trkpt lat="44.46559" lon="4.79023">
        <ele>294.195404</ele>
        <time>2016-08-29T08:48:08Z</time>
      </trkpt>
      <trkpt lat="44.46553" lon="4.79012">
        <ele>293.962494</ele>
        <time>2016-08-29T08:48:12Z</time>
      </trkpt>
      <trkpt lat="44.46549" lon="4.78988">
        <ele>293.844452</ele>
        <time>2016-08-29T08:48:18Z</time>
      </trkpt>
      <trkpt lat="44.4656" lon="4.78976">
        <ele>291.435577</ele>
        <time>2016-08-29T08:48:28Z</time>
      </trkpt>
      <trkpt lat="44.46578" lon="4.7898">
        <ele>289.21344</ele>
        <time>2016-08-29T08:48:36Z</time>
      </trkpt>
      <trkpt lat="44.4659" lon="4.78977">
        <ele>287.380005</ele>
        <time>2016-08-29T08:48:41Z</time>
      </trkpt>
      <trkpt lat="44.46607" lon="4.78964">
        <ele>284.313049</ele>
        <time>2016-08-29T08:48:47Z</time>
      </trkpt>
      <trkpt lat="44.4661" lon="4.78962">
        <ele>283.859619</ele>
        <time>2016-08-29T08:48:48Z</time>
      </trkpt>
      <trkpt lat="44.46646" lon="4.78954">
        <ele>279.922485</ele>
        <time>2016-08-29T08:48:57Z</time>
      </trkpt>
      <trkpt lat="44.4665" lon="4.78952">
        <ele>279.421539</ele>
        <time>2016-08-29T08:48:58Z</time>
      </trkpt>
      <trkpt lat="44.46657" lon="4.7895">
        <ele>278.580261</ele>
        <time>2016-08-29T08:49:00Z</time>
      </trkpt>
      <trkpt lat="44.46661" lon="4.78946">
        <ele>277.994324</ele>
        <time>2016-08-29T08:49:02Z</time>
      </trkpt>
      <trkpt lat="44.46665" lon="4.78943">
        <ele>277.463501</ele>
        <time>2016-08-29T08:49:04Z</time>
      </trkpt>
      <trkpt lat="44.46674" lon="4.78939">
        <ele>276.130676</ele>
        <time>2016-08-29T08:49:07Z</time>
      </trkpt>
      <trkpt lat="44.46694" lon="4.78924">
        <ele>272.57019</ele>
        <time>2016-08-29T08:49:16Z</time>
      </trkpt>
      <trkpt lat="44.46707" lon="4.78916">
        <ele>270.353912</ele>
        <time>2016-08-29T08:49:24Z</time>
      </trkpt>
      <trkpt lat="44.46733" lon="4.78918">
        <ele>267.224304</ele>
        <time>2016-08-29T08:49:32Z</time>
      </trkpt>
      <trkpt lat="44.46743" lon="4.78911">
        <ele>265.549988</ele>
        <time>2016-08-29T08:49:35Z</time>
      </trkpt>
      <trkpt lat="44.46756" lon="4.7891">
        <ele>263.918732</ele>
        <time>2016-08-29T08:49:40Z</time>
      </trkpt>
      <trkpt lat="44.46761" lon="4.78905">
        <ele>262.943756</ele>
        <time>2016-08-29T08:49:43Z</time>
      </trkpt>
      <trkpt lat="44.46765" lon="4.78906">
        <ele>262.600006</ele>
        <time>2016-08-29T08:49:45Z</time>
      </trkpt>
      <trkpt lat="44.46769" lon="4.7891">
        <ele>262.350006</ele>
        <time>2016-08-29T08:49:49Z</time>
      </trkpt>
      <trkpt lat="44.46777" lon="4.78905">
        <ele>261.125</ele>
        <time>2016-08-29T08:49:53Z</time>
      </trkpt>
      <trkpt lat="44.46798" lon="4.78907">
        <ele>259.503448</ele>
        <time>2016-08-29T08:50:05Z</time>
      </trkpt>
      <trkpt lat="44.46799" lon="4.78908">
        <ele>259.427216</ele>
        <time>2016-08-29T08:50:06Z</time>
      </trkpt>
      <trkpt lat="44.468" lon="4.78908">
        <ele>259.315186</ele>
        <time>2016-08-29T08:50:08Z</time>
      </trkpt>
      <trkpt lat="44.46812" lon="4.78896">
        <ele>257.760742</ele>
        <time>2016-08-29T08:50:11Z</time>
      </trkpt>
      <trkpt lat="44.46815" lon="4.78894">
        <ele>257.212189</ele>
        <time>2016-08-29T08:50:12Z</time>
      </trkpt>
      <trkpt lat="44.46836" lon="4.78873">
        <ele>252.39476</ele>
        <time>2016-08-29T08:50:24Z</time>
      </trkpt>
      <trkpt lat="44.46843" lon="4.78872">
        <ele>251.595306</ele>
        <time>2016-08-29T08:50:43Z</time>
      </trkpt>
      <trkpt lat="44.46845" lon="4.78872">
        <ele>251.451599</ele>
        <time>2016-08-29T08:50:52Z</time>
      </trkpt>
      <trkpt lat="44.46846" lon="4.78872">
        <ele>251.367416</ele>
        <time>2016-08-29T08:51:06Z</time>
      </trkpt>
      <trkpt lat="44.4685" lon="4.7887">
        <ele>250.815063</ele>
        <time>2016-08-29T08:51:15Z</time>
      </trkpt>
      <trkpt lat="44.46857" lon="4.78864">
        <ele>249.921936</ele>
        <time>2016-08-29T08:51:19Z</time>
      </trkpt>
      <trkpt lat="44.46867" lon="4.78857">
        <ele>249.179108</ele>
        <time>2016-08-29T08:51:24Z</time>
      </trkpt>
      <trkpt lat="44.4687" lon="4.78848">
        <ele>249.014877</ele>
        <time>2016-08-29T08:51:26Z</time>
      </trkpt>
      <trkpt lat="44.46871" lon="4.78838">
        <ele>248.990906</ele>
        <time>2016-08-29T08:51:29Z</time>
      </trkpt>
      <trkpt lat="44.46873" lon="4.78835">
        <ele>248.028748</ele>
        <time>2016-08-29T08:51:31Z</time>
      </trkpt>
      <trkpt lat="44.46876" lon="4.78823">
        <ele>244.596878</ele>
        <time>2016-08-29T08:51:35Z</time>
      </trkpt>
      <trkpt lat="44.46875" lon="4.78817">
        <ele>243.542969</ele>
        <time>2016-08-29T08:51:37Z</time>
      </trkpt>
      <trkpt lat="44.46867" lon="4.78808">
        <ele>242.602341</ele>
        <time>2016-08-29T08:51:42Z</time>
      </trkpt>
      <trkpt lat="44.46853" lon="4.78796">
        <ele>241.547607</ele>
        <time>2016-08-29T08:51:50Z</time>
      </trkpt>
      <trkpt lat="44.46852" lon="4.78793">
        <ele>241.061447</ele>
        <time>2016-08-29T08:51:54Z</time>
      </trkpt>
      <trkpt lat="44.46863" lon="4.78789">
        <ele>238.93541</ele>
        <time>2016-08-29T08:51:59Z</time>
      </trkpt>
      <trkpt lat="44.46877" lon="4.78785">
        <ele>235.92749</ele>
        <time>2016-08-29T08:52:07Z</time>
      </trkpt>
      <trkpt lat="44.46893" lon="4.78769">
        <ele>231.951218</ele>
        <time>2016-08-29T08:52:13Z</time>
      </trkpt>
      <trkpt lat="44.46896" lon="4.78766">
        <ele>231.525497</ele>
        <time>2016-08-29T08:52:14Z</time>
      </trkpt>
      <trkpt lat="44.46909" lon="4.78746">
        <ele>228.651611</ele>
        <time>2016-08-29T08:52:19Z</time>
      </trkpt>
      <trkpt lat="44.46912" lon="4.78735">
        <ele>227.298401</ele>
        <time>2016-08-29T08:52:21Z</time>
      </trkpt>
      <trkpt lat="44.46918" lon="4.78728">
        <ele>225.616776</ele>
        <time>2016-08-29T08:52:24Z</time>
      </trkpt>
      <trkpt lat="44.46926" lon="4.78721">
        <ele>223.884506</ele>
        <time>2016-08-29T08:52:28Z</time>
      </trkpt>
      <trkpt lat="44.46939" lon="4.78691">
        <ele>221.137512</ele>
        <time>2016-08-29T08:52:35Z</time>
      </trkpt>
      <trkpt lat="44.46944" lon="4.78679">
        <ele>219.820313</ele>
        <time>2016-08-29T08:52:38Z</time>
      </trkpt>
      <trkpt lat="44.46948" lon="4.78674">
        <ele>219.025604</ele>
        <time>2016-08-29T08:52:39Z</time>
      </trkpt>
      <trkpt lat="44.46951" lon="4.78668">
        <ele>218.145874</ele>
        <time>2016-08-29T08:52:40Z</time>
      </trkpt>
      <trkpt lat="44.46954" lon="4.78662">
        <ele>217.123001</ele>
        <time>2016-08-29T08:52:41Z</time>
      </trkpt>
      <trkpt lat="44.46958" lon="4.78656">
        <ele>216.004288</ele>
        <time>2016-08-29T08:52:42Z</time>
      </trkpt>
      <trkpt lat="44.46962" lon="4.78651">
        <ele>214.977493</ele>
        <time>2016-08-29T08:52:43Z</time>
      </trkpt>
      <trkpt lat="44.46965" lon="4.78644">
        <ele>214.407501</ele>
        <time>2016-08-29T08:52:44Z</time>
      </trkpt>
      <trkpt lat="44.46968" lon="4.78637">
        <ele>214.15033</ele>
        <time>2016-08-29T08:52:45Z</time>
      </trkpt>
      <trkpt lat="44.46984" lon="4.78594">
        <ele>212.734818</ele>
        <time>2016-08-29T08:52:51Z</time>
      </trkpt>
      <trkpt lat="44.46986" lon="4.78586">
        <ele>212.673126</ele>
        <time>2016-08-29T08:52:52Z</time>
      </trkpt>
      <trkpt lat="44.46986" lon="4.78578">
        <ele>212.765869</ele>
        <time>2016-08-29T08:52:53Z</time>
      </trkpt>
      <trkpt lat="44.46987" lon="4.7857">
        <ele>212.847595</ele>
        <time>2016-08-29T08:52:54Z</time>
      </trkpt>
      <trkpt lat="44.46988" lon="4.78562">
        <ele>212.881241</ele>
        <time>2016-08-29T08:52:55Z</time>
      </trkpt>
      <trkpt lat="44.46989" lon="4.78555">
        <ele>212.851547</ele>
        <time>2016-08-29T08:52:56Z</time>
      </trkpt>
      <trkpt lat="44.47" lon="4.78514">
        <ele>210.656006</ele>
        <time>2016-08-29T08:53:02Z</time>
      </trkpt>
      <trkpt lat="44.47016" lon="4.78451">
        <ele>206.932495</ele>
        <time>2016-08-29T08:53:11Z</time>
      </trkpt>
      <trkpt lat="44.47016" lon="4.78429">
        <ele>207.01149</ele>
        <time>2016-08-29T08:53:14Z</time>
      </trkpt>
      <trkpt lat="44.47015" lon="4.78421">
        <ele>207.094269</ele>
        <time>2016-08-29T08:53:15Z</time>
      </trkpt>
      <trkpt lat="44.47018" lon="4.78361">
        <ele>208.988647</ele>
        <time>2016-08-29T08:53:24Z</time>
      </trkpt>
      <trkpt lat="44.47021" lon="4.78349">
        <ele>209.234344</ele>
        <time>2016-08-29T08:53:26Z</time>
      </trkpt>
      <trkpt lat="44.47024" lon="4.78343">
        <ele>209.210312</ele>
        <time>2016-08-29T08:53:27Z</time>
      </trkpt>
      <trkpt lat="44.47061" lon="4.78299">
        <ele>207.51709</ele>
        <time>2016-08-29T08:53:36Z</time>
      </trkpt>
      <trkpt lat="44.47066" lon="4.78296">
        <ele>207.148758</ele>
        <time>2016-08-29T08:53:37Z</time>
      </trkpt>
      <trkpt lat="44.47072" lon="4.78294">
        <ele>207.020004</ele>
        <time>2016-08-29T08:53:38Z</time>
      </trkpt>
      <trkpt lat="44.47077" lon="4.78292">
        <ele>206.861252</ele>
        <time>2016-08-29T08:53:39Z</time>
      </trkpt>
      <trkpt lat="44.47083" lon="4.78291">
        <ele>206.691254</ele>
        <time>2016-08-29T08:53:40Z</time>
      </trkpt>
      <trkpt lat="44.47141" lon="4.78276">
        <ele>204.180069</ele>
        <time>2016-08-29T08:53:50Z</time>
      </trkpt>
      <trkpt lat="44.47172" lon="4.78265">
        <ele>201.94313</ele>
        <time>2016-08-29T08:53:55Z</time>
      </trkpt>
      <trkpt lat="44.47228" lon="4.78234">
        <ele>197.986252</ele>
        <time>2016-08-29T08:54:04Z</time>
      </trkpt>
      <trkpt lat="44.47254" lon="4.78223">
        <ele>196.280807</ele>
        <time>2016-08-29T08:54:08Z</time>
      </trkpt>
      <trkpt lat="44.4728" lon="4.78206">
        <ele>194.751846</ele>
        <time>2016-08-29T08:54:12Z</time>
      </trkpt>
      <trkpt lat="44.47286" lon="4.782">
        <ele>194.599701</ele>
        <time>2016-08-29T08:54:13Z</time>
      </trkpt>
      <trkpt lat="44.47292" lon="4.78194">
        <ele>194.527206</ele>
        <time>2016-08-29T08:54:14Z</time>
      </trkpt>
      <trkpt lat="44.47297" lon="4.78188">
        <ele>194.412613</ele>
        <time>2016-08-29T08:54:15Z</time>
      </trkpt>
      <trkpt lat="44.47333" lon="4.7815">
        <ele>192.339996</ele>
        <time>2016-08-29T08:54:21Z</time>
      </trkpt>
      <trkpt lat="44.47375" lon="4.78091">
        <ele>188.159363</ele>
        <time>2016-08-29T08:54:29Z</time>
      </trkpt>
      <trkpt lat="44.47392" lon="4.7807">
        <ele>185.676559</ele>
        <time>2016-08-29T08:54:32Z</time>
      </trkpt>
      <trkpt lat="44.47399" lon="4.78064">
        <ele>184.864456</ele>
        <time>2016-08-29T08:54:33Z</time>
      </trkpt>
      <trkpt lat="44.47407" lon="4.78059">
        <ele>184.102509</ele>
        <time>2016-08-29T08:54:34Z</time>
      </trkpt>
      <trkpt lat="44.47415" lon="4.78056">
        <ele>183.408783</ele>
        <time>2016-08-29T08:54:35Z</time>
      </trkpt>
      <trkpt lat="44.47423" lon="4.78054">
        <ele>182.762115</ele>
        <time>2016-08-29T08:54:36Z</time>
      </trkpt>
      <trkpt lat="44.47431" lon="4.78053">
        <ele>182.139999</ele>
        <time>2016-08-29T08:54:37Z</time>
      </trkpt>
      <trkpt lat="44.47472" lon="4.78046">
        <ele>179.134995</ele>
        <time>2016-08-29T08:54:42Z</time>
      </trkpt>
      <trkpt lat="44.47481" lon="4.78045">
        <ele>178.645004</ele>
        <time>2016-08-29T08:54:43Z</time>
      </trkpt>
      <trkpt lat="44.47523" lon="4.78032">
        <ele>176.256348</ele>
        <time>2016-08-29T08:54:48Z</time>
      </trkpt>
      <trkpt lat="44.47532" lon="4.78027">
        <ele>175.61293</ele>
        <time>2016-08-29T08:54:49Z</time>
      </trkpt>
      <trkpt lat="44.4757" lon="4.77994">
        <ele>172.763748</ele>
        <time>2016-08-29T08:54:54Z</time>
      </trkpt>
      <trkpt lat="44.47577" lon="4.77986">
        <ele>172.164993</ele>
        <time>2016-08-29T08:54:55Z</time>
      </trkpt>
      <trkpt lat="44.47584" lon="4.77977">
        <ele>171.472504</ele>
        <time>2016-08-29T08:54:56Z</time>
      </trkpt>
      <trkpt lat="44.476" lon="4.77949">
        <ele>169.460007</ele>
        <time>2016-08-29T08:54:59Z</time>
      </trkpt>
      <trkpt lat="44.47617" lon="4.77925">
        <ele>167.729996</ele>
        <time>2016-08-29T08:55:02Z</time>
      </trkpt>
      <trkpt lat="44.47626" lon="4.77914">
        <ele>167.182495</ele>
        <time>2016-08-29T08:55:04Z</time>
      </trkpt>
      <trkpt lat="44.4763" lon="4.77911">
        <ele>166.958755</ele>
        <time>2016-08-29T08:55:05Z</time>
      </trkpt>
      <trkpt lat="44.47634" lon="4.77911">
        <ele>166.790009</ele>
        <time>2016-08-29T08:55:06Z</time>
      </trkpt>
      <trkpt lat="44.47637" lon="4.77914">
        <ele>166.669998</ele>
        <time>2016-08-29T08:55:07Z</time>
      </trkpt>
      <trkpt lat="44.4764" lon="4.77919">
        <ele>166.611252</ele>
        <time>2016-08-29T08:55:08Z</time>
      </trkpt>
      <trkpt lat="44.47642" lon="4.77924">
        <ele>166.627502</ele>
        <time>2016-08-29T08:55:09Z</time>
      </trkpt>
      <trkpt lat="44.47642" lon="4.77931">
        <ele>166.702866</ele>
        <time>2016-08-29T08:55:10Z</time>
      </trkpt>
      <trkpt lat="44.47643" lon="4.77938">
        <ele>166.789108</ele>
        <time>2016-08-29T08:55:11Z</time>
      </trkpt>
      <trkpt lat="44.47645" lon="4.77945">
        <ele>166.872467</ele>
        <time>2016-08-29T08:55:12Z</time>
      </trkpt>
      <trkpt lat="44.47646" lon="4.78045">
        <ele>169.093018</ele>
        <time>2016-08-29T08:55:25Z</time>
      </trkpt>
      <trkpt lat="44.47645" lon="4.78104">
        <ele>170.164993</ele>
        <time>2016-08-29T08:55:33Z</time>
      </trkpt>
      <trkpt lat="44.47644" lon="4.78127">
        <ele>170.528748</ele>
        <time>2016-08-29T08:55:36Z</time>
      </trkpt>
      <trkpt lat="44.47642" lon="4.78202">
        <ele>170.400116</ele>
        <time>2016-08-29T08:55:46Z</time>
      </trkpt>
      <trkpt lat="44.4764" lon="4.78209">
        <ele>170.16156</ele>
        <time>2016-08-29T08:55:47Z</time>
      </trkpt>
      <trkpt lat="44.47638" lon="4.78216">
        <ele>169.982758</ele>
        <time>2016-08-29T08:55:48Z</time>
      </trkpt>
      <trkpt lat="44.47635" lon="4.78222">
        <ele>169.847855</ele>
        <time>2016-08-29T08:55:49Z</time>
      </trkpt>
      <trkpt lat="44.47632" lon="4.78229">
        <ele>169.747482</ele>
        <time>2016-08-29T08:55:50Z</time>
      </trkpt>
      <trkpt lat="44.47629" lon="4.78236">
        <ele>169.65007</ele>
        <time>2016-08-29T08:55:51Z</time>
      </trkpt>
      <trkpt lat="44.47623" lon="4.78252">
        <ele>169.909943</ele>
        <time>2016-08-29T08:55:53Z</time>
      </trkpt>
      <trkpt lat="44.47619" lon="4.78267">
        <ele>170.27977</ele>
        <time>2016-08-29T08:55:55Z</time>
      </trkpt>
      <trkpt lat="44.47617" lon="4.78286">
        <ele>170.547562</ele>
        <time>2016-08-29T08:55:58Z</time>
      </trkpt>
      <trkpt lat="44.47617" lon="4.78293">
        <ele>170.603668</ele>
        <time>2016-08-29T08:55:59Z</time>
      </trkpt>
      <trkpt lat="44.47626" lon="4.78301">
        <ele>170.449982</ele>
        <time>2016-08-29T08:56:00Z</time>
      </trkpt>
      <trkpt lat="44.47649" lon="4.78364">
        <ele>171.876404</ele>
        <time>2016-08-29T08:56:10Z</time>
      </trkpt>
      <trkpt lat="44.47667" lon="4.78442">
        <ele>176.309998</ele>
        <time>2016-08-29T08:56:25Z</time>
      </trkpt>
      <trkpt lat="44.47669" lon="4.78451">
        <ele>176.610001</ele>
        <time>2016-08-29T08:56:27Z</time>
      </trkpt>
      <trkpt lat="44.47685" lon="4.78501">
        <ele>178.589081</ele>
        <time>2016-08-29T08:56:41Z</time>
      </trkpt>
      <trkpt lat="44.4769" lon="4.78499">
        <ele>178.369781</ele>
        <time>2016-08-29T08:56:42Z</time>
      </trkpt>
      <trkpt lat="44.47701" lon="4.78495">
        <ele>178.219971</ele>
        <time>2016-08-29T08:56:44Z</time>
      </trkpt>
      <trkpt lat="44.4776" lon="4.78469">
        <ele>176.580002</ele>
        <time>2016-08-29T08:56:55Z</time>
      </trkpt>
      <trkpt lat="44.47788" lon="4.78457">
        <ele>174.700943</ele>
        <time>2016-08-29T08:57:00Z</time>
      </trkpt>
      <trkpt lat="44.47833" lon="4.78439">
        <ele>169.705444</ele>
        <time>2016-08-29T08:57:07Z</time>
      </trkpt>
      <trkpt lat="44.47839" lon="4.78436">
        <ele>169.220001</ele>
        <time>2016-08-29T08:57:08Z</time>
      </trkpt>
      <trkpt lat="44.47845" lon="4.78429">
        <ele>168.643753</ele>
        <time>2016-08-29T08:57:09Z</time>
      </trkpt>
      <trkpt lat="44.4785" lon="4.78421">
        <ele>168.002502</ele>
        <time>2016-08-29T08:57:10Z</time>
      </trkpt>
      <trkpt lat="44.47855" lon="4.78412">
        <ele>167.387497</ele>
        <time>2016-08-29T08:57:11Z</time>
      </trkpt>
      <trkpt lat="44.47858" lon="4.78403">
        <ele>166.798752</ele>
        <time>2016-08-29T08:57:12Z</time>
      </trkpt>
      <trkpt lat="44.47862" lon="4.78394">
        <ele>166.199997</ele>
        <time>2016-08-29T08:57:13Z</time>
      </trkpt>
      <trkpt lat="44.47867" lon="4.78386">
        <ele>165.589996</ele>
        <time>2016-08-29T08:57:14Z</time>
      </trkpt>
      <trkpt lat="44.47884" lon="4.78363">
        <ele>163.987503</ele>
        <time>2016-08-29T08:57:17Z</time>
      </trkpt>
      <trkpt lat="44.47925" lon="4.78308">
        <ele>160.5522</ele>
        <time>2016-08-29T08:57:24Z</time>
      </trkpt>
      <trkpt lat="44.47954" lon="4.78232">
        <ele>158.390961</ele>
        <time>2016-08-29T08:57:32Z</time>
      </trkpt>
      <trkpt lat="44.47959" lon="4.78227">
        <ele>158.302216</ele>
        <time>2016-08-29T08:57:33Z</time>
      </trkpt>
      <trkpt lat="44.47963" lon="4.78222">
        <ele>158.185745</ele>
        <time>2016-08-29T08:57:34Z</time>
      </trkpt>
      <trkpt lat="44.47969" lon="4.78218">
        <ele>158.072495</ele>
        <time>2016-08-29T08:57:35Z</time>
      </trkpt>
      <trkpt lat="44.47974" lon="4.78215">
        <ele>157.940002</ele>
        <time>2016-08-29T08:57:36Z</time>
      </trkpt>
      <trkpt lat="44.4798" lon="4.78212">
        <ele>157.779999</ele>
        <time>2016-08-29T08:57:37Z</time>
      </trkpt>
      <trkpt lat="44.47986" lon="4.7821">
        <ele>157.582504</ele>
        <time>2016-08-29T08:57:38Z</time>
      </trkpt>
      <trkpt lat="44.47992" lon="4.78209">
        <ele>157.377502</ele>
        <time>2016-08-29T08:57:39Z</time>
      </trkpt>
      <trkpt lat="44.48065" lon="4.78207">
        <ele>155.110626</ele>
        <time>2016-08-29T08:57:52Z</time>
      </trkpt>
      <trkpt lat="44.48125" lon="4.782">
        <ele>152.369537</ele>
        <time>2016-08-29T08:58:03Z</time>
      </trkpt>
      <trkpt lat="44.48155" lon="4.78198">
        <ele>150.542999</ele>
        <time>2016-08-29T08:58:09Z</time>
      </trkpt>
      <trkpt lat="44.48159" lon="4.78197">
        <ele>150.317642</ele>
        <time>2016-08-29T08:58:11Z</time>
      </trkpt>
      <trkpt lat="44.48159" lon="4.78197">
        <ele>150.257874</ele>
        <time>2016-08-29T08:58:24Z</time>
      </trkpt>
      <trkpt lat="44.48159" lon="4.78197">
        <ele>150.319229</ele>
        <time>2016-08-29T08:58:37Z</time>
      </trkpt>
      <trkpt lat="44.4816" lon="4.78199">
        <ele>150.133881</ele>
        <time>2016-08-29T08:58:41Z</time>
      </trkpt>
      <trkpt lat="44.48162" lon="4.782">
        <ele>150.002701</ele>
        <time>2016-08-29T08:58:42Z</time>
      </trkpt>
      <trkpt lat="44.48163" lon="4.78202">
        <ele>149.870361</ele>
        <time>2016-08-29T08:58:43Z</time>
      </trkpt>
      <trkpt lat="44.48164" lon="4.78203">
        <ele>149.754135</ele>
        <time>2016-08-29T08:58:44Z</time>
      </trkpt>
      <trkpt lat="44.48165" lon="4.78204">
        <ele>149.638596</ele>
        <time>2016-08-29T08:58:45Z</time>
      </trkpt>
      <trkpt lat="44.48167" lon="4.78204">
        <ele>149.50061</ele>
        <time>2016-08-29T08:58:46Z</time>
      </trkpt>
      <trkpt lat="44.4817" lon="4.78204">
        <ele>149.352692</ele>
        <time>2016-08-29T08:58:47Z</time>
      </trkpt>
      <trkpt lat="44.48172" lon="4.78204">
        <ele>149.178711</ele>
        <time>2016-08-29T08:58:48Z</time>
      </trkpt>
      <trkpt lat="44.48199" lon="4.78209">
        <ele>147.480743</ele>
        <time>2016-08-29T08:58:57Z</time>
      </trkpt>
      <trkpt lat="44.48206" lon="4.78211">
        <ele>147.09465</ele>
        <time>2016-08-29T08:59:10Z</time>
      </trkpt>
      <trkpt lat="44.48212" lon="4.78217">
        <ele>146.729752</ele>
        <time>2016-08-29T08:59:31Z</time>
      </trkpt>
      <trkpt lat="44.48217" lon="4.78223">
        <ele>146.374756</ele>
        <time>2016-08-29T08:59:55Z</time>
      </trkpt>
      <trkpt lat="44.48221" lon="4.78229">
        <ele>146.09787</ele>
        <time>2016-08-29T09:00:10Z</time>
      </trkpt>
      <trkpt lat="44.48223" lon="4.7823">
        <ele>146.031219</ele>
        <time>2016-08-29T09:00:11Z</time>
      </trkpt>
      <trkpt lat="44.48236" lon="4.7825">
        <ele>145.262192</ele>
        <time>2016-08-29T09:00:23Z</time>
      </trkpt>
      <trkpt lat="44.4824" lon="4.78257">
        <ele>145.040939</ele>
        <time>2016-08-29T09:00:38Z</time>
      </trkpt>
      <trkpt lat="44.48243" lon="4.78262">
        <ele>144.878998</ele>
        <time>2016-08-29T09:00:52Z</time>
      </trkpt>
      <trkpt lat="44.48243" lon="4.78265">
        <ele>144.838715</ele>
        <time>2016-08-29T09:00:53Z</time>
      </trkpt>
      <trkpt lat="44.48243" lon="4.78268">
        <ele>144.80394</ele>
        <time>2016-08-29T09:00:54Z</time>
      </trkpt>
      <trkpt lat="44.48241" lon="4.78298">
        <ele>146.160233</ele>
        <time>2016-08-29T09:01:10Z</time>
      </trkpt>
      <trkpt lat="44.4824" lon="4.78307">
        <ele>146.609879</ele>
        <time>2016-08-29T09:01:26Z</time>
      </trkpt>
      <trkpt lat="44.48243" lon="4.78317">
        <ele>146.937012</ele>
        <time>2016-08-29T09:01:41Z</time>
      </trkpt>
      <trkpt lat="44.48245" lon="4.78323">
        <ele>147.105972</ele>
        <time>2016-08-29T09:01:55Z</time>
      </trkpt>
      <trkpt lat="44.48246" lon="4.78326">
        <ele>147.153625</ele>
        <time>2016-08-29T09:01:56Z</time>
      </trkpt>
      <trkpt lat="44.48248" lon="4.78328">
        <ele>147.206497</ele>
        <time>2016-08-29T09:01:57Z</time>
      </trkpt>
      <trkpt lat="44.48249" lon="4.78331">
        <ele>147.235382</ele>
        <time>2016-08-29T09:01:58Z</time>
      </trkpt>
      <trkpt lat="44.48252" lon="4.78332">
        <ele>147.190002</ele>
        <time>2016-08-29T09:01:59Z</time>
      </trkpt>
      <trkpt lat="44.48254" lon="4.78334">
        <ele>147.130005</ele>
        <time>2016-08-29T09:02:00Z</time>
      </trkpt>
      <trkpt lat="44.48255" lon="4.78335">
        <ele>147.095001</ele>
        <time>2016-08-29T09:02:01Z</time>
      </trkpt>
      <trkpt lat="44.48257" lon="4.78337">
        <ele>147.084991</ele>
        <time>2016-08-29T09:02:02Z</time>
      </trkpt>
      <trkpt lat="44.48258" lon="4.7834">
        <ele>147.119995</ele>
        <time>2016-08-29T09:02:03Z</time>
      </trkpt>
      <trkpt lat="44.48259" lon="4.78343">
        <ele>147.167496</ele>
        <time>2016-08-29T09:02:04Z</time>
      </trkpt>
      <trkpt lat="44.48261" lon="4.78346">
        <ele>147.184998</ele>
        <time>2016-08-29T09:02:05Z</time>
      </trkpt>
      <trkpt lat="44.48263" lon="4.78349">
        <ele>147.190002</ele>
        <time>2016-08-29T09:02:06Z</time>
      </trkpt>
      <trkpt lat="44.48283" lon="4.78391">
        <ele>147.43811</ele>
        <time>2016-08-29T09:02:18Z</time>
      </trkpt>
      <trkpt lat="44.4831" lon="4.78437">
        <ele>148.604065</ele>
        <time>2016-08-29T09:02:33Z</time>
      </trkpt>
      <trkpt lat="44.48333" lon="4.78474">
        <ele>149.192688</ele>
        <time>2016-08-29T09:02:45Z</time>
      </trkpt>
      <trkpt lat="44.48343" lon="4.78524">
        <ele>149.277496</ele>
        <time>2016-08-29T09:02:57Z</time>
      </trkpt>
      <trkpt lat="44.48352" lon="4.78562">
        <ele>149.921249</ele>
        <time>2016-08-29T09:03:08Z</time>
      </trkpt>
      <trkpt lat="44.48353" lon="4.7856">
        <ele>149.776245</ele>
        <time>2016-08-29T09:03:24Z</time>
      </trkpt>
      <trkpt lat="44.48354" lon="4.78563">
        <ele>149.714996</ele>
        <time>2016-08-29T09:03:28Z</time>
      </trkpt>
      <trkpt lat="44.48357" lon="4.78565">
        <ele>149.592499</ele>
        <time>2016-08-29T09:03:29Z</time>
      </trkpt>
      <trkpt lat="44.4836" lon="4.78569">
        <ele>149.404999</ele>
        <time>2016-08-29T09:03:30Z</time>
      </trkpt>
      <trkpt lat="44.48364" lon="4.78571">
        <ele>149.136246</ele>
        <time>2016-08-29T09:03:31Z</time>
      </trkpt>
      <trkpt lat="44.48369" lon="4.78574">
        <ele>149.028748</ele>
        <time>2016-08-29T09:03:32Z</time>
      </trkpt>
      <trkpt lat="44.48374" lon="4.78577">
        <ele>148.962494</ele>
        <time>2016-08-29T09:03:33Z</time>
      </trkpt>
      <trkpt lat="44.48431" lon="4.78621">
        <ele>147.555008</ele>
        <time>2016-08-29T09:03:43Z</time>
      </trkpt>
      <trkpt lat="44.48437" lon="4.78624">
        <ele>147.35463</ele>
        <time>2016-08-29T09:03:44Z</time>
      </trkpt>
      <trkpt lat="44.48453" lon="4.78632">
        <ele>147.013748</ele>
        <time>2016-08-29T09:03:47Z</time>
      </trkpt>
      <trkpt lat="44.48506" lon="4.7866">
        <ele>150.572495</ele>
        <time>2016-08-29T09:04:00Z</time>
      </trkpt>
      <trkpt lat="44.4851" lon="4.78661">
        <ele>150.772507</ele>
        <time>2016-08-29T09:04:01Z</time>
      </trkpt>
      <trkpt lat="44.48514" lon="4.78661">
        <ele>150.977493</ele>
        <time>2016-08-29T09:04:02Z</time>
      </trkpt>
      <trkpt lat="44.48539" lon="4.78666">
        <ele>152.210007</ele>
        <time>2016-08-29T09:04:08Z</time>
      </trkpt>
      <trkpt lat="44.48556" lon="4.7867">
        <ele>153.013611</ele>
        <time>2016-08-29T09:04:12Z</time>
      </trkpt>
      <trkpt lat="44.4859" lon="4.78676">
        <ele>154.244995</ele>
        <time>2016-08-29T09:04:20Z</time>
      </trkpt>
      <trkpt lat="44.48607" lon="4.78675">
        <ele>154.222504</ele>
        <time>2016-08-29T09:04:24Z</time>
      </trkpt>
      <trkpt lat="44.48611" lon="4.78675">
        <ele>154.213745</ele>
        <time>2016-08-29T09:04:25Z</time>
      </trkpt>
      <trkpt lat="44.48632" lon="4.78672">
        <ele>154.154999</ele>
        <time>2016-08-29T09:04:31Z</time>
      </trkpt>
      <trkpt lat="44.48687" lon="4.78675">
        <ele>154.15625</ele>
        <time>2016-08-29T09:04:44Z</time>
      </trkpt>
      <trkpt lat="44.48764" lon="4.78675">
        <ele>154.116257</ele>
        <time>2016-08-29T09:05:00Z</time>
      </trkpt>
      <trkpt lat="44.48842" lon="4.78675">
        <ele>154.053757</ele>
        <time>2016-08-29T09:05:16Z</time>
      </trkpt>
      <trkpt lat="44.48917" lon="4.78676">
        <ele>154.013748</ele>
        <time>2016-08-29T09:05:32Z</time>
      </trkpt>
      <trkpt lat="44.48921" lon="4.78676">
        <ele>154.012497</ele>
        <time>2016-08-29T09:05:33Z</time>
      </trkpt>
      <trkpt lat="44.49003" lon="4.78675">
        <ele>152.942505</ele>
        <time>2016-08-29T09:05:50Z</time>
      </trkpt>
      <trkpt lat="44.49089" lon="4.78675">
        <ele>151.800003</ele>
        <time>2016-08-29T09:06:07Z</time>
      </trkpt>
      <trkpt lat="44.491" lon="4.78674">
        <ele>151.554993</ele>
        <time>2016-08-29T09:06:09Z</time>
      </trkpt>
      <trkpt lat="44.49117" lon="4.78673">
        <ele>151.175003</ele>
        <time>2016-08-29T09:06:12Z</time>
      </trkpt>
      <trkpt lat="44.49128" lon="4.78675">
        <ele>150.925415</ele>
        <time>2016-08-29T09:06:14Z</time>
      </trkpt>
      <trkpt lat="44.49196" lon="4.78678">
        <ele>149.853745</ele>
        <time>2016-08-29T09:06:28Z</time>
      </trkpt>
      <trkpt lat="44.49264" lon="4.78678">
        <ele>148.788666</ele>
        <time>2016-08-29T09:06:42Z</time>
      </trkpt>
      <trkpt lat="44.49269" lon="4.78676">
        <ele>148.735855</ele>
        <time>2016-08-29T09:06:43Z</time>
      </trkpt>
      <trkpt lat="44.49274" lon="4.78674">
        <ele>148.64888</ele>
        <time>2016-08-29T09:06:44Z</time>
      </trkpt>
      <trkpt lat="44.49279" lon="4.7867">
        <ele>148.532349</ele>
        <time>2016-08-29T09:06:45Z</time>
      </trkpt>
      <trkpt lat="44.49283" lon="4.78665">
        <ele>148.376801</ele>
        <time>2016-08-29T09:06:46Z</time>
      </trkpt>
      <trkpt lat="44.49287" lon="4.78659">
        <ele>148.191269</ele>
        <time>2016-08-29T09:06:47Z</time>
      </trkpt>
      <trkpt lat="44.49291" lon="4.78653">
        <ele>147.984528</ele>
        <time>2016-08-29T09:06:48Z</time>
      </trkpt>
      <trkpt lat="44.49294" lon="4.78647">
        <ele>147.763641</ele>
        <time>2016-08-29T09:06:49Z</time>
      </trkpt>
      <trkpt lat="44.49335" lon="4.78559">
        <ele>145.873749</ele>
        <time>2016-08-29T09:07:03Z</time>
      </trkpt>
      <trkpt lat="44.49379" lon="4.78467">
        <ele>144.717621</ele>
        <time>2016-08-29T09:07:18Z</time>
      </trkpt>
      <trkpt lat="44.49381" lon="4.78461">
        <ele>144.708908</ele>
        <time>2016-08-29T09:07:19Z</time>
      </trkpt>
      <trkpt lat="44.49391" lon="4.78442">
        <ele>144.739868</ele>
        <time>2016-08-29T09:07:24Z</time>
      </trkpt>
      <trkpt lat="44.49394" lon="4.78442">
        <ele>144.774399</ele>
        <time>2016-08-29T09:07:25Z</time>
      </trkpt>
      <trkpt lat="44.49397" lon="4.78442">
        <ele>144.854965</ele>
        <time>2016-08-29T09:07:26Z</time>
      </trkpt>
      <trkpt lat="44.494" lon="4.78443">
        <ele>144.97258</ele>
        <time>2016-08-29T09:07:27Z</time>
      </trkpt>
      <trkpt lat="44.49403" lon="4.78445">
        <ele>145.082504</ele>
        <time>2016-08-29T09:07:28Z</time>
      </trkpt>
      <trkpt lat="44.49414" lon="4.7845">
        <ele>145.322495</ele>
        <time>2016-08-29T09:07:31Z</time>
      </trkpt>
      <trkpt lat="44.49418" lon="4.78451">
        <ele>145.410004</ele>
        <time>2016-08-29T09:07:32Z</time>
      </trkpt>
      <trkpt lat="44.4943" lon="4.78456">
        <ele>145.664993</ele>
        <time>2016-08-29T09:07:35Z</time>
      </trkpt>
      <trkpt lat="44.49443" lon="4.78464">
        <ele>145.957504</ele>
        <time>2016-08-29T09:07:39Z</time>
      </trkpt>
      <trkpt lat="44.49447" lon="4.78466">
        <ele>146.018219</ele>
        <time>2016-08-29T09:07:40Z</time>
      </trkpt>
      <trkpt lat="44.49526" lon="4.78495">
        <ele>146.722504</ele>
        <time>2016-08-29T09:07:56Z</time>
      </trkpt>
      <trkpt lat="44.49599" lon="4.78523">
        <ele>145.647491</ele>
        <time>2016-08-29T09:08:12Z</time>
      </trkpt>
      <trkpt lat="44.49634" lon="4.78544">
        <ele>145.267746</ele>
        <time>2016-08-29T09:08:20Z</time>
      </trkpt>
      <trkpt lat="44.49666" lon="4.78558">
        <ele>145.249344</ele>
        <time>2016-08-29T09:08:27Z</time>
      </trkpt>
      <trkpt lat="44.49697" lon="4.78567">
        <ele>144.982162</ele>
        <time>2016-08-29T09:08:34Z</time>
      </trkpt>
      <trkpt lat="44.49734" lon="4.78581">
        <ele>144.946243</ele>
        <time>2016-08-29T09:08:42Z</time>
      </trkpt>
      <trkpt lat="44.49773" lon="4.78596">
        <ele>145.317505</ele>
        <time>2016-08-29T09:08:51Z</time>
      </trkpt>
      <trkpt lat="44.49778" lon="4.78598">
        <ele>145.357498</ele>
        <time>2016-08-29T09:08:52Z</time>
      </trkpt>
      <trkpt lat="44.49782" lon="4.786">
        <ele>145.414993</ele>
        <time>2016-08-29T09:08:53Z</time>
      </trkpt>
      <trkpt lat="44.49787" lon="4.78602">
        <ele>145.477493</ele>
        <time>2016-08-29T09:08:54Z</time>
      </trkpt>
      <trkpt lat="44.49791" lon="4.78604">
        <ele>145.547501</ele>
        <time>2016-08-29T09:08:55Z</time>
      </trkpt>
      <trkpt lat="44.49795" lon="4.78606">
        <ele>145.595001</ele>
        <time>2016-08-29T09:08:56Z</time>
      </trkpt>
      <trkpt lat="44.49826" lon="4.78618">
        <ele>145.934998</ele>
        <time>2016-08-29T09:09:03Z</time>
      </trkpt>
      <trkpt lat="44.4985" lon="4.78629">
        <ele>146.244995</ele>
        <time>2016-08-29T09:09:08Z</time>
      </trkpt>
      <trkpt lat="44.49854" lon="4.7863">
        <ele>146.272507</ele>
        <time>2016-08-29T09:09:09Z</time>
      </trkpt>
      <trkpt lat="44.49859" lon="4.78631">
        <ele>146.302505</ele>
        <time>2016-08-29T09:09:10Z</time>
      </trkpt>
      <trkpt lat="44.49863" lon="4.78632">
        <ele>146.339996</ele>
        <time>2016-08-29T09:09:11Z</time>
      </trkpt>
      <trkpt lat="44.49868" lon="4.78633">
        <ele>146.350006</ele>
        <time>2016-08-29T09:09:12Z</time>
      </trkpt>
      <trkpt lat="44.49887" lon="4.78635">
        <ele>146.402496</ele>
        <time>2016-08-29T09:09:16Z</time>
      </trkpt>
      <trkpt lat="44.49892" lon="4.78637">
        <ele>146.4375</ele>
        <time>2016-08-29T09:09:17Z</time>
      </trkpt>
      <trkpt lat="44.49927" lon="4.78649">
        <ele>146.770004</ele>
        <time>2016-08-29T09:09:24Z</time>
      </trkpt>
      <trkpt lat="44.49933" lon="4.7865">
        <ele>146.807495</ele>
        <time>2016-08-29T09:09:25Z</time>
      </trkpt>
      <trkpt lat="44.49938" lon="4.78651">
        <ele>146.892502</ele>
        <time>2016-08-29T09:09:26Z</time>
      </trkpt>
      <trkpt lat="44.49943" lon="4.78652">
        <ele>147.044998</ele>
        <time>2016-08-29T09:09:27Z</time>
      </trkpt>
      <trkpt lat="44.49948" lon="4.78654">
        <ele>147.180008</ele>
        <time>2016-08-29T09:09:28Z</time>
      </trkpt>
      <trkpt lat="44.49953" lon="4.78655">
        <ele>147.335007</ele>
        <time>2016-08-29T09:09:29Z</time>
      </trkpt>
      <trkpt lat="44.49957" lon="4.78657">
        <ele>147.502502</ele>
        <time>2016-08-29T09:09:30Z</time>
      </trkpt>
      <trkpt lat="44.50012" lon="4.78677">
        <ele>148.559998</ele>
        <time>2016-08-29T09:09:42Z</time>
      </trkpt>
      <trkpt lat="44.50068" lon="4.78691">
        <ele>149.965225</ele>
        <time>2016-08-29T09:09:55Z</time>
      </trkpt>
      <trkpt lat="44.50072" lon="4.7868">
        <ele>150.057495</ele>
        <time>2016-08-29T09:10:04Z</time>
      </trkpt>
      <trkpt lat="44.50072" lon="4.7868">
        <ele>150.057495</ele>
        <time>2016-08-29T09:10:10Z</time>
      </trkpt>
      <trkpt lat="44.50072" lon="4.7868">
        <ele>150.050003</ele>
        <time>2016-08-29T09:10:18Z</time>
      </trkpt>
      <trkpt lat="44.50073" lon="4.7868">
        <ele>150.077499</ele>
        <time>2016-08-29T09:10:23Z</time>
      </trkpt>
      <trkpt lat="44.50078" lon="4.78672">
        <ele>150.197495</ele>
        <time>2016-08-29T09:10:27Z</time>
      </trkpt>
      <trkpt lat="44.501" lon="4.78643">
        <ele>150.342499</ele>
        <time>2016-08-29T09:10:36Z</time>
      </trkpt>
      <trkpt lat="44.50108" lon="4.78625">
        <ele>150.206253</ele>
        <time>2016-08-29T09:10:47Z</time>
      </trkpt>
      <trkpt lat="44.50108" lon="4.78622">
        <ele>150.160004</ele>
        <time>2016-08-29T09:10:53Z</time>
      </trkpt>
      <trkpt lat="44.50108" lon="4.78622">
        <ele>150.148743</ele>
        <time>2016-08-29T09:10:54Z</time>
      </trkpt>
      <trkpt lat="44.50107" lon="4.78621">
        <ele>150.136246</ele>
        <time>2016-08-29T09:10:56Z</time>
      </trkpt>
      <trkpt lat="44.50107" lon="4.78621">
        <ele>150.131256</ele>
        <time>2016-08-29T09:10:57Z</time>
      </trkpt>
      <trkpt lat="44.50107" lon="4.78621">
        <ele>150.126251</ele>
        <time>2016-08-29T09:10:58Z</time>
      </trkpt>
      <trkpt lat="44.50107" lon="4.78619">
        <ele>150.103745</ele>
        <time>2016-08-29T09:11:09Z</time>
      </trkpt>
      <trkpt lat="44.50107" lon="4.78619">
        <ele>150.102493</ele>
        <time>2016-08-29T09:11:10Z</time>
      </trkpt>
      <trkpt lat="44.50107" lon="4.78619">
        <ele>150.102493</ele>
        <time>2016-08-29T09:11:11Z</time>
      </trkpt>
      <trkpt lat="44.50107" lon="4.78619">
        <ele>150.101257</ele>
        <time>2016-08-29T09:11:12Z</time>
      </trkpt>
      <trkpt lat="44.50107" lon="4.78619">
        <ele>150.102493</ele>
        <time>2016-08-29T09:11:14Z</time>
      </trkpt>
      <trkpt lat="44.50107" lon="4.78619">
        <ele>150.101257</ele>
        <time>2016-08-29T09:11:15Z</time>
      </trkpt>
      <trkpt lat="44.50107" lon="4.78619">
        <ele>150.102493</ele>
        <time>2016-08-29T09:11:16Z</time>
      </trkpt>
      <trkpt lat="44.50109" lon="4.78617">
        <ele>150.106247</ele>
        <time>2016-08-29T09:11:36Z</time>
      </trkpt>
    </trkseg>
  </trk>
</gpx>